<?xml version="1.0" encoding="UTF-8" standalone="no" ?>
<gpx xmlns="http://www.topografix.com/GPX/1/1" xmlns:xsi="http://www.w3.org/2001/XMLSchema-instance" xsi:schemaLocation="http://www.topografix.com/GPX/1/1 http://www.topografix.com/GPX/1/1/gpx.xsd" version="1.1" creator="VisuGPX - https://www.visugpx.com">
  <metadata>
    <name>2021-01-03 09:03:49 [Strava]</name>
  </metadata>
  <trk>
    <name><![CDATA[2021-01-03 09:03:49 [Strava]_1]]></name>
    <trkseg>
      <trkpt lat="50.63763" lon="3.04854">
        <ele>9.4</ele>
        <time>2021-01-03T08:03:49Z</time>
      </trkpt>
      <trkpt lat="50.63763" lon="3.04854">
        <ele>9.6</ele>
        <time>2021-01-03T08:03:53Z</time>
      </trkpt>
      <trkpt lat="50.63759" lon="3.04829">
        <ele>9.4</ele>
        <time>2021-01-03T08:03:57Z</time>
      </trkpt>
      <trkpt lat="50.63755" lon="3.04799">
        <ele>9</ele>
        <time>2021-01-03T08:04:01Z</time>
      </trkpt>
      <trkpt lat="50.6375" lon="3.04772">
        <ele>9.2</ele>
        <time>2021-01-03T08:04:05Z</time>
      </trkpt>
      <trkpt lat="50.63745" lon="3.04743">
        <ele>10</ele>
        <time>2021-01-03T08:04:09Z</time>
      </trkpt>
      <trkpt lat="50.63742" lon="3.04717">
        <ele>9.4</ele>
        <time>2021-01-03T08:04:13Z</time>
      </trkpt>
      <trkpt lat="50.63736" lon="3.04689">
        <ele>9.2</ele>
        <time>2021-01-03T08:04:17Z</time>
      </trkpt>
      <trkpt lat="50.6373" lon="3.04661">
        <ele>9.2</ele>
        <time>2021-01-03T08:04:21Z</time>
      </trkpt>
      <trkpt lat="50.63724" lon="3.04628">
        <ele>9.4</ele>
        <time>2021-01-03T08:04:25Z</time>
      </trkpt>
      <trkpt lat="50.63718" lon="3.04599">
        <ele>9.4</ele>
        <time>2021-01-03T08:04:29Z</time>
      </trkpt>
      <trkpt lat="50.63712" lon="3.04572">
        <ele>9</ele>
        <time>2021-01-03T08:04:33Z</time>
      </trkpt>
      <trkpt lat="50.63709" lon="3.04546">
        <ele>9.4</ele>
        <time>2021-01-03T08:04:37Z</time>
      </trkpt>
      <trkpt lat="50.63704" lon="3.0452">
        <ele>9.4</ele>
        <time>2021-01-03T08:04:41Z</time>
      </trkpt>
      <trkpt lat="50.637" lon="3.04492">
        <ele>9.2</ele>
        <time>2021-01-03T08:04:45Z</time>
      </trkpt>
      <trkpt lat="50.63696" lon="3.04465">
        <ele>9</ele>
        <time>2021-01-03T08:04:49Z</time>
      </trkpt>
      <trkpt lat="50.63695" lon="3.04439">
        <ele>9.2</ele>
        <time>2021-01-03T08:04:53Z</time>
      </trkpt>
      <trkpt lat="50.63694" lon="3.04408">
        <ele>9.6</ele>
        <time>2021-01-03T08:04:57Z</time>
      </trkpt>
      <trkpt lat="50.63696" lon="3.04374">
        <ele>9.2</ele>
        <time>2021-01-03T08:05:01Z</time>
      </trkpt>
      <trkpt lat="50.63696" lon="3.04344">
        <ele>9.6</ele>
        <time>2021-01-03T08:05:05Z</time>
      </trkpt>
      <trkpt lat="50.63699" lon="3.04316">
        <ele>9.4</ele>
        <time>2021-01-03T08:05:09Z</time>
      </trkpt>
      <trkpt lat="50.63707" lon="3.04287">
        <ele>9.2</ele>
        <time>2021-01-03T08:05:13Z</time>
      </trkpt>
      <trkpt lat="50.63714" lon="3.04258">
        <ele>9.4</ele>
        <time>2021-01-03T08:05:17Z</time>
      </trkpt>
      <trkpt lat="50.63724" lon="3.04229">
        <ele>9.4</ele>
        <time>2021-01-03T08:05:21Z</time>
      </trkpt>
      <trkpt lat="50.63732" lon="3.04198">
        <ele>9.4</ele>
        <time>2021-01-03T08:05:25Z</time>
      </trkpt>
      <trkpt lat="50.63742" lon="3.04172">
        <ele>9.6</ele>
        <time>2021-01-03T08:05:29Z</time>
      </trkpt>
      <trkpt lat="50.63749" lon="3.04148">
        <ele>9.2</ele>
        <time>2021-01-03T08:05:33Z</time>
      </trkpt>
      <trkpt lat="50.63757" lon="3.04125">
        <ele>9.6</ele>
        <time>2021-01-03T08:05:37Z</time>
      </trkpt>
      <trkpt lat="50.63766" lon="3.04096">
        <ele>9.4</ele>
        <time>2021-01-03T08:05:41Z</time>
      </trkpt>
      <trkpt lat="50.63777" lon="3.04069">
        <ele>9.6</ele>
        <time>2021-01-03T08:05:45Z</time>
      </trkpt>
      <trkpt lat="50.63784" lon="3.0405">
        <ele>9.2</ele>
        <time>2021-01-03T08:05:49Z</time>
      </trkpt>
      <trkpt lat="50.63798" lon="3.04025">
        <ele>8.6</ele>
        <time>2021-01-03T08:05:53Z</time>
      </trkpt>
      <trkpt lat="50.63808" lon="3.04002">
        <ele>9</ele>
        <time>2021-01-03T08:05:57Z</time>
      </trkpt>
      <trkpt lat="50.63819" lon="3.03974">
        <ele>9</ele>
        <time>2021-01-03T08:06:01Z</time>
      </trkpt>
      <trkpt lat="50.63833" lon="3.03949">
        <ele>9</ele>
        <time>2021-01-03T08:06:05Z</time>
      </trkpt>
      <trkpt lat="50.63847" lon="3.0393">
        <ele>8.8</ele>
        <time>2021-01-03T08:06:09Z</time>
      </trkpt>
      <trkpt lat="50.63865" lon="3.03913">
        <ele>8.4</ele>
        <time>2021-01-03T08:06:13Z</time>
      </trkpt>
      <trkpt lat="50.63884" lon="3.03895">
        <ele>8.8</ele>
        <time>2021-01-03T08:06:17Z</time>
      </trkpt>
      <trkpt lat="50.63902" lon="3.03877">
        <ele>9</ele>
        <time>2021-01-03T08:06:21Z</time>
      </trkpt>
      <trkpt lat="50.63915" lon="3.03863">
        <ele>8.4</ele>
        <time>2021-01-03T08:06:25Z</time>
      </trkpt>
      <trkpt lat="50.63933" lon="3.03846">
        <ele>9</ele>
        <time>2021-01-03T08:06:29Z</time>
      </trkpt>
      <trkpt lat="50.63951" lon="3.0382">
        <ele>9.6</ele>
        <time>2021-01-03T08:06:33Z</time>
      </trkpt>
      <trkpt lat="50.63958" lon="3.03791">
        <ele>9.8</ele>
        <time>2021-01-03T08:06:37Z</time>
      </trkpt>
      <trkpt lat="50.63959" lon="3.03763">
        <ele>10.6</ele>
        <time>2021-01-03T08:06:41Z</time>
      </trkpt>
      <trkpt lat="50.6396" lon="3.03744">
        <ele>12.8</ele>
        <time>2021-01-03T08:06:45Z</time>
      </trkpt>
      <trkpt lat="50.63965" lon="3.03744">
        <ele>12.6</ele>
        <time>2021-01-03T08:06:49Z</time>
      </trkpt>
      <trkpt lat="50.63967" lon="3.03759">
        <ele>13.2</ele>
        <time>2021-01-03T08:06:53Z</time>
      </trkpt>
      <trkpt lat="50.6397" lon="3.03748">
        <ele>13.4</ele>
        <time>2021-01-03T08:06:57Z</time>
      </trkpt>
      <trkpt lat="50.63973" lon="3.03722">
        <ele>14</ele>
        <time>2021-01-03T08:07:01Z</time>
      </trkpt>
      <trkpt lat="50.63978" lon="3.03699">
        <ele>14.8</ele>
        <time>2021-01-03T08:07:05Z</time>
      </trkpt>
      <trkpt lat="50.63983" lon="3.03676">
        <ele>15.4</ele>
        <time>2021-01-03T08:07:09Z</time>
      </trkpt>
      <trkpt lat="50.63986" lon="3.03655">
        <ele>14.8</ele>
        <time>2021-01-03T08:07:13Z</time>
      </trkpt>
      <trkpt lat="50.63992" lon="3.03643">
        <ele>14.8</ele>
        <time>2021-01-03T08:07:17Z</time>
      </trkpt>
      <trkpt lat="50.64003" lon="3.03636">
        <ele>14.4</ele>
        <time>2021-01-03T08:07:21Z</time>
      </trkpt>
      <trkpt lat="50.6401" lon="3.03629">
        <ele>13.6</ele>
        <time>2021-01-03T08:07:25Z</time>
      </trkpt>
      <trkpt lat="50.64003" lon="3.03627">
        <ele>14</ele>
        <time>2021-01-03T08:07:29Z</time>
      </trkpt>
      <trkpt lat="50.63987" lon="3.0363">
        <ele>12.6</ele>
        <time>2021-01-03T08:07:33Z</time>
      </trkpt>
      <trkpt lat="50.63966" lon="3.03628">
        <ele>11.6</ele>
        <time>2021-01-03T08:07:37Z</time>
      </trkpt>
      <trkpt lat="50.63945" lon="3.03622">
        <ele>11.2</ele>
        <time>2021-01-03T08:07:41Z</time>
      </trkpt>
      <trkpt lat="50.63927" lon="3.03622">
        <ele>11.2</ele>
        <time>2021-01-03T08:07:45Z</time>
      </trkpt>
      <trkpt lat="50.63912" lon="3.03608">
        <ele>11</ele>
        <time>2021-01-03T08:07:49Z</time>
      </trkpt>
      <trkpt lat="50.63901" lon="3.03593">
        <ele>11</ele>
        <time>2021-01-03T08:07:53Z</time>
      </trkpt>
      <trkpt lat="50.6389" lon="3.03599">
        <ele>11.4</ele>
        <time>2021-01-03T08:07:57Z</time>
      </trkpt>
      <trkpt lat="50.63873" lon="3.03608">
        <ele>12.6</ele>
        <time>2021-01-03T08:08:01Z</time>
      </trkpt>
      <trkpt lat="50.63858" lon="3.03616">
        <ele>12.6</ele>
        <time>2021-01-03T08:08:05Z</time>
      </trkpt>
      <trkpt lat="50.63845" lon="3.03621">
        <ele>13.2</ele>
        <time>2021-01-03T08:08:09Z</time>
      </trkpt>
      <trkpt lat="50.63837" lon="3.03601">
        <ele>12.6</ele>
        <time>2021-01-03T08:08:13Z</time>
      </trkpt>
      <trkpt lat="50.6383" lon="3.03588">
        <ele>12.2</ele>
        <time>2021-01-03T08:08:17Z</time>
      </trkpt>
      <trkpt lat="50.63826" lon="3.03606">
        <ele>11.2</ele>
        <time>2021-01-03T08:08:21Z</time>
      </trkpt>
      <trkpt lat="50.6382" lon="3.03627">
        <ele>11.2</ele>
        <time>2021-01-03T08:08:25Z</time>
      </trkpt>
      <trkpt lat="50.63805" lon="3.03632">
        <ele>10.4</ele>
        <time>2021-01-03T08:08:29Z</time>
      </trkpt>
      <trkpt lat="50.63784" lon="3.03641">
        <ele>9.8</ele>
        <time>2021-01-03T08:08:33Z</time>
      </trkpt>
      <trkpt lat="50.63762" lon="3.03643">
        <ele>9.4</ele>
        <time>2021-01-03T08:08:37Z</time>
      </trkpt>
      <trkpt lat="50.63741" lon="3.03645">
        <ele>9.2</ele>
        <time>2021-01-03T08:08:41Z</time>
      </trkpt>
      <trkpt lat="50.63718" lon="3.03647">
        <ele>9.2</ele>
        <time>2021-01-03T08:08:45Z</time>
      </trkpt>
      <trkpt lat="50.63697" lon="3.03649">
        <ele>9.2</ele>
        <time>2021-01-03T08:08:49Z</time>
      </trkpt>
      <trkpt lat="50.63681" lon="3.03642">
        <ele>9.4</ele>
        <time>2021-01-03T08:08:53Z</time>
      </trkpt>
      <trkpt lat="50.63671" lon="3.03623">
        <ele>10.8</ele>
        <time>2021-01-03T08:08:57Z</time>
      </trkpt>
      <trkpt lat="50.6365" lon="3.03619">
        <ele>9.4</ele>
        <time>2021-01-03T08:09:01Z</time>
      </trkpt>
      <trkpt lat="50.63625" lon="3.03612">
        <ele>9.2</ele>
        <time>2021-01-03T08:09:05Z</time>
      </trkpt>
      <trkpt lat="50.636" lon="3.03604">
        <ele>9.2</ele>
        <time>2021-01-03T08:09:09Z</time>
      </trkpt>
      <trkpt lat="50.63576" lon="3.03595">
        <ele>9.2</ele>
        <time>2021-01-03T08:09:13Z</time>
      </trkpt>
      <trkpt lat="50.63552" lon="3.03584">
        <ele>9.4</ele>
        <time>2021-01-03T08:09:17Z</time>
      </trkpt>
      <trkpt lat="50.63528" lon="3.03572">
        <ele>9.4</ele>
        <time>2021-01-03T08:09:21Z</time>
      </trkpt>
      <trkpt lat="50.63506" lon="3.0356">
        <ele>9.4</ele>
        <time>2021-01-03T08:09:25Z</time>
      </trkpt>
      <trkpt lat="50.63483" lon="3.03553">
        <ele>9.6</ele>
        <time>2021-01-03T08:09:29Z</time>
      </trkpt>
      <trkpt lat="50.63461" lon="3.03536">
        <ele>9.2</ele>
        <time>2021-01-03T08:09:33Z</time>
      </trkpt>
      <trkpt lat="50.6344" lon="3.0352">
        <ele>9.8</ele>
        <time>2021-01-03T08:09:37Z</time>
      </trkpt>
      <trkpt lat="50.6342" lon="3.03503">
        <ele>9.4</ele>
        <time>2021-01-03T08:09:41Z</time>
      </trkpt>
      <trkpt lat="50.63402" lon="3.03481">
        <ele>9.4</ele>
        <time>2021-01-03T08:09:45Z</time>
      </trkpt>
      <trkpt lat="50.63388" lon="3.0345">
        <ele>9.2</ele>
        <time>2021-01-03T08:09:49Z</time>
      </trkpt>
      <trkpt lat="50.63368" lon="3.03428">
        <ele>9</ele>
        <time>2021-01-03T08:09:53Z</time>
      </trkpt>
      <trkpt lat="50.63346" lon="3.03406">
        <ele>9.4</ele>
        <time>2021-01-03T08:09:57Z</time>
      </trkpt>
      <trkpt lat="50.63326" lon="3.03384">
        <ele>9.8</ele>
        <time>2021-01-03T08:10:01Z</time>
      </trkpt>
      <trkpt lat="50.63305" lon="3.03363">
        <ele>9.2</ele>
        <time>2021-01-03T08:10:05Z</time>
      </trkpt>
      <trkpt lat="50.63284" lon="3.03342">
        <ele>9.6</ele>
        <time>2021-01-03T08:10:09Z</time>
      </trkpt>
      <trkpt lat="50.63264" lon="3.0332">
        <ele>8.6</ele>
        <time>2021-01-03T08:10:13Z</time>
      </trkpt>
      <trkpt lat="50.63244" lon="3.03299">
        <ele>9.6</ele>
        <time>2021-01-03T08:10:17Z</time>
      </trkpt>
      <trkpt lat="50.63224" lon="3.03284">
        <ele>9.4</ele>
        <time>2021-01-03T08:10:21Z</time>
      </trkpt>
      <trkpt lat="50.63205" lon="3.03289">
        <ele>8.8</ele>
        <time>2021-01-03T08:10:25Z</time>
      </trkpt>
      <trkpt lat="50.63187" lon="3.03294">
        <ele>9.2</ele>
        <time>2021-01-03T08:10:29Z</time>
      </trkpt>
      <trkpt lat="50.6317" lon="3.03278">
        <ele>8.8</ele>
        <time>2021-01-03T08:10:33Z</time>
      </trkpt>
      <trkpt lat="50.63154" lon="3.03261">
        <ele>9.4</ele>
        <time>2021-01-03T08:10:37Z</time>
      </trkpt>
      <trkpt lat="50.63144" lon="3.03235">
        <ele>9.4</ele>
        <time>2021-01-03T08:10:41Z</time>
      </trkpt>
      <trkpt lat="50.63137" lon="3.03207">
        <ele>9.4</ele>
        <time>2021-01-03T08:10:45Z</time>
      </trkpt>
      <trkpt lat="50.63132" lon="3.03189">
        <ele>9.6</ele>
        <time>2021-01-03T08:10:49Z</time>
      </trkpt>
      <trkpt lat="50.63131" lon="3.03169">
        <ele>11.6</ele>
        <time>2021-01-03T08:10:53Z</time>
      </trkpt>
      <trkpt lat="50.63119" lon="3.03154">
        <ele>12.6</ele>
        <time>2021-01-03T08:10:57Z</time>
      </trkpt>
      <trkpt lat="50.63103" lon="3.03137">
        <ele>11.4</ele>
        <time>2021-01-03T08:11:01Z</time>
      </trkpt>
      <trkpt lat="50.63083" lon="3.03116">
        <ele>9.6</ele>
        <time>2021-01-03T08:11:05Z</time>
      </trkpt>
      <trkpt lat="50.63061" lon="3.03091">
        <ele>9</ele>
        <time>2021-01-03T08:11:09Z</time>
      </trkpt>
      <trkpt lat="50.6304" lon="3.03069">
        <ele>9</ele>
        <time>2021-01-03T08:11:13Z</time>
      </trkpt>
      <trkpt lat="50.63019" lon="3.03043">
        <ele>9</ele>
        <time>2021-01-03T08:11:17Z</time>
      </trkpt>
      <trkpt lat="50.62999" lon="3.03021">
        <ele>9</ele>
        <time>2021-01-03T08:11:21Z</time>
      </trkpt>
      <trkpt lat="50.62981" lon="3.02999">
        <ele>9.2</ele>
        <time>2021-01-03T08:11:25Z</time>
      </trkpt>
      <trkpt lat="50.62964" lon="3.02982">
        <ele>9.2</ele>
        <time>2021-01-03T08:11:29Z</time>
      </trkpt>
      <trkpt lat="50.62946" lon="3.0296">
        <ele>8.6</ele>
        <time>2021-01-03T08:11:33Z</time>
      </trkpt>
      <trkpt lat="50.62927" lon="3.02934">
        <ele>9.2</ele>
        <time>2021-01-03T08:11:37Z</time>
      </trkpt>
      <trkpt lat="50.6291" lon="3.02905">
        <ele>9</ele>
        <time>2021-01-03T08:11:41Z</time>
      </trkpt>
      <trkpt lat="50.62891" lon="3.02877">
        <ele>8.4</ele>
        <time>2021-01-03T08:11:45Z</time>
      </trkpt>
      <trkpt lat="50.62869" lon="3.02853">
        <ele>8</ele>
        <time>2021-01-03T08:11:49Z</time>
      </trkpt>
      <trkpt lat="50.6285" lon="3.02828">
        <ele>8.6</ele>
        <time>2021-01-03T08:11:53Z</time>
      </trkpt>
      <trkpt lat="50.62834" lon="3.02798">
        <ele>9</ele>
        <time>2021-01-03T08:11:57Z</time>
      </trkpt>
      <trkpt lat="50.62815" lon="3.02773">
        <ele>8.6</ele>
        <time>2021-01-03T08:12:01Z</time>
      </trkpt>
      <trkpt lat="50.62798" lon="3.02741">
        <ele>7.8</ele>
        <time>2021-01-03T08:12:05Z</time>
      </trkpt>
      <trkpt lat="50.6278" lon="3.02709">
        <ele>8</ele>
        <time>2021-01-03T08:12:09Z</time>
      </trkpt>
      <trkpt lat="50.62763" lon="3.0268">
        <ele>9.2</ele>
        <time>2021-01-03T08:12:13Z</time>
      </trkpt>
      <trkpt lat="50.62749" lon="3.02648">
        <ele>9</ele>
        <time>2021-01-03T08:12:17Z</time>
      </trkpt>
      <trkpt lat="50.62735" lon="3.02618">
        <ele>8.8</ele>
        <time>2021-01-03T08:12:21Z</time>
      </trkpt>
      <trkpt lat="50.62722" lon="3.02585">
        <ele>9.2</ele>
        <time>2021-01-03T08:12:25Z</time>
      </trkpt>
      <trkpt lat="50.6271" lon="3.0255">
        <ele>9.2</ele>
        <time>2021-01-03T08:12:29Z</time>
      </trkpt>
      <trkpt lat="50.62696" lon="3.02517">
        <ele>8.8</ele>
        <time>2021-01-03T08:12:33Z</time>
      </trkpt>
      <trkpt lat="50.62687" lon="3.0248">
        <ele>8.6</ele>
        <time>2021-01-03T08:12:37Z</time>
      </trkpt>
      <trkpt lat="50.6268" lon="3.02442">
        <ele>9</ele>
        <time>2021-01-03T08:12:41Z</time>
      </trkpt>
      <trkpt lat="50.62672" lon="3.02408">
        <ele>9</ele>
        <time>2021-01-03T08:12:45Z</time>
      </trkpt>
      <trkpt lat="50.62664" lon="3.02374">
        <ele>10.8</ele>
        <time>2021-01-03T08:12:49Z</time>
      </trkpt>
      <trkpt lat="50.62656" lon="3.02336">
        <ele>10.4</ele>
        <time>2021-01-03T08:12:53Z</time>
      </trkpt>
      <trkpt lat="50.62647" lon="3.02298">
        <ele>10.8</ele>
        <time>2021-01-03T08:12:57Z</time>
      </trkpt>
      <trkpt lat="50.62636" lon="3.0226">
        <ele>10.8</ele>
        <time>2021-01-03T08:13:01Z</time>
      </trkpt>
      <trkpt lat="50.62625" lon="3.02221">
        <ele>10.4</ele>
        <time>2021-01-03T08:13:05Z</time>
      </trkpt>
      <trkpt lat="50.62617" lon="3.02179">
        <ele>10.2</ele>
        <time>2021-01-03T08:13:09Z</time>
      </trkpt>
      <trkpt lat="50.62609" lon="3.02138">
        <ele>9</ele>
        <time>2021-01-03T08:13:13Z</time>
      </trkpt>
      <trkpt lat="50.62603" lon="3.021">
        <ele>9.8</ele>
        <time>2021-01-03T08:13:17Z</time>
      </trkpt>
      <trkpt lat="50.62605" lon="3.02062">
        <ele>9.8</ele>
        <time>2021-01-03T08:13:21Z</time>
      </trkpt>
      <trkpt lat="50.62619" lon="3.02029">
        <ele>9.6</ele>
        <time>2021-01-03T08:13:25Z</time>
      </trkpt>
      <trkpt lat="50.62632" lon="3.01996">
        <ele>9.2</ele>
        <time>2021-01-03T08:13:29Z</time>
      </trkpt>
      <trkpt lat="50.62646" lon="3.0198">
        <ele>10</ele>
        <time>2021-01-03T08:13:33Z</time>
      </trkpt>
      <trkpt lat="50.62659" lon="3.01984">
        <ele>9.8</ele>
        <time>2021-01-03T08:13:37Z</time>
      </trkpt>
      <trkpt lat="50.62672" lon="3.01995">
        <ele>10</ele>
        <time>2021-01-03T08:13:41Z</time>
      </trkpt>
      <trkpt lat="50.62692" lon="3.02002">
        <ele>9.4</ele>
        <time>2021-01-03T08:13:45Z</time>
      </trkpt>
      <trkpt lat="50.62716" lon="3.0201">
        <ele>8</ele>
        <time>2021-01-03T08:13:49Z</time>
      </trkpt>
      <trkpt lat="50.6274" lon="3.02018">
        <ele>8</ele>
        <time>2021-01-03T08:13:53Z</time>
      </trkpt>
      <trkpt lat="50.62764" lon="3.02032">
        <ele>7.6</ele>
        <time>2021-01-03T08:13:57Z</time>
      </trkpt>
      <trkpt lat="50.62781" lon="3.02056">
        <ele>7.2</ele>
        <time>2021-01-03T08:14:01Z</time>
      </trkpt>
      <trkpt lat="50.628" lon="3.02076">
        <ele>7.8</ele>
        <time>2021-01-03T08:14:05Z</time>
      </trkpt>
      <trkpt lat="50.628" lon="3.02076">
        <ele>8.4</ele>
        <time>2021-01-03T08:14:09Z</time>
      </trkpt>
      <trkpt lat="50.62827" lon="3.02088">
        <ele>8.6</ele>
        <time>2021-01-03T08:14:13Z</time>
      </trkpt>
      <trkpt lat="50.62849" lon="3.02094">
        <ele>8.6</ele>
        <time>2021-01-03T08:14:17Z</time>
      </trkpt>
      <trkpt lat="50.62872" lon="3.021">
        <ele>8.2</ele>
        <time>2021-01-03T08:14:21Z</time>
      </trkpt>
      <trkpt lat="50.62892" lon="3.02106">
        <ele>8.4</ele>
        <time>2021-01-03T08:14:25Z</time>
      </trkpt>
      <trkpt lat="50.62909" lon="3.02109">
        <ele>8</ele>
        <time>2021-01-03T08:14:29Z</time>
      </trkpt>
      <trkpt lat="50.62927" lon="3.02102">
        <ele>8.6</ele>
        <time>2021-01-03T08:14:33Z</time>
      </trkpt>
      <trkpt lat="50.62947" lon="3.02089">
        <ele>9</ele>
        <time>2021-01-03T08:14:37Z</time>
      </trkpt>
      <trkpt lat="50.62967" lon="3.02074">
        <ele>8.4</ele>
        <time>2021-01-03T08:14:41Z</time>
      </trkpt>
      <trkpt lat="50.62981" lon="3.02057">
        <ele>9</ele>
        <time>2021-01-03T08:14:45Z</time>
      </trkpt>
      <trkpt lat="50.62993" lon="3.02035">
        <ele>8.8</ele>
        <time>2021-01-03T08:14:49Z</time>
      </trkpt>
      <trkpt lat="50.63002" lon="3.02018">
        <ele>9</ele>
        <time>2021-01-03T08:14:53Z</time>
      </trkpt>
      <trkpt lat="50.6301" lon="3.02004">
        <ele>9</ele>
        <time>2021-01-03T08:14:57Z</time>
      </trkpt>
      <trkpt lat="50.6301" lon="3.01987">
        <ele>8.4</ele>
        <time>2021-01-03T08:15:01Z</time>
      </trkpt>
      <trkpt lat="50.62997" lon="3.01966">
        <ele>8.4</ele>
        <time>2021-01-03T08:15:05Z</time>
      </trkpt>
      <trkpt lat="50.6298" lon="3.01939">
        <ele>8.4</ele>
        <time>2021-01-03T08:15:09Z</time>
      </trkpt>
      <trkpt lat="50.62964" lon="3.01914">
        <ele>8.4</ele>
        <time>2021-01-03T08:15:13Z</time>
      </trkpt>
      <trkpt lat="50.6295" lon="3.01891">
        <ele>8.4</ele>
        <time>2021-01-03T08:15:17Z</time>
      </trkpt>
      <trkpt lat="50.62937" lon="3.01868">
        <ele>8.2</ele>
        <time>2021-01-03T08:15:21Z</time>
      </trkpt>
      <trkpt lat="50.62922" lon="3.01842">
        <ele>8.4</ele>
        <time>2021-01-03T08:15:25Z</time>
      </trkpt>
      <trkpt lat="50.62905" lon="3.01819">
        <ele>8.4</ele>
        <time>2021-01-03T08:15:29Z</time>
      </trkpt>
      <trkpt lat="50.6289" lon="3.01794">
        <ele>8.4</ele>
        <time>2021-01-03T08:15:33Z</time>
      </trkpt>
      <trkpt lat="50.62873" lon="3.01769">
        <ele>8.2</ele>
        <time>2021-01-03T08:15:37Z</time>
      </trkpt>
      <trkpt lat="50.62857" lon="3.01743">
        <ele>8.2</ele>
        <time>2021-01-03T08:15:41Z</time>
      </trkpt>
      <trkpt lat="50.62841" lon="3.01718">
        <ele>8.4</ele>
        <time>2021-01-03T08:15:45Z</time>
      </trkpt>
      <trkpt lat="50.62825" lon="3.01694">
        <ele>8.6</ele>
        <time>2021-01-03T08:15:49Z</time>
      </trkpt>
      <trkpt lat="50.6281" lon="3.01669">
        <ele>8.2</ele>
        <time>2021-01-03T08:15:53Z</time>
      </trkpt>
      <trkpt lat="50.62793" lon="3.01643">
        <ele>8.6</ele>
        <time>2021-01-03T08:15:57Z</time>
      </trkpt>
      <trkpt lat="50.62777" lon="3.01617">
        <ele>8.4</ele>
        <time>2021-01-03T08:16:01Z</time>
      </trkpt>
      <trkpt lat="50.62761" lon="3.01591">
        <ele>8</ele>
        <time>2021-01-03T08:16:05Z</time>
      </trkpt>
      <trkpt lat="50.62746" lon="3.01568">
        <ele>8.2</ele>
        <time>2021-01-03T08:16:09Z</time>
      </trkpt>
      <trkpt lat="50.62735" lon="3.0155">
        <ele>8.8</ele>
        <time>2021-01-03T08:16:13Z</time>
      </trkpt>
      <trkpt lat="50.62727" lon="3.01535">
        <ele>9</ele>
        <time>2021-01-03T08:16:17Z</time>
      </trkpt>
      <trkpt lat="50.62722" lon="3.01524">
        <ele>9</ele>
        <time>2021-01-03T08:16:21Z</time>
      </trkpt>
      <trkpt lat="50.6272" lon="3.01517">
        <ele>9</ele>
        <time>2021-01-03T08:16:25Z</time>
      </trkpt>
      <trkpt lat="50.62709" lon="3.01496">
        <ele>8.6</ele>
        <time>2021-01-03T08:16:42Z</time>
      </trkpt>
      <trkpt lat="50.62696" lon="3.01478">
        <ele>9.2</ele>
        <time>2021-01-03T08:16:46Z</time>
      </trkpt>
      <trkpt lat="50.62681" lon="3.01459">
        <ele>10</ele>
        <time>2021-01-03T08:16:50Z</time>
      </trkpt>
      <trkpt lat="50.62665" lon="3.01439">
        <ele>11.2</ele>
        <time>2021-01-03T08:16:54Z</time>
      </trkpt>
      <trkpt lat="50.62649" lon="3.01421">
        <ele>12.2</ele>
        <time>2021-01-03T08:16:58Z</time>
      </trkpt>
      <trkpt lat="50.62632" lon="3.01406">
        <ele>13.6</ele>
        <time>2021-01-03T08:17:02Z</time>
      </trkpt>
      <trkpt lat="50.62613" lon="3.01394">
        <ele>14.8</ele>
        <time>2021-01-03T08:17:06Z</time>
      </trkpt>
      <trkpt lat="50.62594" lon="3.01384">
        <ele>15.6</ele>
        <time>2021-01-03T08:17:10Z</time>
      </trkpt>
      <trkpt lat="50.62575" lon="3.01377">
        <ele>16.4</ele>
        <time>2021-01-03T08:17:14Z</time>
      </trkpt>
      <trkpt lat="50.62555" lon="3.01369">
        <ele>16.6</ele>
        <time>2021-01-03T08:17:18Z</time>
      </trkpt>
      <trkpt lat="50.62536" lon="3.01361">
        <ele>15.8</ele>
        <time>2021-01-03T08:17:22Z</time>
      </trkpt>
      <trkpt lat="50.62515" lon="3.01353">
        <ele>16.2</ele>
        <time>2021-01-03T08:17:26Z</time>
      </trkpt>
      <trkpt lat="50.62493" lon="3.01346">
        <ele>15</ele>
        <time>2021-01-03T08:17:30Z</time>
      </trkpt>
      <trkpt lat="50.6247" lon="3.01344">
        <ele>14.2</ele>
        <time>2021-01-03T08:17:34Z</time>
      </trkpt>
      <trkpt lat="50.62446" lon="3.01348">
        <ele>14.2</ele>
        <time>2021-01-03T08:17:38Z</time>
      </trkpt>
      <trkpt lat="50.62422" lon="3.01362">
        <ele>12.2</ele>
        <time>2021-01-03T08:17:42Z</time>
      </trkpt>
      <trkpt lat="50.62398" lon="3.01382">
        <ele>11.2</ele>
        <time>2021-01-03T08:17:46Z</time>
      </trkpt>
      <trkpt lat="50.62373" lon="3.01403">
        <ele>10.6</ele>
        <time>2021-01-03T08:17:50Z</time>
      </trkpt>
      <trkpt lat="50.62349" lon="3.01423">
        <ele>9.8</ele>
        <time>2021-01-03T08:17:54Z</time>
      </trkpt>
      <trkpt lat="50.62327" lon="3.01443">
        <ele>9</ele>
        <time>2021-01-03T08:17:58Z</time>
      </trkpt>
      <trkpt lat="50.62302" lon="3.01464">
        <ele>7.6</ele>
        <time>2021-01-03T08:18:02Z</time>
      </trkpt>
      <trkpt lat="50.62279" lon="3.01484">
        <ele>7.6</ele>
        <time>2021-01-03T08:18:06Z</time>
      </trkpt>
      <trkpt lat="50.62257" lon="3.01502">
        <ele>7.8</ele>
        <time>2021-01-03T08:18:10Z</time>
      </trkpt>
      <trkpt lat="50.62237" lon="3.0152">
        <ele>7.8</ele>
        <time>2021-01-03T08:18:14Z</time>
      </trkpt>
      <trkpt lat="50.62216" lon="3.01537">
        <ele>8.4</ele>
        <time>2021-01-03T08:18:18Z</time>
      </trkpt>
      <trkpt lat="50.62196" lon="3.01552">
        <ele>7.6</ele>
        <time>2021-01-03T08:18:22Z</time>
      </trkpt>
      <trkpt lat="50.62174" lon="3.01568">
        <ele>8</ele>
        <time>2021-01-03T08:18:26Z</time>
      </trkpt>
      <trkpt lat="50.6215" lon="3.01584">
        <ele>7.8</ele>
        <time>2021-01-03T08:18:30Z</time>
      </trkpt>
      <trkpt lat="50.62127" lon="3.01598">
        <ele>8</ele>
        <time>2021-01-03T08:18:34Z</time>
      </trkpt>
      <trkpt lat="50.62106" lon="3.01612">
        <ele>8</ele>
        <time>2021-01-03T08:18:38Z</time>
      </trkpt>
      <trkpt lat="50.6209" lon="3.01633">
        <ele>8.2</ele>
        <time>2021-01-03T08:18:42Z</time>
      </trkpt>
      <trkpt lat="50.62069" lon="3.01613">
        <ele>8.6</ele>
        <time>2021-01-03T08:18:46Z</time>
      </trkpt>
      <trkpt lat="50.62061" lon="3.01577">
        <ele>8</ele>
        <time>2021-01-03T08:18:50Z</time>
      </trkpt>
      <trkpt lat="50.62056" lon="3.01536">
        <ele>8.2</ele>
        <time>2021-01-03T08:18:54Z</time>
      </trkpt>
      <trkpt lat="50.62051" lon="3.01496">
        <ele>8.4</ele>
        <time>2021-01-03T08:18:58Z</time>
      </trkpt>
      <trkpt lat="50.62044" lon="3.01454">
        <ele>8.2</ele>
        <time>2021-01-03T08:19:02Z</time>
      </trkpt>
      <trkpt lat="50.62039" lon="3.01412">
        <ele>8.8</ele>
        <time>2021-01-03T08:19:06Z</time>
      </trkpt>
      <trkpt lat="50.62034" lon="3.01373">
        <ele>9.4</ele>
        <time>2021-01-03T08:19:10Z</time>
      </trkpt>
      <trkpt lat="50.62028" lon="3.01333">
        <ele>9</ele>
        <time>2021-01-03T08:19:14Z</time>
      </trkpt>
      <trkpt lat="50.62022" lon="3.01292">
        <ele>9</ele>
        <time>2021-01-03T08:19:18Z</time>
      </trkpt>
      <trkpt lat="50.62016" lon="3.01251">
        <ele>9.2</ele>
        <time>2021-01-03T08:19:22Z</time>
      </trkpt>
      <trkpt lat="50.6201" lon="3.01209">
        <ele>9.2</ele>
        <time>2021-01-03T08:19:26Z</time>
      </trkpt>
      <trkpt lat="50.62004" lon="3.01166">
        <ele>9</ele>
        <time>2021-01-03T08:19:30Z</time>
      </trkpt>
      <trkpt lat="50.61998" lon="3.01125">
        <ele>8.6</ele>
        <time>2021-01-03T08:19:34Z</time>
      </trkpt>
      <trkpt lat="50.61992" lon="3.01084">
        <ele>8.8</ele>
        <time>2021-01-03T08:19:38Z</time>
      </trkpt>
      <trkpt lat="50.61987" lon="3.01043">
        <ele>8.8</ele>
        <time>2021-01-03T08:19:42Z</time>
      </trkpt>
      <trkpt lat="50.61981" lon="3.01002">
        <ele>8.8</ele>
        <time>2021-01-03T08:19:46Z</time>
      </trkpt>
      <trkpt lat="50.61977" lon="3.00961">
        <ele>8.8</ele>
        <time>2021-01-03T08:19:50Z</time>
      </trkpt>
      <trkpt lat="50.6197" lon="3.0092">
        <ele>8.2</ele>
        <time>2021-01-03T08:19:54Z</time>
      </trkpt>
      <trkpt lat="50.61958" lon="3.00888">
        <ele>8.6</ele>
        <time>2021-01-03T08:19:58Z</time>
      </trkpt>
      <trkpt lat="50.61957" lon="3.00853">
        <ele>8.2</ele>
        <time>2021-01-03T08:20:02Z</time>
      </trkpt>
      <trkpt lat="50.61955" lon="3.00817">
        <ele>8.6</ele>
        <time>2021-01-03T08:20:06Z</time>
      </trkpt>
      <trkpt lat="50.61952" lon="3.00781">
        <ele>9</ele>
        <time>2021-01-03T08:20:10Z</time>
      </trkpt>
      <trkpt lat="50.61949" lon="3.00753">
        <ele>9</ele>
        <time>2021-01-03T08:20:14Z</time>
      </trkpt>
      <trkpt lat="50.61946" lon="3.00727">
        <ele>9</ele>
        <time>2021-01-03T08:20:18Z</time>
      </trkpt>
      <trkpt lat="50.61942" lon="3.00697">
        <ele>9</ele>
        <time>2021-01-03T08:20:22Z</time>
      </trkpt>
      <trkpt lat="50.61938" lon="3.00666">
        <ele>8.6</ele>
        <time>2021-01-03T08:20:26Z</time>
      </trkpt>
      <trkpt lat="50.61934" lon="3.00632">
        <ele>8</ele>
        <time>2021-01-03T08:20:30Z</time>
      </trkpt>
      <trkpt lat="50.6193" lon="3.00597">
        <ele>7.8</ele>
        <time>2021-01-03T08:20:34Z</time>
      </trkpt>
      <trkpt lat="50.61925" lon="3.00564">
        <ele>8.4</ele>
        <time>2021-01-03T08:20:38Z</time>
      </trkpt>
      <trkpt lat="50.61919" lon="3.00531">
        <ele>8</ele>
        <time>2021-01-03T08:20:42Z</time>
      </trkpt>
      <trkpt lat="50.61912" lon="3.005">
        <ele>8</ele>
        <time>2021-01-03T08:20:46Z</time>
      </trkpt>
      <trkpt lat="50.61906" lon="3.0047">
        <ele>8</ele>
        <time>2021-01-03T08:20:50Z</time>
      </trkpt>
      <trkpt lat="50.619" lon="3.00439">
        <ele>9</ele>
        <time>2021-01-03T08:20:54Z</time>
      </trkpt>
      <trkpt lat="50.61892" lon="3.00409">
        <ele>9</ele>
        <time>2021-01-03T08:20:58Z</time>
      </trkpt>
      <trkpt lat="50.6188" lon="3.00384">
        <ele>8.6</ele>
        <time>2021-01-03T08:21:02Z</time>
      </trkpt>
      <trkpt lat="50.61871" lon="3.00355">
        <ele>8.4</ele>
        <time>2021-01-03T08:21:06Z</time>
      </trkpt>
      <trkpt lat="50.61862" lon="3.00324">
        <ele>9</ele>
        <time>2021-01-03T08:21:10Z</time>
      </trkpt>
      <trkpt lat="50.61851" lon="3.00292">
        <ele>8.2</ele>
        <time>2021-01-03T08:21:14Z</time>
      </trkpt>
      <trkpt lat="50.61839" lon="3.00262">
        <ele>8</ele>
        <time>2021-01-03T08:21:18Z</time>
      </trkpt>
      <trkpt lat="50.61823" lon="3.00234">
        <ele>8.4</ele>
        <time>2021-01-03T08:21:22Z</time>
      </trkpt>
      <trkpt lat="50.61805" lon="3.00209">
        <ele>9</ele>
        <time>2021-01-03T08:21:26Z</time>
      </trkpt>
      <trkpt lat="50.61788" lon="3.00187">
        <ele>8.6</ele>
        <time>2021-01-03T08:21:30Z</time>
      </trkpt>
      <trkpt lat="50.61768" lon="3.00171">
        <ele>8.4</ele>
        <time>2021-01-03T08:21:34Z</time>
      </trkpt>
      <trkpt lat="50.61747" lon="3.00161">
        <ele>9.2</ele>
        <time>2021-01-03T08:21:38Z</time>
      </trkpt>
      <trkpt lat="50.61726" lon="3.00154">
        <ele>9.2</ele>
        <time>2021-01-03T08:21:42Z</time>
      </trkpt>
      <trkpt lat="50.61707" lon="3.00141">
        <ele>9</ele>
        <time>2021-01-03T08:21:46Z</time>
      </trkpt>
      <trkpt lat="50.6169" lon="3.00121">
        <ele>9</ele>
        <time>2021-01-03T08:21:50Z</time>
      </trkpt>
      <trkpt lat="50.61678" lon="3.00109">
        <ele>10</ele>
        <time>2021-01-03T08:21:54Z</time>
      </trkpt>
      <trkpt lat="50.61671" lon="3.00099">
        <ele>10</ele>
        <time>2021-01-03T08:21:58Z</time>
      </trkpt>
      <trkpt lat="50.61671" lon="3.00076">
        <ele>10.4</ele>
        <time>2021-01-03T08:22:02Z</time>
      </trkpt>
      <trkpt lat="50.61677" lon="3.00048">
        <ele>9.6</ele>
        <time>2021-01-03T08:22:06Z</time>
      </trkpt>
      <trkpt lat="50.61683" lon="3.00019">
        <ele>9.6</ele>
        <time>2021-01-03T08:22:10Z</time>
      </trkpt>
      <trkpt lat="50.61691" lon="2.99992">
        <ele>10.2</ele>
        <time>2021-01-03T08:22:14Z</time>
      </trkpt>
      <trkpt lat="50.61699" lon="2.99968">
        <ele>10.2</ele>
        <time>2021-01-03T08:22:18Z</time>
      </trkpt>
      <trkpt lat="50.61708" lon="2.99938">
        <ele>10.6</ele>
        <time>2021-01-03T08:22:22Z</time>
      </trkpt>
      <trkpt lat="50.61713" lon="2.99906">
        <ele>10.8</ele>
        <time>2021-01-03T08:22:26Z</time>
      </trkpt>
      <trkpt lat="50.61715" lon="2.99874">
        <ele>11.2</ele>
        <time>2021-01-03T08:22:30Z</time>
      </trkpt>
      <trkpt lat="50.61713" lon="2.99842">
        <ele>11.4</ele>
        <time>2021-01-03T08:22:34Z</time>
      </trkpt>
      <trkpt lat="50.61712" lon="2.99807">
        <ele>11.4</ele>
        <time>2021-01-03T08:22:38Z</time>
      </trkpt>
      <trkpt lat="50.61711" lon="2.99773">
        <ele>12.2</ele>
        <time>2021-01-03T08:22:42Z</time>
      </trkpt>
      <trkpt lat="50.6171" lon="2.99739">
        <ele>12</ele>
        <time>2021-01-03T08:22:46Z</time>
      </trkpt>
      <trkpt lat="50.61705" lon="2.99717">
        <ele>11.4</ele>
        <time>2021-01-03T08:22:50Z</time>
      </trkpt>
      <trkpt lat="50.61699" lon="2.99681">
        <ele>10</ele>
        <time>2021-01-03T08:22:54Z</time>
      </trkpt>
      <trkpt lat="50.61692" lon="2.99639">
        <ele>10</ele>
        <time>2021-01-03T08:22:58Z</time>
      </trkpt>
      <trkpt lat="50.61688" lon="2.99596">
        <ele>9</ele>
        <time>2021-01-03T08:23:02Z</time>
      </trkpt>
      <trkpt lat="50.61681" lon="2.99558">
        <ele>8.4</ele>
        <time>2021-01-03T08:23:06Z</time>
      </trkpt>
      <trkpt lat="50.61676" lon="2.99519">
        <ele>8.8</ele>
        <time>2021-01-03T08:23:10Z</time>
      </trkpt>
      <trkpt lat="50.61674" lon="2.99488">
        <ele>9.2</ele>
        <time>2021-01-03T08:23:14Z</time>
      </trkpt>
      <trkpt lat="50.61665" lon="2.99456">
        <ele>9.4</ele>
        <time>2021-01-03T08:23:18Z</time>
      </trkpt>
      <trkpt lat="50.61659" lon="2.99424">
        <ele>9</ele>
        <time>2021-01-03T08:23:22Z</time>
      </trkpt>
      <trkpt lat="50.61653" lon="2.9939">
        <ele>9</ele>
        <time>2021-01-03T08:23:26Z</time>
      </trkpt>
      <trkpt lat="50.61646" lon="2.99358">
        <ele>9</ele>
        <time>2021-01-03T08:23:30Z</time>
      </trkpt>
      <trkpt lat="50.61641" lon="2.99323">
        <ele>8.8</ele>
        <time>2021-01-03T08:23:34Z</time>
      </trkpt>
      <trkpt lat="50.61635" lon="2.99292">
        <ele>8.6</ele>
        <time>2021-01-03T08:23:38Z</time>
      </trkpt>
      <trkpt lat="50.61628" lon="2.9926">
        <ele>8.6</ele>
        <time>2021-01-03T08:23:42Z</time>
      </trkpt>
      <trkpt lat="50.61619" lon="2.99223">
        <ele>8.4</ele>
        <time>2021-01-03T08:23:46Z</time>
      </trkpt>
      <trkpt lat="50.61612" lon="2.99188">
        <ele>9.2</ele>
        <time>2021-01-03T08:23:50Z</time>
      </trkpt>
      <trkpt lat="50.61605" lon="2.9915">
        <ele>8.8</ele>
        <time>2021-01-03T08:23:54Z</time>
      </trkpt>
      <trkpt lat="50.61599" lon="2.99123">
        <ele>9</ele>
        <time>2021-01-03T08:23:58Z</time>
      </trkpt>
      <trkpt lat="50.61589" lon="2.99087">
        <ele>8.2</ele>
        <time>2021-01-03T08:24:02Z</time>
      </trkpt>
      <trkpt lat="50.61575" lon="2.99055">
        <ele>7.8</ele>
        <time>2021-01-03T08:24:06Z</time>
      </trkpt>
      <trkpt lat="50.61558" lon="2.99024">
        <ele>8.2</ele>
        <time>2021-01-03T08:24:10Z</time>
      </trkpt>
      <trkpt lat="50.61545" lon="2.98984">
        <ele>8.2</ele>
        <time>2021-01-03T08:24:14Z</time>
      </trkpt>
      <trkpt lat="50.61527" lon="2.98949">
        <ele>7.8</ele>
        <time>2021-01-03T08:24:18Z</time>
      </trkpt>
      <trkpt lat="50.6151" lon="2.98922">
        <ele>8.2</ele>
        <time>2021-01-03T08:24:22Z</time>
      </trkpt>
      <trkpt lat="50.61498" lon="2.98895">
        <ele>7.6</ele>
        <time>2021-01-03T08:24:26Z</time>
      </trkpt>
      <trkpt lat="50.61487" lon="2.98858">
        <ele>8.4</ele>
        <time>2021-01-03T08:24:30Z</time>
      </trkpt>
      <trkpt lat="50.61478" lon="2.98828">
        <ele>8.4</ele>
        <time>2021-01-03T08:24:34Z</time>
      </trkpt>
      <trkpt lat="50.61465" lon="2.98797">
        <ele>8.8</ele>
        <time>2021-01-03T08:24:38Z</time>
      </trkpt>
      <trkpt lat="50.6145" lon="2.98766">
        <ele>8</ele>
        <time>2021-01-03T08:24:42Z</time>
      </trkpt>
      <trkpt lat="50.61436" lon="2.98732">
        <ele>8.4</ele>
        <time>2021-01-03T08:24:46Z</time>
      </trkpt>
      <trkpt lat="50.61425" lon="2.98704">
        <ele>8</ele>
        <time>2021-01-03T08:24:50Z</time>
      </trkpt>
      <trkpt lat="50.61416" lon="2.98674">
        <ele>8.6</ele>
        <time>2021-01-03T08:24:54Z</time>
      </trkpt>
      <trkpt lat="50.61406" lon="2.98646">
        <ele>8.4</ele>
        <time>2021-01-03T08:24:58Z</time>
      </trkpt>
      <trkpt lat="50.61396" lon="2.98616">
        <ele>8.4</ele>
        <time>2021-01-03T08:25:02Z</time>
      </trkpt>
      <trkpt lat="50.61389" lon="2.9858">
        <ele>8</ele>
        <time>2021-01-03T08:25:06Z</time>
      </trkpt>
      <trkpt lat="50.6139" lon="2.98542">
        <ele>7.6</ele>
        <time>2021-01-03T08:25:10Z</time>
      </trkpt>
      <trkpt lat="50.61391" lon="2.98501">
        <ele>7.6</ele>
        <time>2021-01-03T08:25:14Z</time>
      </trkpt>
      <trkpt lat="50.61387" lon="2.98461">
        <ele>7.6</ele>
        <time>2021-01-03T08:25:18Z</time>
      </trkpt>
      <trkpt lat="50.61378" lon="2.98427">
        <ele>7.6</ele>
        <time>2021-01-03T08:25:22Z</time>
      </trkpt>
      <trkpt lat="50.61365" lon="2.98399">
        <ele>8</ele>
        <time>2021-01-03T08:25:26Z</time>
      </trkpt>
      <trkpt lat="50.6135" lon="2.98375">
        <ele>8</ele>
        <time>2021-01-03T08:25:30Z</time>
      </trkpt>
      <trkpt lat="50.61333" lon="2.98355">
        <ele>8</ele>
        <time>2021-01-03T08:25:34Z</time>
      </trkpt>
      <trkpt lat="50.61311" lon="2.98336">
        <ele>8</ele>
        <time>2021-01-03T08:25:38Z</time>
      </trkpt>
      <trkpt lat="50.61291" lon="2.98319">
        <ele>7.4</ele>
        <time>2021-01-03T08:25:42Z</time>
      </trkpt>
      <trkpt lat="50.61267" lon="2.98309">
        <ele>8</ele>
        <time>2021-01-03T08:25:46Z</time>
      </trkpt>
      <trkpt lat="50.61246" lon="2.98297">
        <ele>7</ele>
        <time>2021-01-03T08:25:50Z</time>
      </trkpt>
      <trkpt lat="50.6122" lon="2.98283">
        <ele>7.6</ele>
        <time>2021-01-03T08:25:54Z</time>
      </trkpt>
      <trkpt lat="50.61196" lon="2.98274">
        <ele>7.2</ele>
        <time>2021-01-03T08:25:58Z</time>
      </trkpt>
      <trkpt lat="50.61174" lon="2.98264">
        <ele>7.4</ele>
        <time>2021-01-03T08:26:02Z</time>
      </trkpt>
      <trkpt lat="50.61156" lon="2.98257">
        <ele>8.4</ele>
        <time>2021-01-03T08:26:06Z</time>
      </trkpt>
      <trkpt lat="50.61139" lon="2.98251">
        <ele>8.4</ele>
        <time>2021-01-03T08:26:10Z</time>
      </trkpt>
      <trkpt lat="50.61121" lon="2.98243">
        <ele>8</ele>
        <time>2021-01-03T08:26:14Z</time>
      </trkpt>
      <trkpt lat="50.61096" lon="2.98241">
        <ele>8</ele>
        <time>2021-01-03T08:26:18Z</time>
      </trkpt>
      <trkpt lat="50.61077" lon="2.9823">
        <ele>8.2</ele>
        <time>2021-01-03T08:26:22Z</time>
      </trkpt>
      <trkpt lat="50.61059" lon="2.98227">
        <ele>7.2</ele>
        <time>2021-01-03T08:26:26Z</time>
      </trkpt>
      <trkpt lat="50.6104" lon="2.98236">
        <ele>8</ele>
        <time>2021-01-03T08:26:30Z</time>
      </trkpt>
      <trkpt lat="50.61017" lon="2.98239">
        <ele>8.4</ele>
        <time>2021-01-03T08:26:34Z</time>
      </trkpt>
      <trkpt lat="50.60993" lon="2.98236">
        <ele>8.8</ele>
        <time>2021-01-03T08:26:38Z</time>
      </trkpt>
      <trkpt lat="50.60969" lon="2.98232">
        <ele>8.4</ele>
        <time>2021-01-03T08:26:42Z</time>
      </trkpt>
      <trkpt lat="50.60947" lon="2.98231">
        <ele>8.6</ele>
        <time>2021-01-03T08:26:46Z</time>
      </trkpt>
      <trkpt lat="50.60927" lon="2.98232">
        <ele>8.4</ele>
        <time>2021-01-03T08:26:50Z</time>
      </trkpt>
      <trkpt lat="50.60908" lon="2.98233">
        <ele>8.6</ele>
        <time>2021-01-03T08:26:54Z</time>
      </trkpt>
      <trkpt lat="50.60896" lon="2.98232">
        <ele>8.4</ele>
        <time>2021-01-03T08:26:58Z</time>
      </trkpt>
      <trkpt lat="50.60896" lon="2.9825">
        <ele>8</ele>
        <time>2021-01-03T08:27:02Z</time>
      </trkpt>
      <trkpt lat="50.60899" lon="2.98275">
        <ele>8.2</ele>
        <time>2021-01-03T08:27:06Z</time>
      </trkpt>
      <trkpt lat="50.60901" lon="2.98303">
        <ele>8</ele>
        <time>2021-01-03T08:27:10Z</time>
      </trkpt>
      <trkpt lat="50.60898" lon="2.98322">
        <ele>8.8</ele>
        <time>2021-01-03T08:27:14Z</time>
      </trkpt>
      <trkpt lat="50.60885" lon="2.98332">
        <ele>9.4</ele>
        <time>2021-01-03T08:27:18Z</time>
      </trkpt>
      <trkpt lat="50.6087" lon="2.98342">
        <ele>9.8</ele>
        <time>2021-01-03T08:27:22Z</time>
      </trkpt>
      <trkpt lat="50.60853" lon="2.98358">
        <ele>9.8</ele>
        <time>2021-01-03T08:27:26Z</time>
      </trkpt>
      <trkpt lat="50.60835" lon="2.98379">
        <ele>10.4</ele>
        <time>2021-01-03T08:27:30Z</time>
      </trkpt>
      <trkpt lat="50.60817" lon="2.98399">
        <ele>11.2</ele>
        <time>2021-01-03T08:27:34Z</time>
      </trkpt>
      <trkpt lat="50.60801" lon="2.98424">
        <ele>10.4</ele>
        <time>2021-01-03T08:27:38Z</time>
      </trkpt>
      <trkpt lat="50.60788" lon="2.98453">
        <ele>11.6</ele>
        <time>2021-01-03T08:27:42Z</time>
      </trkpt>
      <trkpt lat="50.60781" lon="2.98487">
        <ele>11.2</ele>
        <time>2021-01-03T08:27:46Z</time>
      </trkpt>
      <trkpt lat="50.60778" lon="2.98523">
        <ele>11.6</ele>
        <time>2021-01-03T08:27:50Z</time>
      </trkpt>
      <trkpt lat="50.60773" lon="2.98557">
        <ele>10.4</ele>
        <time>2021-01-03T08:27:54Z</time>
      </trkpt>
      <trkpt lat="50.60763" lon="2.98587">
        <ele>11.8</ele>
        <time>2021-01-03T08:27:58Z</time>
      </trkpt>
      <trkpt lat="50.60749" lon="2.98613">
        <ele>12.2</ele>
        <time>2021-01-03T08:28:02Z</time>
      </trkpt>
      <trkpt lat="50.60732" lon="2.98639">
        <ele>12.8</ele>
        <time>2021-01-03T08:28:06Z</time>
      </trkpt>
      <trkpt lat="50.60715" lon="2.98664">
        <ele>12.8</ele>
        <time>2021-01-03T08:28:10Z</time>
      </trkpt>
      <trkpt lat="50.60698" lon="2.98689">
        <ele>12.6</ele>
        <time>2021-01-03T08:28:14Z</time>
      </trkpt>
      <trkpt lat="50.60684" lon="2.98715">
        <ele>12.4</ele>
        <time>2021-01-03T08:28:18Z</time>
      </trkpt>
      <trkpt lat="50.60668" lon="2.98739">
        <ele>13.2</ele>
        <time>2021-01-03T08:28:22Z</time>
      </trkpt>
      <trkpt lat="50.60653" lon="2.98765">
        <ele>13.2</ele>
        <time>2021-01-03T08:28:26Z</time>
      </trkpt>
      <trkpt lat="50.60638" lon="2.9879">
        <ele>13.2</ele>
        <time>2021-01-03T08:28:30Z</time>
      </trkpt>
      <trkpt lat="50.60625" lon="2.98816">
        <ele>13.4</ele>
        <time>2021-01-03T08:28:34Z</time>
      </trkpt>
      <trkpt lat="50.60609" lon="2.98839">
        <ele>13.4</ele>
        <time>2021-01-03T08:28:38Z</time>
      </trkpt>
      <trkpt lat="50.6059" lon="2.98845">
        <ele>14.4</ele>
        <time>2021-01-03T08:28:42Z</time>
      </trkpt>
      <trkpt lat="50.60573" lon="2.98825">
        <ele>14.4</ele>
        <time>2021-01-03T08:28:46Z</time>
      </trkpt>
      <trkpt lat="50.60555" lon="2.98804">
        <ele>13.4</ele>
        <time>2021-01-03T08:28:50Z</time>
      </trkpt>
      <trkpt lat="50.60534" lon="2.98781">
        <ele>12.2</ele>
        <time>2021-01-03T08:28:54Z</time>
      </trkpt>
      <trkpt lat="50.60512" lon="2.98755">
        <ele>10.8</ele>
        <time>2021-01-03T08:28:58Z</time>
      </trkpt>
      <trkpt lat="50.60488" lon="2.98729">
        <ele>10.2</ele>
        <time>2021-01-03T08:29:02Z</time>
      </trkpt>
      <trkpt lat="50.60464" lon="2.987">
        <ele>9.4</ele>
        <time>2021-01-03T08:29:06Z</time>
      </trkpt>
      <trkpt lat="50.60439" lon="2.98672">
        <ele>8.4</ele>
        <time>2021-01-03T08:29:10Z</time>
      </trkpt>
      <trkpt lat="50.60418" lon="2.98648">
        <ele>8</ele>
        <time>2021-01-03T08:29:14Z</time>
      </trkpt>
      <trkpt lat="50.60402" lon="2.98654">
        <ele>7.8</ele>
        <time>2021-01-03T08:29:18Z</time>
      </trkpt>
      <trkpt lat="50.60402" lon="2.98654">
        <ele>8</ele>
        <time>2021-01-03T08:29:22Z</time>
      </trkpt>
      <trkpt lat="50.60386" lon="2.98693">
        <ele>6.4</ele>
        <time>2021-01-03T08:29:26Z</time>
      </trkpt>
      <trkpt lat="50.60371" lon="2.98727">
        <ele>6.6</ele>
        <time>2021-01-03T08:29:30Z</time>
      </trkpt>
      <trkpt lat="50.60357" lon="2.98763">
        <ele>6.6</ele>
        <time>2021-01-03T08:29:34Z</time>
      </trkpt>
      <trkpt lat="50.60341" lon="2.98798">
        <ele>6.6</ele>
        <time>2021-01-03T08:29:38Z</time>
      </trkpt>
      <trkpt lat="50.60323" lon="2.98832">
        <ele>6.4</ele>
        <time>2021-01-03T08:29:42Z</time>
      </trkpt>
      <trkpt lat="50.60302" lon="2.98857">
        <ele>6.6</ele>
        <time>2021-01-03T08:29:46Z</time>
      </trkpt>
      <trkpt lat="50.60276" lon="2.98867">
        <ele>6.6</ele>
        <time>2021-01-03T08:29:50Z</time>
      </trkpt>
      <trkpt lat="50.6025" lon="2.98863">
        <ele>6.6</ele>
        <time>2021-01-03T08:29:54Z</time>
      </trkpt>
      <trkpt lat="50.60225" lon="2.9885">
        <ele>7</ele>
        <time>2021-01-03T08:29:58Z</time>
      </trkpt>
      <trkpt lat="50.60201" lon="2.98831">
        <ele>7</ele>
        <time>2021-01-03T08:30:02Z</time>
      </trkpt>
      <trkpt lat="50.60181" lon="2.98809">
        <ele>7.2</ele>
        <time>2021-01-03T08:30:06Z</time>
      </trkpt>
      <trkpt lat="50.60162" lon="2.98785">
        <ele>7</ele>
        <time>2021-01-03T08:30:10Z</time>
      </trkpt>
      <trkpt lat="50.60145" lon="2.98761">
        <ele>7.6</ele>
        <time>2021-01-03T08:30:14Z</time>
      </trkpt>
      <trkpt lat="50.6013" lon="2.98739">
        <ele>7.4</ele>
        <time>2021-01-03T08:30:18Z</time>
      </trkpt>
      <trkpt lat="50.6011" lon="2.98715">
        <ele>7.6</ele>
        <time>2021-01-03T08:30:22Z</time>
      </trkpt>
      <trkpt lat="50.60093" lon="2.9869">
        <ele>8.4</ele>
        <time>2021-01-03T08:30:26Z</time>
      </trkpt>
      <trkpt lat="50.60078" lon="2.98664">
        <ele>7.8</ele>
        <time>2021-01-03T08:30:30Z</time>
      </trkpt>
      <trkpt lat="50.60059" lon="2.98643">
        <ele>7.8</ele>
        <time>2021-01-03T08:30:34Z</time>
      </trkpt>
      <trkpt lat="50.6004" lon="2.98616">
        <ele>7.6</ele>
        <time>2021-01-03T08:30:38Z</time>
      </trkpt>
      <trkpt lat="50.60022" lon="2.98588">
        <ele>8</ele>
        <time>2021-01-03T08:30:42Z</time>
      </trkpt>
      <trkpt lat="50.60006" lon="2.98559">
        <ele>8</ele>
        <time>2021-01-03T08:30:46Z</time>
      </trkpt>
      <trkpt lat="50.59992" lon="2.98534">
        <ele>7</ele>
        <time>2021-01-03T08:30:50Z</time>
      </trkpt>
      <trkpt lat="50.59982" lon="2.98503">
        <ele>7.4</ele>
        <time>2021-01-03T08:30:54Z</time>
      </trkpt>
      <trkpt lat="50.59969" lon="2.98473">
        <ele>8</ele>
        <time>2021-01-03T08:30:58Z</time>
      </trkpt>
      <trkpt lat="50.59963" lon="2.98442">
        <ele>9.2</ele>
        <time>2021-01-03T08:31:02Z</time>
      </trkpt>
      <trkpt lat="50.59961" lon="2.98422">
        <ele>9.6</ele>
        <time>2021-01-03T08:31:06Z</time>
      </trkpt>
      <trkpt lat="50.59954" lon="2.98413">
        <ele>9.4</ele>
        <time>2021-01-03T08:31:10Z</time>
      </trkpt>
      <trkpt lat="50.59938" lon="2.98423">
        <ele>9.6</ele>
        <time>2021-01-03T08:31:14Z</time>
      </trkpt>
      <trkpt lat="50.59921" lon="2.98434">
        <ele>8.8</ele>
        <time>2021-01-03T08:31:18Z</time>
      </trkpt>
      <trkpt lat="50.59901" lon="2.98447">
        <ele>8.4</ele>
        <time>2021-01-03T08:31:22Z</time>
      </trkpt>
      <trkpt lat="50.59885" lon="2.98463">
        <ele>8.4</ele>
        <time>2021-01-03T08:31:26Z</time>
      </trkpt>
      <trkpt lat="50.59879" lon="2.98475">
        <ele>8.4</ele>
        <time>2021-01-03T08:31:30Z</time>
      </trkpt>
      <trkpt lat="50.59876" lon="2.98481">
        <ele>8.4</ele>
        <time>2021-01-03T08:31:34Z</time>
      </trkpt>
      <trkpt lat="50.59873" lon="2.98484">
        <ele>8.6</ele>
        <time>2021-01-03T08:31:38Z</time>
      </trkpt>
      <trkpt lat="50.59866" lon="2.9848">
        <ele>8.8</ele>
        <time>2021-01-03T08:31:42Z</time>
      </trkpt>
      <trkpt lat="50.59864" lon="2.98462">
        <ele>8.6</ele>
        <time>2021-01-03T08:31:46Z</time>
      </trkpt>
      <trkpt lat="50.59872" lon="2.9843">
        <ele>9</ele>
        <time>2021-01-03T08:33:00Z</time>
      </trkpt>
      <trkpt lat="50.59865" lon="2.98414">
        <ele>8.4</ele>
        <time>2021-01-03T08:33:04Z</time>
      </trkpt>
      <trkpt lat="50.59849" lon="2.98402">
        <ele>8.8</ele>
        <time>2021-01-03T08:33:08Z</time>
      </trkpt>
      <trkpt lat="50.59829" lon="2.98393">
        <ele>7.6</ele>
        <time>2021-01-03T08:33:12Z</time>
      </trkpt>
      <trkpt lat="50.59808" lon="2.98383">
        <ele>7.6</ele>
        <time>2021-01-03T08:33:16Z</time>
      </trkpt>
      <trkpt lat="50.59789" lon="2.98371">
        <ele>6.8</ele>
        <time>2021-01-03T08:33:20Z</time>
      </trkpt>
      <trkpt lat="50.59764" lon="2.98366">
        <ele>7</ele>
        <time>2021-01-03T08:33:24Z</time>
      </trkpt>
      <trkpt lat="50.5974" lon="2.98352">
        <ele>7</ele>
        <time>2021-01-03T08:33:28Z</time>
      </trkpt>
      <trkpt lat="50.59717" lon="2.98339">
        <ele>6.8</ele>
        <time>2021-01-03T08:33:32Z</time>
      </trkpt>
      <trkpt lat="50.59694" lon="2.98325">
        <ele>7</ele>
        <time>2021-01-03T08:33:36Z</time>
      </trkpt>
      <trkpt lat="50.59673" lon="2.9831">
        <ele>6.4</ele>
        <time>2021-01-03T08:33:40Z</time>
      </trkpt>
      <trkpt lat="50.5965" lon="2.98296">
        <ele>6.4</ele>
        <time>2021-01-03T08:33:44Z</time>
      </trkpt>
      <trkpt lat="50.59626" lon="2.98283">
        <ele>6.8</ele>
        <time>2021-01-03T08:33:48Z</time>
      </trkpt>
      <trkpt lat="50.59601" lon="2.98267">
        <ele>6.8</ele>
        <time>2021-01-03T08:33:52Z</time>
      </trkpt>
      <trkpt lat="50.59576" lon="2.98255">
        <ele>6.6</ele>
        <time>2021-01-03T08:33:56Z</time>
      </trkpt>
      <trkpt lat="50.59553" lon="2.98242">
        <ele>6.2</ele>
        <time>2021-01-03T08:34:00Z</time>
      </trkpt>
      <trkpt lat="50.59532" lon="2.98225">
        <ele>6</ele>
        <time>2021-01-03T08:34:04Z</time>
      </trkpt>
      <trkpt lat="50.59505" lon="2.98213">
        <ele>6.2</ele>
        <time>2021-01-03T08:34:08Z</time>
      </trkpt>
      <trkpt lat="50.59478" lon="2.98198">
        <ele>5</ele>
        <time>2021-01-03T08:34:12Z</time>
      </trkpt>
      <trkpt lat="50.59455" lon="2.98179">
        <ele>6.4</ele>
        <time>2021-01-03T08:34:16Z</time>
      </trkpt>
      <trkpt lat="50.59432" lon="2.98168">
        <ele>7.2</ele>
        <time>2021-01-03T08:34:20Z</time>
      </trkpt>
      <trkpt lat="50.5941" lon="2.9815">
        <ele>6.4</ele>
        <time>2021-01-03T08:34:24Z</time>
      </trkpt>
      <trkpt lat="50.59389" lon="2.98132">
        <ele>6.6</ele>
        <time>2021-01-03T08:34:28Z</time>
      </trkpt>
      <trkpt lat="50.59368" lon="2.98115">
        <ele>6.8</ele>
        <time>2021-01-03T08:34:32Z</time>
      </trkpt>
      <trkpt lat="50.59347" lon="2.98097">
        <ele>6.8</ele>
        <time>2021-01-03T08:34:36Z</time>
      </trkpt>
      <trkpt lat="50.59326" lon="2.9808">
        <ele>6.6</ele>
        <time>2021-01-03T08:34:40Z</time>
      </trkpt>
      <trkpt lat="50.59307" lon="2.98064">
        <ele>7</ele>
        <time>2021-01-03T08:34:44Z</time>
      </trkpt>
      <trkpt lat="50.59288" lon="2.98046">
        <ele>7</ele>
        <time>2021-01-03T08:34:48Z</time>
      </trkpt>
      <trkpt lat="50.59269" lon="2.98029">
        <ele>7.2</ele>
        <time>2021-01-03T08:34:52Z</time>
      </trkpt>
      <trkpt lat="50.59248" lon="2.98014">
        <ele>7</ele>
        <time>2021-01-03T08:34:56Z</time>
      </trkpt>
      <trkpt lat="50.59228" lon="2.97994">
        <ele>6.4</ele>
        <time>2021-01-03T08:35:00Z</time>
      </trkpt>
      <trkpt lat="50.59208" lon="2.97974">
        <ele>7.4</ele>
        <time>2021-01-03T08:35:04Z</time>
      </trkpt>
      <trkpt lat="50.59208" lon="2.97974">
        <ele>7.4</ele>
        <time>2021-01-03T08:35:08Z</time>
      </trkpt>
      <trkpt lat="50.59182" lon="2.97953">
        <ele>7.2</ele>
        <time>2021-01-03T08:35:12Z</time>
      </trkpt>
      <trkpt lat="50.59163" lon="2.97933">
        <ele>7.8</ele>
        <time>2021-01-03T08:35:16Z</time>
      </trkpt>
      <trkpt lat="50.5914" lon="2.97919">
        <ele>7.4</ele>
        <time>2021-01-03T08:35:20Z</time>
      </trkpt>
      <trkpt lat="50.59117" lon="2.97904">
        <ele>7.4</ele>
        <time>2021-01-03T08:35:24Z</time>
      </trkpt>
      <trkpt lat="50.59093" lon="2.97899">
        <ele>7.2</ele>
        <time>2021-01-03T08:35:28Z</time>
      </trkpt>
      <trkpt lat="50.5907" lon="2.97894">
        <ele>7.2</ele>
        <time>2021-01-03T08:35:32Z</time>
      </trkpt>
      <trkpt lat="50.59048" lon="2.97888">
        <ele>7.6</ele>
        <time>2021-01-03T08:35:36Z</time>
      </trkpt>
      <trkpt lat="50.59025" lon="2.97884">
        <ele>7.8</ele>
        <time>2021-01-03T08:35:40Z</time>
      </trkpt>
      <trkpt lat="50.59002" lon="2.97881">
        <ele>7.6</ele>
        <time>2021-01-03T08:35:44Z</time>
      </trkpt>
      <trkpt lat="50.58979" lon="2.97878">
        <ele>7.6</ele>
        <time>2021-01-03T08:35:48Z</time>
      </trkpt>
      <trkpt lat="50.58957" lon="2.97874">
        <ele>7.8</ele>
        <time>2021-01-03T08:35:52Z</time>
      </trkpt>
      <trkpt lat="50.58935" lon="2.97869">
        <ele>8.2</ele>
        <time>2021-01-03T08:35:56Z</time>
      </trkpt>
      <trkpt lat="50.58915" lon="2.97863">
        <ele>8</ele>
        <time>2021-01-03T08:36:00Z</time>
      </trkpt>
      <trkpt lat="50.58898" lon="2.97855">
        <ele>8.2</ele>
        <time>2021-01-03T08:36:04Z</time>
      </trkpt>
      <trkpt lat="50.5888" lon="2.97859">
        <ele>7.8</ele>
        <time>2021-01-03T08:36:16Z</time>
      </trkpt>
      <trkpt lat="50.58877" lon="2.97882">
        <ele>7.4</ele>
        <time>2021-01-03T08:36:20Z</time>
      </trkpt>
      <trkpt lat="50.58876" lon="2.97908">
        <ele>7.2</ele>
        <time>2021-01-03T08:36:24Z</time>
      </trkpt>
      <trkpt lat="50.58875" lon="2.97936">
        <ele>6.8</ele>
        <time>2021-01-03T08:36:28Z</time>
      </trkpt>
      <trkpt lat="50.58876" lon="2.97966">
        <ele>6.6</ele>
        <time>2021-01-03T08:36:32Z</time>
      </trkpt>
      <trkpt lat="50.5888" lon="2.97997">
        <ele>6.2</ele>
        <time>2021-01-03T08:36:36Z</time>
      </trkpt>
      <trkpt lat="50.5889" lon="2.98023">
        <ele>6.8</ele>
        <time>2021-01-03T08:36:40Z</time>
      </trkpt>
      <trkpt lat="50.58903" lon="2.98048">
        <ele>5.8</ele>
        <time>2021-01-03T08:36:44Z</time>
      </trkpt>
      <trkpt lat="50.58917" lon="2.98071">
        <ele>5.8</ele>
        <time>2021-01-03T08:36:48Z</time>
      </trkpt>
      <trkpt lat="50.58929" lon="2.98095">
        <ele>6.8</ele>
        <time>2021-01-03T08:36:52Z</time>
      </trkpt>
      <trkpt lat="50.58938" lon="2.98119">
        <ele>6.6</ele>
        <time>2021-01-03T08:36:56Z</time>
      </trkpt>
      <trkpt lat="50.58945" lon="2.98143">
        <ele>7</ele>
        <time>2021-01-03T08:37:00Z</time>
      </trkpt>
      <trkpt lat="50.58952" lon="2.98168">
        <ele>6.4</ele>
        <time>2021-01-03T08:37:04Z</time>
      </trkpt>
      <trkpt lat="50.58958" lon="2.98196">
        <ele>6.4</ele>
        <time>2021-01-03T08:37:08Z</time>
      </trkpt>
      <trkpt lat="50.58964" lon="2.98221">
        <ele>6</ele>
        <time>2021-01-03T08:37:12Z</time>
      </trkpt>
      <trkpt lat="50.58958" lon="2.98236">
        <ele>6.6</ele>
        <time>2021-01-03T08:37:16Z</time>
      </trkpt>
      <trkpt lat="50.58941" lon="2.98237">
        <ele>7.2</ele>
        <time>2021-01-03T08:37:20Z</time>
      </trkpt>
      <trkpt lat="50.58922" lon="2.98235">
        <ele>6.6</ele>
        <time>2021-01-03T08:37:24Z</time>
      </trkpt>
      <trkpt lat="50.58904" lon="2.98235">
        <ele>7</ele>
        <time>2021-01-03T08:37:28Z</time>
      </trkpt>
      <trkpt lat="50.58887" lon="2.98234">
        <ele>6.8</ele>
        <time>2021-01-03T08:37:32Z</time>
      </trkpt>
      <trkpt lat="50.58868" lon="2.98236">
        <ele>6.4</ele>
        <time>2021-01-03T08:37:36Z</time>
      </trkpt>
      <trkpt lat="50.58848" lon="2.98235">
        <ele>6.6</ele>
        <time>2021-01-03T08:37:40Z</time>
      </trkpt>
      <trkpt lat="50.58827" lon="2.98235">
        <ele>6.8</ele>
        <time>2021-01-03T08:37:44Z</time>
      </trkpt>
      <trkpt lat="50.58806" lon="2.98234">
        <ele>6.8</ele>
        <time>2021-01-03T08:37:48Z</time>
      </trkpt>
      <trkpt lat="50.58785" lon="2.98235">
        <ele>6.8</ele>
        <time>2021-01-03T08:37:52Z</time>
      </trkpt>
      <trkpt lat="50.58764" lon="2.98234">
        <ele>7</ele>
        <time>2021-01-03T08:37:56Z</time>
      </trkpt>
      <trkpt lat="50.58742" lon="2.98234">
        <ele>6.6</ele>
        <time>2021-01-03T08:38:00Z</time>
      </trkpt>
      <trkpt lat="50.5872" lon="2.98235">
        <ele>7.2</ele>
        <time>2021-01-03T08:38:04Z</time>
      </trkpt>
      <trkpt lat="50.58697" lon="2.98234">
        <ele>6.6</ele>
        <time>2021-01-03T08:38:08Z</time>
      </trkpt>
      <trkpt lat="50.58675" lon="2.98234">
        <ele>6.2</ele>
        <time>2021-01-03T08:38:12Z</time>
      </trkpt>
      <trkpt lat="50.58652" lon="2.98235">
        <ele>6.2</ele>
        <time>2021-01-03T08:38:16Z</time>
      </trkpt>
      <trkpt lat="50.58629" lon="2.98234">
        <ele>6.2</ele>
        <time>2021-01-03T08:38:20Z</time>
      </trkpt>
      <trkpt lat="50.58605" lon="2.98234">
        <ele>6.2</ele>
        <time>2021-01-03T08:38:24Z</time>
      </trkpt>
      <trkpt lat="50.58583" lon="2.98233">
        <ele>6.6</ele>
        <time>2021-01-03T08:38:28Z</time>
      </trkpt>
      <trkpt lat="50.5856" lon="2.98233">
        <ele>6.4</ele>
        <time>2021-01-03T08:38:32Z</time>
      </trkpt>
      <trkpt lat="50.58538" lon="2.98233">
        <ele>6.2</ele>
        <time>2021-01-03T08:38:36Z</time>
      </trkpt>
      <trkpt lat="50.58518" lon="2.98233">
        <ele>6.6</ele>
        <time>2021-01-03T08:38:40Z</time>
      </trkpt>
      <trkpt lat="50.58498" lon="2.98233">
        <ele>6.4</ele>
        <time>2021-01-03T08:38:44Z</time>
      </trkpt>
      <trkpt lat="50.58477" lon="2.98234">
        <ele>6.6</ele>
        <time>2021-01-03T08:38:48Z</time>
      </trkpt>
      <trkpt lat="50.58457" lon="2.98234">
        <ele>6.2</ele>
        <time>2021-01-03T08:38:52Z</time>
      </trkpt>
      <trkpt lat="50.58435" lon="2.98233">
        <ele>6.2</ele>
        <time>2021-01-03T08:38:56Z</time>
      </trkpt>
      <trkpt lat="50.58413" lon="2.98233">
        <ele>6.4</ele>
        <time>2021-01-03T08:39:00Z</time>
      </trkpt>
      <trkpt lat="50.58392" lon="2.98233">
        <ele>6.2</ele>
        <time>2021-01-03T08:39:04Z</time>
      </trkpt>
      <trkpt lat="50.58372" lon="2.98234">
        <ele>6.6</ele>
        <time>2021-01-03T08:39:08Z</time>
      </trkpt>
      <trkpt lat="50.58351" lon="2.98235">
        <ele>6.2</ele>
        <time>2021-01-03T08:39:12Z</time>
      </trkpt>
      <trkpt lat="50.58336" lon="2.98244">
        <ele>6</ele>
        <time>2021-01-03T08:39:16Z</time>
      </trkpt>
      <trkpt lat="50.58335" lon="2.9826">
        <ele>7</ele>
        <time>2021-01-03T08:39:20Z</time>
      </trkpt>
      <trkpt lat="50.58338" lon="2.98275">
        <ele>6.8</ele>
        <time>2021-01-03T08:39:24Z</time>
      </trkpt>
      <trkpt lat="50.58333" lon="2.98299">
        <ele>6.2</ele>
        <time>2021-01-03T08:39:28Z</time>
      </trkpt>
      <trkpt lat="50.58325" lon="2.98324">
        <ele>7.2</ele>
        <time>2021-01-03T08:39:32Z</time>
      </trkpt>
      <trkpt lat="50.58319" lon="2.98348">
        <ele>6.6</ele>
        <time>2021-01-03T08:39:36Z</time>
      </trkpt>
      <trkpt lat="50.58317" lon="2.98376">
        <ele>7</ele>
        <time>2021-01-03T08:39:40Z</time>
      </trkpt>
      <trkpt lat="50.58313" lon="2.98404">
        <ele>7</ele>
        <time>2021-01-03T08:39:44Z</time>
      </trkpt>
      <trkpt lat="50.58309" lon="2.98434">
        <ele>6.2</ele>
        <time>2021-01-03T08:39:48Z</time>
      </trkpt>
      <trkpt lat="50.58305" lon="2.98466">
        <ele>6.2</ele>
        <time>2021-01-03T08:39:52Z</time>
      </trkpt>
      <trkpt lat="50.58297" lon="2.98495">
        <ele>6.6</ele>
        <time>2021-01-03T08:39:56Z</time>
      </trkpt>
      <trkpt lat="50.58288" lon="2.98524">
        <ele>6.4</ele>
        <time>2021-01-03T08:40:00Z</time>
      </trkpt>
      <trkpt lat="50.58283" lon="2.98555">
        <ele>6.2</ele>
        <time>2021-01-03T08:40:04Z</time>
      </trkpt>
      <trkpt lat="50.58278" lon="2.98588">
        <ele>5.2</ele>
        <time>2021-01-03T08:40:08Z</time>
      </trkpt>
      <trkpt lat="50.58274" lon="2.98616">
        <ele>6.6</ele>
        <time>2021-01-03T08:40:12Z</time>
      </trkpt>
      <trkpt lat="50.58269" lon="2.98641">
        <ele>6.6</ele>
        <time>2021-01-03T08:40:16Z</time>
      </trkpt>
      <trkpt lat="50.58264" lon="2.98663">
        <ele>6</ele>
        <time>2021-01-03T08:40:20Z</time>
      </trkpt>
      <trkpt lat="50.58259" lon="2.98685">
        <ele>6.8</ele>
        <time>2021-01-03T08:40:24Z</time>
      </trkpt>
      <trkpt lat="50.58257" lon="2.98705">
        <ele>6.6</ele>
        <time>2021-01-03T08:40:28Z</time>
      </trkpt>
      <trkpt lat="50.58255" lon="2.98723">
        <ele>7.2</ele>
        <time>2021-01-03T08:40:32Z</time>
      </trkpt>
      <trkpt lat="50.58256" lon="2.9874">
        <ele>7</ele>
        <time>2021-01-03T08:40:36Z</time>
      </trkpt>
      <trkpt lat="50.58285" lon="2.98764">
        <ele>6.2</ele>
        <time>2021-01-03T08:41:05Z</time>
      </trkpt>
      <trkpt lat="50.58299" lon="2.98771">
        <ele>6.4</ele>
        <time>2021-01-03T08:41:09Z</time>
      </trkpt>
      <trkpt lat="50.58314" lon="2.98776">
        <ele>5.8</ele>
        <time>2021-01-03T08:41:13Z</time>
      </trkpt>
      <trkpt lat="50.58329" lon="2.98786">
        <ele>5</ele>
        <time>2021-01-03T08:41:17Z</time>
      </trkpt>
      <trkpt lat="50.58342" lon="2.98797">
        <ele>6</ele>
        <time>2021-01-03T08:41:21Z</time>
      </trkpt>
      <trkpt lat="50.58357" lon="2.98801">
        <ele>6</ele>
        <time>2021-01-03T08:41:25Z</time>
      </trkpt>
      <trkpt lat="50.58371" lon="2.98804">
        <ele>6.2</ele>
        <time>2021-01-03T08:41:29Z</time>
      </trkpt>
      <trkpt lat="50.5839" lon="2.98805">
        <ele>4.8</ele>
        <time>2021-01-03T08:41:33Z</time>
      </trkpt>
      <trkpt lat="50.58403" lon="2.98803">
        <ele>6.2</ele>
        <time>2021-01-03T08:41:37Z</time>
      </trkpt>
      <trkpt lat="50.58417" lon="2.98801">
        <ele>3.8</ele>
        <time>2021-01-03T08:41:41Z</time>
      </trkpt>
      <trkpt lat="50.58431" lon="2.98805">
        <ele>5.4</ele>
        <time>2021-01-03T08:41:45Z</time>
      </trkpt>
      <trkpt lat="50.58445" lon="2.98805">
        <ele>4.6</ele>
        <time>2021-01-03T08:41:49Z</time>
      </trkpt>
      <trkpt lat="50.58464" lon="2.98799">
        <ele>5.6</ele>
        <time>2021-01-03T08:41:53Z</time>
      </trkpt>
      <trkpt lat="50.58474" lon="2.98804">
        <ele>5.6</ele>
        <time>2021-01-03T08:41:57Z</time>
      </trkpt>
      <trkpt lat="50.58482" lon="2.98804">
        <ele>5.4</ele>
        <time>2021-01-03T08:42:01Z</time>
      </trkpt>
      <trkpt lat="50.58495" lon="2.98804">
        <ele>5.8</ele>
        <time>2021-01-03T08:42:05Z</time>
      </trkpt>
      <trkpt lat="50.58509" lon="2.988">
        <ele>5.6</ele>
        <time>2021-01-03T08:42:09Z</time>
      </trkpt>
      <trkpt lat="50.58526" lon="2.98792">
        <ele>5.2</ele>
        <time>2021-01-03T08:42:13Z</time>
      </trkpt>
      <trkpt lat="50.5854" lon="2.98794">
        <ele>4.8</ele>
        <time>2021-01-03T08:42:17Z</time>
      </trkpt>
      <trkpt lat="50.58554" lon="2.98803">
        <ele>5.4</ele>
        <time>2021-01-03T08:42:21Z</time>
      </trkpt>
      <trkpt lat="50.58565" lon="2.98815">
        <ele>5.6</ele>
        <time>2021-01-03T08:42:25Z</time>
      </trkpt>
      <trkpt lat="50.58577" lon="2.98832">
        <ele>4.8</ele>
        <time>2021-01-03T08:42:29Z</time>
      </trkpt>
      <trkpt lat="50.58589" lon="2.98842">
        <ele>5.4</ele>
        <time>2021-01-03T08:42:33Z</time>
      </trkpt>
      <trkpt lat="50.58598" lon="2.98851">
        <ele>5.4</ele>
        <time>2021-01-03T08:42:37Z</time>
      </trkpt>
      <trkpt lat="50.58607" lon="2.98861">
        <ele>5.4</ele>
        <time>2021-01-03T08:42:41Z</time>
      </trkpt>
      <trkpt lat="50.58612" lon="2.98874">
        <ele>5</ele>
        <time>2021-01-03T08:42:45Z</time>
      </trkpt>
      <trkpt lat="50.5861" lon="2.98889">
        <ele>5.2</ele>
        <time>2021-01-03T08:42:49Z</time>
      </trkpt>
      <trkpt lat="50.58614" lon="2.98898">
        <ele>5.2</ele>
        <time>2021-01-03T08:42:53Z</time>
      </trkpt>
      <trkpt lat="50.58623" lon="2.98909">
        <ele>5.6</ele>
        <time>2021-01-03T08:43:05Z</time>
      </trkpt>
      <trkpt lat="50.58632" lon="2.98917">
        <ele>5.4</ele>
        <time>2021-01-03T08:43:09Z</time>
      </trkpt>
      <trkpt lat="50.58639" lon="2.98932">
        <ele>5.2</ele>
        <time>2021-01-03T08:43:13Z</time>
      </trkpt>
      <trkpt lat="50.58644" lon="2.98947">
        <ele>5.2</ele>
        <time>2021-01-03T08:43:17Z</time>
      </trkpt>
      <trkpt lat="50.58647" lon="2.98958">
        <ele>5.6</ele>
        <time>2021-01-03T08:43:21Z</time>
      </trkpt>
      <trkpt lat="50.58651" lon="2.98972">
        <ele>5.2</ele>
        <time>2021-01-03T08:43:25Z</time>
      </trkpt>
      <trkpt lat="50.58655" lon="2.98985">
        <ele>5.2</ele>
        <time>2021-01-03T08:43:29Z</time>
      </trkpt>
      <trkpt lat="50.58661" lon="2.98998">
        <ele>5.2</ele>
        <time>2021-01-03T08:43:33Z</time>
      </trkpt>
      <trkpt lat="50.58664" lon="2.99011">
        <ele>5</ele>
        <time>2021-01-03T08:43:37Z</time>
      </trkpt>
      <trkpt lat="50.58664" lon="2.99024">
        <ele>5.6</ele>
        <time>2021-01-03T08:43:41Z</time>
      </trkpt>
      <trkpt lat="50.58664" lon="2.99029">
        <ele>5.8</ele>
        <time>2021-01-03T08:43:45Z</time>
      </trkpt>
      <trkpt lat="50.58658" lon="2.99058">
        <ele>5.6</ele>
        <time>2021-01-03T08:44:43Z</time>
      </trkpt>
      <trkpt lat="50.58653" lon="2.99061">
        <ele>6</ele>
        <time>2021-01-03T08:44:47Z</time>
      </trkpt>
      <trkpt lat="50.58646" lon="2.99052">
        <ele>5.8</ele>
        <time>2021-01-03T08:44:51Z</time>
      </trkpt>
      <trkpt lat="50.5864" lon="2.99041">
        <ele>6</ele>
        <time>2021-01-03T08:44:55Z</time>
      </trkpt>
      <trkpt lat="50.58631" lon="2.99031">
        <ele>5.6</ele>
        <time>2021-01-03T08:44:59Z</time>
      </trkpt>
      <trkpt lat="50.58623" lon="2.99019">
        <ele>5.6</ele>
        <time>2021-01-03T08:45:03Z</time>
      </trkpt>
      <trkpt lat="50.58613" lon="2.99007">
        <ele>5.8</ele>
        <time>2021-01-03T08:45:07Z</time>
      </trkpt>
      <trkpt lat="50.58602" lon="2.98994">
        <ele>6</ele>
        <time>2021-01-03T08:45:11Z</time>
      </trkpt>
      <trkpt lat="50.58591" lon="2.9898">
        <ele>5.6</ele>
        <time>2021-01-03T08:45:15Z</time>
      </trkpt>
      <trkpt lat="50.5858" lon="2.98966">
        <ele>5.6</ele>
        <time>2021-01-03T08:45:19Z</time>
      </trkpt>
      <trkpt lat="50.58567" lon="2.98949">
        <ele>5.4</ele>
        <time>2021-01-03T08:45:23Z</time>
      </trkpt>
      <trkpt lat="50.58554" lon="2.98932">
        <ele>5.6</ele>
        <time>2021-01-03T08:45:27Z</time>
      </trkpt>
      <trkpt lat="50.5854" lon="2.98915">
        <ele>6</ele>
        <time>2021-01-03T08:45:31Z</time>
      </trkpt>
      <trkpt lat="50.58526" lon="2.98901">
        <ele>6.6</ele>
        <time>2021-01-03T08:45:35Z</time>
      </trkpt>
      <trkpt lat="50.58509" lon="2.98899">
        <ele>6.6</ele>
        <time>2021-01-03T08:45:39Z</time>
      </trkpt>
      <trkpt lat="50.58497" lon="2.98912">
        <ele>6.6</ele>
        <time>2021-01-03T08:45:43Z</time>
      </trkpt>
      <trkpt lat="50.58491" lon="2.98938">
        <ele>6.2</ele>
        <time>2021-01-03T08:45:47Z</time>
      </trkpt>
      <trkpt lat="50.58484" lon="2.98966">
        <ele>5.8</ele>
        <time>2021-01-03T08:45:51Z</time>
      </trkpt>
      <trkpt lat="50.58478" lon="2.98994">
        <ele>5.8</ele>
        <time>2021-01-03T08:45:55Z</time>
      </trkpt>
      <trkpt lat="50.5847" lon="2.99021">
        <ele>5.4</ele>
        <time>2021-01-03T08:45:59Z</time>
      </trkpt>
      <trkpt lat="50.58462" lon="2.99049">
        <ele>6</ele>
        <time>2021-01-03T08:46:03Z</time>
      </trkpt>
      <trkpt lat="50.58457" lon="2.99078">
        <ele>6.2</ele>
        <time>2021-01-03T08:46:07Z</time>
      </trkpt>
      <trkpt lat="50.5845" lon="2.99099">
        <ele>6</ele>
        <time>2021-01-03T08:46:11Z</time>
      </trkpt>
      <trkpt lat="50.58448" lon="2.99117">
        <ele>5.6</ele>
        <time>2021-01-03T08:46:15Z</time>
      </trkpt>
      <trkpt lat="50.58444" lon="2.9913">
        <ele>6.2</ele>
        <time>2021-01-03T08:46:19Z</time>
      </trkpt>
      <trkpt lat="50.58437" lon="2.99152">
        <ele>5.8</ele>
        <time>2021-01-03T08:46:23Z</time>
      </trkpt>
      <trkpt lat="50.58431" lon="2.99177">
        <ele>5.4</ele>
        <time>2021-01-03T08:46:27Z</time>
      </trkpt>
      <trkpt lat="50.58424" lon="2.99202">
        <ele>5</ele>
        <time>2021-01-03T08:46:31Z</time>
      </trkpt>
      <trkpt lat="50.58419" lon="2.99235">
        <ele>5.2</ele>
        <time>2021-01-03T08:46:35Z</time>
      </trkpt>
      <trkpt lat="50.58418" lon="2.99271">
        <ele>5</ele>
        <time>2021-01-03T08:46:39Z</time>
      </trkpt>
      <trkpt lat="50.58413" lon="2.99308">
        <ele>4.4</ele>
        <time>2021-01-03T08:46:43Z</time>
      </trkpt>
      <trkpt lat="50.58402" lon="2.99348">
        <ele>5</ele>
        <time>2021-01-03T08:46:47Z</time>
      </trkpt>
      <trkpt lat="50.58391" lon="2.99389">
        <ele>5</ele>
        <time>2021-01-03T08:46:51Z</time>
      </trkpt>
      <trkpt lat="50.5838" lon="2.99428">
        <ele>4.8</ele>
        <time>2021-01-03T08:46:55Z</time>
      </trkpt>
      <trkpt lat="50.5837" lon="2.99466">
        <ele>5.2</ele>
        <time>2021-01-03T08:46:59Z</time>
      </trkpt>
      <trkpt lat="50.58359" lon="2.99506">
        <ele>5.4</ele>
        <time>2021-01-03T08:47:03Z</time>
      </trkpt>
      <trkpt lat="50.5835" lon="2.99541">
        <ele>6</ele>
        <time>2021-01-03T08:47:07Z</time>
      </trkpt>
      <trkpt lat="50.58343" lon="2.99569">
        <ele>6.2</ele>
        <time>2021-01-03T08:47:11Z</time>
      </trkpt>
      <trkpt lat="50.58334" lon="2.99602">
        <ele>5.8</ele>
        <time>2021-01-03T08:47:15Z</time>
      </trkpt>
      <trkpt lat="50.58327" lon="2.99635">
        <ele>5.4</ele>
        <time>2021-01-03T08:47:19Z</time>
      </trkpt>
      <trkpt lat="50.58319" lon="2.99668">
        <ele>5.4</ele>
        <time>2021-01-03T08:47:23Z</time>
      </trkpt>
      <trkpt lat="50.58313" lon="2.99696">
        <ele>6.4</ele>
        <time>2021-01-03T08:47:27Z</time>
      </trkpt>
      <trkpt lat="50.58305" lon="2.99723">
        <ele>6.4</ele>
        <time>2021-01-03T08:47:31Z</time>
      </trkpt>
      <trkpt lat="50.58304" lon="2.99754">
        <ele>5.8</ele>
        <time>2021-01-03T08:47:35Z</time>
      </trkpt>
      <trkpt lat="50.58301" lon="2.99784">
        <ele>5.4</ele>
        <time>2021-01-03T08:47:39Z</time>
      </trkpt>
      <trkpt lat="50.58293" lon="2.99809">
        <ele>5.8</ele>
        <time>2021-01-03T08:47:43Z</time>
      </trkpt>
      <trkpt lat="50.58287" lon="2.99835">
        <ele>6.4</ele>
        <time>2021-01-03T08:47:47Z</time>
      </trkpt>
      <trkpt lat="50.58278" lon="2.99862">
        <ele>5.4</ele>
        <time>2021-01-03T08:47:51Z</time>
      </trkpt>
      <trkpt lat="50.58265" lon="2.99892">
        <ele>4</ele>
        <time>2021-01-03T08:47:55Z</time>
      </trkpt>
      <trkpt lat="50.58256" lon="2.99911">
        <ele>5.4</ele>
        <time>2021-01-03T08:47:59Z</time>
      </trkpt>
      <trkpt lat="50.58255" lon="2.99937">
        <ele>5.4</ele>
        <time>2021-01-03T08:48:03Z</time>
      </trkpt>
      <trkpt lat="50.58264" lon="2.99962">
        <ele>5.6</ele>
        <time>2021-01-03T08:48:07Z</time>
      </trkpt>
      <trkpt lat="50.58279" lon="2.99977">
        <ele>6</ele>
        <time>2021-01-03T08:48:11Z</time>
      </trkpt>
      <trkpt lat="50.58295" lon="2.9999">
        <ele>6</ele>
        <time>2021-01-03T08:48:15Z</time>
      </trkpt>
      <trkpt lat="50.58302" lon="3.00012">
        <ele>6</ele>
        <time>2021-01-03T08:48:19Z</time>
      </trkpt>
      <trkpt lat="50.58296" lon="3.00037">
        <ele>6.2</ele>
        <time>2021-01-03T08:48:23Z</time>
      </trkpt>
      <trkpt lat="50.58291" lon="3.00066">
        <ele>6.4</ele>
        <time>2021-01-03T08:48:27Z</time>
      </trkpt>
      <trkpt lat="50.58287" lon="3.00092">
        <ele>5.6</ele>
        <time>2021-01-03T08:48:31Z</time>
      </trkpt>
      <trkpt lat="50.58279" lon="3.00121">
        <ele>6</ele>
        <time>2021-01-03T08:48:35Z</time>
      </trkpt>
      <trkpt lat="50.58275" lon="3.0015">
        <ele>5.8</ele>
        <time>2021-01-03T08:48:39Z</time>
      </trkpt>
      <trkpt lat="50.58272" lon="3.00178">
        <ele>6</ele>
        <time>2021-01-03T08:48:43Z</time>
      </trkpt>
      <trkpt lat="50.58265" lon="3.00205">
        <ele>5.8</ele>
        <time>2021-01-03T08:48:47Z</time>
      </trkpt>
      <trkpt lat="50.5826" lon="3.00229">
        <ele>5.6</ele>
        <time>2021-01-03T08:48:51Z</time>
      </trkpt>
      <trkpt lat="50.58244" lon="3.00256">
        <ele>6.6</ele>
        <time>2021-01-03T08:48:55Z</time>
      </trkpt>
      <trkpt lat="50.58229" lon="3.00275">
        <ele>5.6</ele>
        <time>2021-01-03T08:48:59Z</time>
      </trkpt>
      <trkpt lat="50.5822" lon="3.00297">
        <ele>6.2</ele>
        <time>2021-01-03T08:49:03Z</time>
      </trkpt>
      <trkpt lat="50.58212" lon="3.00325">
        <ele>6</ele>
        <time>2021-01-03T08:49:07Z</time>
      </trkpt>
      <trkpt lat="50.58209" lon="3.00348">
        <ele>6.6</ele>
        <time>2021-01-03T08:49:11Z</time>
      </trkpt>
      <trkpt lat="50.58199" lon="3.00378">
        <ele>6.6</ele>
        <time>2021-01-03T08:49:15Z</time>
      </trkpt>
      <trkpt lat="50.5819" lon="3.00408">
        <ele>6.6</ele>
        <time>2021-01-03T08:49:19Z</time>
      </trkpt>
      <trkpt lat="50.58182" lon="3.00436">
        <ele>6.8</ele>
        <time>2021-01-03T08:49:23Z</time>
      </trkpt>
      <trkpt lat="50.58175" lon="3.00466">
        <ele>6.8</ele>
        <time>2021-01-03T08:49:27Z</time>
      </trkpt>
      <trkpt lat="50.58166" lon="3.00501">
        <ele>6.4</ele>
        <time>2021-01-03T08:49:31Z</time>
      </trkpt>
      <trkpt lat="50.58158" lon="3.00527">
        <ele>6.6</ele>
        <time>2021-01-03T08:49:35Z</time>
      </trkpt>
      <trkpt lat="50.58151" lon="3.00553">
        <ele>6.6</ele>
        <time>2021-01-03T08:49:39Z</time>
      </trkpt>
      <trkpt lat="50.58142" lon="3.00577">
        <ele>6.6</ele>
        <time>2021-01-03T08:49:43Z</time>
      </trkpt>
      <trkpt lat="50.58139" lon="3.00605">
        <ele>6.4</ele>
        <time>2021-01-03T08:49:47Z</time>
      </trkpt>
      <trkpt lat="50.58132" lon="3.00635">
        <ele>6.2</ele>
        <time>2021-01-03T08:49:51Z</time>
      </trkpt>
      <trkpt lat="50.58128" lon="3.0066">
        <ele>6.4</ele>
        <time>2021-01-03T08:49:55Z</time>
      </trkpt>
      <trkpt lat="50.58117" lon="3.00684">
        <ele>7</ele>
        <time>2021-01-03T08:49:59Z</time>
      </trkpt>
      <trkpt lat="50.58098" lon="3.00684">
        <ele>6.6</ele>
        <time>2021-01-03T08:50:03Z</time>
      </trkpt>
      <trkpt lat="50.58081" lon="3.00677">
        <ele>6.4</ele>
        <time>2021-01-03T08:50:07Z</time>
      </trkpt>
      <trkpt lat="50.58064" lon="3.00669">
        <ele>7</ele>
        <time>2021-01-03T08:50:11Z</time>
      </trkpt>
      <trkpt lat="50.58047" lon="3.00659">
        <ele>6.4</ele>
        <time>2021-01-03T08:50:15Z</time>
      </trkpt>
      <trkpt lat="50.5803" lon="3.00646">
        <ele>7</ele>
        <time>2021-01-03T08:50:19Z</time>
      </trkpt>
      <trkpt lat="50.58012" lon="3.00635">
        <ele>6.8</ele>
        <time>2021-01-03T08:50:23Z</time>
      </trkpt>
      <trkpt lat="50.57993" lon="3.00624">
        <ele>7.2</ele>
        <time>2021-01-03T08:50:27Z</time>
      </trkpt>
      <trkpt lat="50.57975" lon="3.00613">
        <ele>7.4</ele>
        <time>2021-01-03T08:50:31Z</time>
      </trkpt>
      <trkpt lat="50.57957" lon="3.00604">
        <ele>7</ele>
        <time>2021-01-03T08:50:35Z</time>
      </trkpt>
      <trkpt lat="50.57947" lon="3.00598">
        <ele>7.2</ele>
        <time>2021-01-03T08:50:39Z</time>
      </trkpt>
      <trkpt lat="50.57941" lon="3.00612">
        <ele>7.4</ele>
        <time>2021-01-03T08:52:07Z</time>
      </trkpt>
      <trkpt lat="50.57938" lon="3.0063">
        <ele>6.4</ele>
        <time>2021-01-03T08:52:11Z</time>
      </trkpt>
      <trkpt lat="50.57935" lon="3.00657">
        <ele>7.2</ele>
        <time>2021-01-03T08:52:15Z</time>
      </trkpt>
      <trkpt lat="50.57931" lon="3.00681">
        <ele>7.6</ele>
        <time>2021-01-03T08:52:19Z</time>
      </trkpt>
      <trkpt lat="50.57926" lon="3.00709">
        <ele>8</ele>
        <time>2021-01-03T08:52:23Z</time>
      </trkpt>
      <trkpt lat="50.57919" lon="3.00742">
        <ele>7.2</ele>
        <time>2021-01-03T08:52:27Z</time>
      </trkpt>
      <trkpt lat="50.57913" lon="3.00774">
        <ele>7.8</ele>
        <time>2021-01-03T08:52:31Z</time>
      </trkpt>
      <trkpt lat="50.57908" lon="3.00803">
        <ele>8.2</ele>
        <time>2021-01-03T08:52:35Z</time>
      </trkpt>
      <trkpt lat="50.57902" lon="3.00832">
        <ele>8.4</ele>
        <time>2021-01-03T08:52:39Z</time>
      </trkpt>
      <trkpt lat="50.57898" lon="3.00861">
        <ele>8</ele>
        <time>2021-01-03T08:52:43Z</time>
      </trkpt>
      <trkpt lat="50.57892" lon="3.00892">
        <ele>8.4</ele>
        <time>2021-01-03T08:52:47Z</time>
      </trkpt>
      <trkpt lat="50.57885" lon="3.00924">
        <ele>7.8</ele>
        <time>2021-01-03T08:52:51Z</time>
      </trkpt>
      <trkpt lat="50.57878" lon="3.00957">
        <ele>7.8</ele>
        <time>2021-01-03T08:52:55Z</time>
      </trkpt>
      <trkpt lat="50.57872" lon="3.00983">
        <ele>8.2</ele>
        <time>2021-01-03T08:52:59Z</time>
      </trkpt>
      <trkpt lat="50.57869" lon="3.00992">
        <ele>8.6</ele>
        <time>2021-01-03T08:53:03Z</time>
      </trkpt>
      <trkpt lat="50.57864" lon="3.01004">
        <ele>8.2</ele>
        <time>2021-01-03T08:53:07Z</time>
      </trkpt>
      <trkpt lat="50.57863" lon="3.01017">
        <ele>9</ele>
        <time>2021-01-03T08:53:11Z</time>
      </trkpt>
      <trkpt lat="50.57852" lon="3.01015">
        <ele>9</ele>
        <time>2021-01-03T08:53:15Z</time>
      </trkpt>
      <trkpt lat="50.57839" lon="3.0101">
        <ele>9</ele>
        <time>2021-01-03T08:53:19Z</time>
      </trkpt>
      <trkpt lat="50.57827" lon="3.01013">
        <ele>9</ele>
        <time>2021-01-03T08:53:23Z</time>
      </trkpt>
      <trkpt lat="50.57823" lon="3.0102">
        <ele>9.6</ele>
        <time>2021-01-03T08:53:27Z</time>
      </trkpt>
      <trkpt lat="50.57818" lon="3.01025">
        <ele>9</ele>
        <time>2021-01-03T08:53:31Z</time>
      </trkpt>
      <trkpt lat="50.57807" lon="3.0103">
        <ele>9</ele>
        <time>2021-01-03T08:53:35Z</time>
      </trkpt>
      <trkpt lat="50.57793" lon="3.0105">
        <ele>9</ele>
        <time>2021-01-03T08:53:39Z</time>
      </trkpt>
      <trkpt lat="50.57779" lon="3.01069">
        <ele>8.4</ele>
        <time>2021-01-03T08:53:43Z</time>
      </trkpt>
      <trkpt lat="50.57764" lon="3.01086">
        <ele>9</ele>
        <time>2021-01-03T08:53:47Z</time>
      </trkpt>
      <trkpt lat="50.57747" lon="3.011">
        <ele>9</ele>
        <time>2021-01-03T08:53:51Z</time>
      </trkpt>
      <trkpt lat="50.5773" lon="3.01115">
        <ele>9.4</ele>
        <time>2021-01-03T08:53:55Z</time>
      </trkpt>
      <trkpt lat="50.57712" lon="3.01126">
        <ele>9.2</ele>
        <time>2021-01-03T08:53:59Z</time>
      </trkpt>
      <trkpt lat="50.57692" lon="3.01133">
        <ele>9.4</ele>
        <time>2021-01-03T08:54:03Z</time>
      </trkpt>
      <trkpt lat="50.57671" lon="3.0114">
        <ele>8.4</ele>
        <time>2021-01-03T08:54:07Z</time>
      </trkpt>
      <trkpt lat="50.57651" lon="3.01145">
        <ele>9.2</ele>
        <time>2021-01-03T08:54:11Z</time>
      </trkpt>
      <trkpt lat="50.57631" lon="3.01147">
        <ele>9</ele>
        <time>2021-01-03T08:54:15Z</time>
      </trkpt>
      <trkpt lat="50.5761" lon="3.01145">
        <ele>9</ele>
        <time>2021-01-03T08:54:19Z</time>
      </trkpt>
      <trkpt lat="50.5759" lon="3.01143">
        <ele>9.2</ele>
        <time>2021-01-03T08:54:23Z</time>
      </trkpt>
      <trkpt lat="50.57572" lon="3.01141">
        <ele>9.6</ele>
        <time>2021-01-03T08:54:27Z</time>
      </trkpt>
      <trkpt lat="50.57562" lon="3.01157">
        <ele>9.8</ele>
        <time>2021-01-03T08:54:31Z</time>
      </trkpt>
      <trkpt lat="50.57561" lon="3.01186">
        <ele>9</ele>
        <time>2021-01-03T08:54:35Z</time>
      </trkpt>
      <trkpt lat="50.5756" lon="3.01217">
        <ele>9.8</ele>
        <time>2021-01-03T08:54:39Z</time>
      </trkpt>
      <trkpt lat="50.57558" lon="3.01242">
        <ele>9.4</ele>
        <time>2021-01-03T08:54:43Z</time>
      </trkpt>
      <trkpt lat="50.57544" lon="3.01241">
        <ele>9.8</ele>
        <time>2021-01-03T08:54:47Z</time>
      </trkpt>
      <trkpt lat="50.57527" lon="3.01237">
        <ele>8.4</ele>
        <time>2021-01-03T08:54:51Z</time>
      </trkpt>
      <trkpt lat="50.5751" lon="3.01232">
        <ele>9</ele>
        <time>2021-01-03T08:54:55Z</time>
      </trkpt>
      <trkpt lat="50.57494" lon="3.01228">
        <ele>8.4</ele>
        <time>2021-01-03T08:54:59Z</time>
      </trkpt>
      <trkpt lat="50.57478" lon="3.01224">
        <ele>10</ele>
        <time>2021-01-03T08:55:03Z</time>
      </trkpt>
      <trkpt lat="50.57463" lon="3.01222">
        <ele>10</ele>
        <time>2021-01-03T08:55:07Z</time>
      </trkpt>
      <trkpt lat="50.57453" lon="3.01216">
        <ele>10.2</ele>
        <time>2021-01-03T08:55:11Z</time>
      </trkpt>
      <trkpt lat="50.57453" lon="3.01204">
        <ele>10.4</ele>
        <time>2021-01-03T08:55:15Z</time>
      </trkpt>
      <trkpt lat="50.57453" lon="3.01188">
        <ele>10.6</ele>
        <time>2021-01-03T08:55:19Z</time>
      </trkpt>
      <trkpt lat="50.57454" lon="3.01169">
        <ele>10.6</ele>
        <time>2021-01-03T08:55:23Z</time>
      </trkpt>
      <trkpt lat="50.57455" lon="3.01151">
        <ele>10.4</ele>
        <time>2021-01-03T08:55:27Z</time>
      </trkpt>
      <trkpt lat="50.57456" lon="3.01133">
        <ele>10.4</ele>
        <time>2021-01-03T08:55:31Z</time>
      </trkpt>
      <trkpt lat="50.57457" lon="3.01117">
        <ele>10.2</ele>
        <time>2021-01-03T08:55:35Z</time>
      </trkpt>
      <trkpt lat="50.57459" lon="3.01102">
        <ele>11.2</ele>
        <time>2021-01-03T08:55:39Z</time>
      </trkpt>
      <trkpt lat="50.5746" lon="3.01087">
        <ele>10.4</ele>
        <time>2021-01-03T08:55:43Z</time>
      </trkpt>
      <trkpt lat="50.57461" lon="3.01069">
        <ele>10.4</ele>
        <time>2021-01-03T08:55:47Z</time>
      </trkpt>
      <trkpt lat="50.57463" lon="3.0105">
        <ele>10.2</ele>
        <time>2021-01-03T08:55:51Z</time>
      </trkpt>
      <trkpt lat="50.57464" lon="3.0103">
        <ele>10.4</ele>
        <time>2021-01-03T08:55:55Z</time>
      </trkpt>
      <trkpt lat="50.57465" lon="3.0101">
        <ele>9.8</ele>
        <time>2021-01-03T08:55:59Z</time>
      </trkpt>
      <trkpt lat="50.57466" lon="3.0099">
        <ele>10.4</ele>
        <time>2021-01-03T08:56:03Z</time>
      </trkpt>
      <trkpt lat="50.57465" lon="3.00972">
        <ele>10.2</ele>
        <time>2021-01-03T08:56:07Z</time>
      </trkpt>
      <trkpt lat="50.57464" lon="3.00954">
        <ele>10.2</ele>
        <time>2021-01-03T08:56:11Z</time>
      </trkpt>
      <trkpt lat="50.57463" lon="3.00936">
        <ele>10.8</ele>
        <time>2021-01-03T08:56:15Z</time>
      </trkpt>
      <trkpt lat="50.57462" lon="3.00917">
        <ele>10.8</ele>
        <time>2021-01-03T08:56:19Z</time>
      </trkpt>
      <trkpt lat="50.57461" lon="3.00897">
        <ele>10.8</ele>
        <time>2021-01-03T08:56:23Z</time>
      </trkpt>
      <trkpt lat="50.57458" lon="3.00875">
        <ele>10.6</ele>
        <time>2021-01-03T08:56:27Z</time>
      </trkpt>
      <trkpt lat="50.57456" lon="3.00853">
        <ele>11</ele>
        <time>2021-01-03T08:56:31Z</time>
      </trkpt>
      <trkpt lat="50.57453" lon="3.00831">
        <ele>10.4</ele>
        <time>2021-01-03T08:56:35Z</time>
      </trkpt>
      <trkpt lat="50.5745" lon="3.00802">
        <ele>10.8</ele>
        <time>2021-01-03T08:56:39Z</time>
      </trkpt>
      <trkpt lat="50.57447" lon="3.00779">
        <ele>10.6</ele>
        <time>2021-01-03T08:56:43Z</time>
      </trkpt>
      <trkpt lat="50.57443" lon="3.00754">
        <ele>10.4</ele>
        <time>2021-01-03T08:56:47Z</time>
      </trkpt>
      <trkpt lat="50.5744" lon="3.00729">
        <ele>10.4</ele>
        <time>2021-01-03T08:56:51Z</time>
      </trkpt>
      <trkpt lat="50.57437" lon="3.00703">
        <ele>10.8</ele>
        <time>2021-01-03T08:56:55Z</time>
      </trkpt>
      <trkpt lat="50.57434" lon="3.00678">
        <ele>11.4</ele>
        <time>2021-01-03T08:56:59Z</time>
      </trkpt>
      <trkpt lat="50.5743" lon="3.00652">
        <ele>10.4</ele>
        <time>2021-01-03T08:57:03Z</time>
      </trkpt>
      <trkpt lat="50.57428" lon="3.00627">
        <ele>11.8</ele>
        <time>2021-01-03T08:57:07Z</time>
      </trkpt>
      <trkpt lat="50.57426" lon="3.00602">
        <ele>11.2</ele>
        <time>2021-01-03T08:57:11Z</time>
      </trkpt>
      <trkpt lat="50.57425" lon="3.00579">
        <ele>11.8</ele>
        <time>2021-01-03T08:57:15Z</time>
      </trkpt>
      <trkpt lat="50.57424" lon="3.00555">
        <ele>10.6</ele>
        <time>2021-01-03T08:57:19Z</time>
      </trkpt>
      <trkpt lat="50.57422" lon="3.00531">
        <ele>11</ele>
        <time>2021-01-03T08:57:23Z</time>
      </trkpt>
      <trkpt lat="50.57421" lon="3.00508">
        <ele>10.8</ele>
        <time>2021-01-03T08:57:27Z</time>
      </trkpt>
      <trkpt lat="50.57418" lon="3.00487">
        <ele>10.2</ele>
        <time>2021-01-03T08:57:31Z</time>
      </trkpt>
      <trkpt lat="50.5742" lon="3.00468">
        <ele>10.4</ele>
        <time>2021-01-03T08:57:35Z</time>
      </trkpt>
      <trkpt lat="50.57417" lon="3.00453">
        <ele>10.8</ele>
        <time>2021-01-03T08:57:39Z</time>
      </trkpt>
      <trkpt lat="50.57417" lon="3.00435">
        <ele>10.8</ele>
        <time>2021-01-03T08:57:43Z</time>
      </trkpt>
      <trkpt lat="50.57416" lon="3.00414">
        <ele>11</ele>
        <time>2021-01-03T08:57:47Z</time>
      </trkpt>
      <trkpt lat="50.57416" lon="3.00391">
        <ele>10.6</ele>
        <time>2021-01-03T08:57:51Z</time>
      </trkpt>
      <trkpt lat="50.57415" lon="3.00367">
        <ele>10.8</ele>
        <time>2021-01-03T08:57:55Z</time>
      </trkpt>
      <trkpt lat="50.57415" lon="3.00342">
        <ele>10.6</ele>
        <time>2021-01-03T08:57:59Z</time>
      </trkpt>
      <trkpt lat="50.57414" lon="3.00317">
        <ele>10</ele>
        <time>2021-01-03T08:58:03Z</time>
      </trkpt>
      <trkpt lat="50.57412" lon="3.00294">
        <ele>11</ele>
        <time>2021-01-03T08:58:07Z</time>
      </trkpt>
      <trkpt lat="50.57404" lon="3.00287">
        <ele>10.6</ele>
        <time>2021-01-03T08:58:11Z</time>
      </trkpt>
      <trkpt lat="50.57395" lon="3.00282">
        <ele>11</ele>
        <time>2021-01-03T08:58:15Z</time>
      </trkpt>
      <trkpt lat="50.57384" lon="3.00276">
        <ele>11</ele>
        <time>2021-01-03T08:58:19Z</time>
      </trkpt>
      <trkpt lat="50.57374" lon="3.00266">
        <ele>10.2</ele>
        <time>2021-01-03T08:58:23Z</time>
      </trkpt>
      <trkpt lat="50.57361" lon="3.00256">
        <ele>10.4</ele>
        <time>2021-01-03T08:58:27Z</time>
      </trkpt>
      <trkpt lat="50.57349" lon="3.00244">
        <ele>10.4</ele>
        <time>2021-01-03T08:58:31Z</time>
      </trkpt>
      <trkpt lat="50.57336" lon="3.00231">
        <ele>10.8</ele>
        <time>2021-01-03T08:58:35Z</time>
      </trkpt>
      <trkpt lat="50.57323" lon="3.00219">
        <ele>12.2</ele>
        <time>2021-01-03T08:58:39Z</time>
      </trkpt>
      <trkpt lat="50.5731" lon="3.00207">
        <ele>11.2</ele>
        <time>2021-01-03T08:58:43Z</time>
      </trkpt>
      <trkpt lat="50.57297" lon="3.00195">
        <ele>11.8</ele>
        <time>2021-01-03T08:58:47Z</time>
      </trkpt>
      <trkpt lat="50.57284" lon="3.00183">
        <ele>11</ele>
        <time>2021-01-03T08:58:51Z</time>
      </trkpt>
      <trkpt lat="50.57272" lon="3.00171">
        <ele>11.8</ele>
        <time>2021-01-03T08:58:55Z</time>
      </trkpt>
      <trkpt lat="50.57258" lon="3.00158">
        <ele>11</ele>
        <time>2021-01-03T08:58:59Z</time>
      </trkpt>
      <trkpt lat="50.57245" lon="3.00146">
        <ele>12.2</ele>
        <time>2021-01-03T08:59:03Z</time>
      </trkpt>
      <trkpt lat="50.57232" lon="3.00134">
        <ele>12</ele>
        <time>2021-01-03T08:59:07Z</time>
      </trkpt>
      <trkpt lat="50.5722" lon="3.00123">
        <ele>12</ele>
        <time>2021-01-03T08:59:11Z</time>
      </trkpt>
      <trkpt lat="50.57208" lon="3.00112">
        <ele>12</ele>
        <time>2021-01-03T08:59:15Z</time>
      </trkpt>
      <trkpt lat="50.57196" lon="3.00101">
        <ele>12</ele>
        <time>2021-01-03T08:59:19Z</time>
      </trkpt>
      <trkpt lat="50.57185" lon="3.0009">
        <ele>12.8</ele>
        <time>2021-01-03T08:59:23Z</time>
      </trkpt>
      <trkpt lat="50.57173" lon="3.00079">
        <ele>12.4</ele>
        <time>2021-01-03T08:59:27Z</time>
      </trkpt>
      <trkpt lat="50.57161" lon="3.00068">
        <ele>12.8</ele>
        <time>2021-01-03T08:59:31Z</time>
      </trkpt>
      <trkpt lat="50.5715" lon="3.00056">
        <ele>13</ele>
        <time>2021-01-03T08:59:35Z</time>
      </trkpt>
      <trkpt lat="50.57139" lon="3.00044">
        <ele>14</ele>
        <time>2021-01-03T08:59:39Z</time>
      </trkpt>
      <trkpt lat="50.57127" lon="3.00033">
        <ele>14.2</ele>
        <time>2021-01-03T08:59:43Z</time>
      </trkpt>
      <trkpt lat="50.57116" lon="3.00021">
        <ele>14</ele>
        <time>2021-01-03T08:59:47Z</time>
      </trkpt>
      <trkpt lat="50.57104" lon="3.0001">
        <ele>13.8</ele>
        <time>2021-01-03T08:59:51Z</time>
      </trkpt>
      <trkpt lat="50.57092" lon="2.99999">
        <ele>14.4</ele>
        <time>2021-01-03T08:59:55Z</time>
      </trkpt>
      <trkpt lat="50.5708" lon="2.99988">
        <ele>14</ele>
        <time>2021-01-03T08:59:59Z</time>
      </trkpt>
      <trkpt lat="50.5707" lon="2.99974">
        <ele>15</ele>
        <time>2021-01-03T09:00:03Z</time>
      </trkpt>
      <trkpt lat="50.5706" lon="2.9996">
        <ele>14.2</ele>
        <time>2021-01-03T09:00:07Z</time>
      </trkpt>
      <trkpt lat="50.5705" lon="2.99944">
        <ele>15</ele>
        <time>2021-01-03T09:00:11Z</time>
      </trkpt>
      <trkpt lat="50.57042" lon="2.99928">
        <ele>14.6</ele>
        <time>2021-01-03T09:00:15Z</time>
      </trkpt>
      <trkpt lat="50.57033" lon="2.99912">
        <ele>13.8</ele>
        <time>2021-01-03T09:00:19Z</time>
      </trkpt>
      <trkpt lat="50.57026" lon="2.99896">
        <ele>14.8</ele>
        <time>2021-01-03T09:00:23Z</time>
      </trkpt>
      <trkpt lat="50.57018" lon="2.99882">
        <ele>14.2</ele>
        <time>2021-01-03T09:00:27Z</time>
      </trkpt>
      <trkpt lat="50.5701" lon="2.99866">
        <ele>14.2</ele>
        <time>2021-01-03T09:00:31Z</time>
      </trkpt>
      <trkpt lat="50.57001" lon="2.9985">
        <ele>15.2</ele>
        <time>2021-01-03T09:00:35Z</time>
      </trkpt>
      <trkpt lat="50.56993" lon="2.99835">
        <ele>14.8</ele>
        <time>2021-01-03T09:00:39Z</time>
      </trkpt>
      <trkpt lat="50.56987" lon="2.99824">
        <ele>15.8</ele>
        <time>2021-01-03T09:00:43Z</time>
      </trkpt>
      <trkpt lat="50.56982" lon="2.99817">
        <ele>15.4</ele>
        <time>2021-01-03T09:00:47Z</time>
      </trkpt>
      <trkpt lat="50.56982" lon="2.99817">
        <ele>15.2</ele>
        <time>2021-01-03T09:00:51Z</time>
      </trkpt>
      <trkpt lat="50.5699" lon="2.99805">
        <ele>14.8</ele>
        <time>2021-01-03T09:02:49Z</time>
      </trkpt>
      <trkpt lat="50.57002" lon="2.99799">
        <ele>14.4</ele>
        <time>2021-01-03T09:02:53Z</time>
      </trkpt>
      <trkpt lat="50.57018" lon="2.99799">
        <ele>14.4</ele>
        <time>2021-01-03T09:02:57Z</time>
      </trkpt>
      <trkpt lat="50.57035" lon="2.99799">
        <ele>14.4</ele>
        <time>2021-01-03T09:03:01Z</time>
      </trkpt>
      <trkpt lat="50.57055" lon="2.99794">
        <ele>14.2</ele>
        <time>2021-01-03T09:03:05Z</time>
      </trkpt>
      <trkpt lat="50.57077" lon="2.99783">
        <ele>13.2</ele>
        <time>2021-01-03T09:03:09Z</time>
      </trkpt>
      <trkpt lat="50.57101" lon="2.99778">
        <ele>13.8</ele>
        <time>2021-01-03T09:03:13Z</time>
      </trkpt>
      <trkpt lat="50.57126" lon="2.99775">
        <ele>12.8</ele>
        <time>2021-01-03T09:03:17Z</time>
      </trkpt>
      <trkpt lat="50.5715" lon="2.99769">
        <ele>13</ele>
        <time>2021-01-03T09:03:21Z</time>
      </trkpt>
      <trkpt lat="50.57174" lon="2.99764">
        <ele>12.6</ele>
        <time>2021-01-03T09:03:25Z</time>
      </trkpt>
      <trkpt lat="50.57197" lon="2.99757">
        <ele>12.2</ele>
        <time>2021-01-03T09:03:29Z</time>
      </trkpt>
      <trkpt lat="50.57221" lon="2.99746">
        <ele>12.2</ele>
        <time>2021-01-03T09:03:33Z</time>
      </trkpt>
      <trkpt lat="50.57243" lon="2.9973">
        <ele>12</ele>
        <time>2021-01-03T09:03:37Z</time>
      </trkpt>
      <trkpt lat="50.57264" lon="2.9971">
        <ele>11.4</ele>
        <time>2021-01-03T09:03:41Z</time>
      </trkpt>
      <trkpt lat="50.57286" lon="2.99689">
        <ele>10.8</ele>
        <time>2021-01-03T09:03:45Z</time>
      </trkpt>
      <trkpt lat="50.57307" lon="2.99667">
        <ele>10.4</ele>
        <time>2021-01-03T09:03:49Z</time>
      </trkpt>
      <trkpt lat="50.57325" lon="2.99638">
        <ele>10</ele>
        <time>2021-01-03T09:03:53Z</time>
      </trkpt>
      <trkpt lat="50.57341" lon="2.99607">
        <ele>9.6</ele>
        <time>2021-01-03T09:03:57Z</time>
      </trkpt>
      <trkpt lat="50.57355" lon="2.99573">
        <ele>9.4</ele>
        <time>2021-01-03T09:04:01Z</time>
      </trkpt>
      <trkpt lat="50.57367" lon="2.99541">
        <ele>9.2</ele>
        <time>2021-01-03T09:04:05Z</time>
      </trkpt>
      <trkpt lat="50.57376" lon="2.99518">
        <ele>9.4</ele>
        <time>2021-01-03T09:04:09Z</time>
      </trkpt>
      <trkpt lat="50.57379" lon="2.99501">
        <ele>9.6</ele>
        <time>2021-01-03T09:04:13Z</time>
      </trkpt>
      <trkpt lat="50.5737" lon="2.99481">
        <ele>9.6</ele>
        <time>2021-01-03T09:04:17Z</time>
      </trkpt>
      <trkpt lat="50.57357" lon="2.99458">
        <ele>9.4</ele>
        <time>2021-01-03T09:04:21Z</time>
      </trkpt>
      <trkpt lat="50.57344" lon="2.99432">
        <ele>10</ele>
        <time>2021-01-03T09:04:25Z</time>
      </trkpt>
      <trkpt lat="50.57329" lon="2.99407">
        <ele>10</ele>
        <time>2021-01-03T09:04:29Z</time>
      </trkpt>
      <trkpt lat="50.57314" lon="2.99388">
        <ele>10</ele>
        <time>2021-01-03T09:04:33Z</time>
      </trkpt>
      <trkpt lat="50.57299" lon="2.99378">
        <ele>10.6</ele>
        <time>2021-01-03T09:04:37Z</time>
      </trkpt>
      <trkpt lat="50.57285" lon="2.99387">
        <ele>10</ele>
        <time>2021-01-03T09:04:41Z</time>
      </trkpt>
      <trkpt lat="50.5727" lon="2.99408">
        <ele>10.2</ele>
        <time>2021-01-03T09:04:45Z</time>
      </trkpt>
      <trkpt lat="50.57255" lon="2.9943">
        <ele>11</ele>
        <time>2021-01-03T09:04:49Z</time>
      </trkpt>
      <trkpt lat="50.57239" lon="2.99453">
        <ele>10.4</ele>
        <time>2021-01-03T09:04:53Z</time>
      </trkpt>
      <trkpt lat="50.57224" lon="2.99474">
        <ele>10.4</ele>
        <time>2021-01-03T09:04:57Z</time>
      </trkpt>
      <trkpt lat="50.5721" lon="2.99495">
        <ele>11.8</ele>
        <time>2021-01-03T09:05:01Z</time>
      </trkpt>
      <trkpt lat="50.572" lon="2.99508">
        <ele>11.8</ele>
        <time>2021-01-03T09:05:05Z</time>
      </trkpt>
      <trkpt lat="50.57191" lon="2.99498">
        <ele>12</ele>
        <time>2021-01-03T09:05:09Z</time>
      </trkpt>
      <trkpt lat="50.57183" lon="2.99478">
        <ele>12.2</ele>
        <time>2021-01-03T09:05:13Z</time>
      </trkpt>
      <trkpt lat="50.57171" lon="2.99455">
        <ele>11.8</ele>
        <time>2021-01-03T09:05:17Z</time>
      </trkpt>
      <trkpt lat="50.57158" lon="2.99432">
        <ele>12.2</ele>
        <time>2021-01-03T09:05:21Z</time>
      </trkpt>
      <trkpt lat="50.57149" lon="2.99411">
        <ele>12</ele>
        <time>2021-01-03T09:05:25Z</time>
      </trkpt>
      <trkpt lat="50.57137" lon="2.99387">
        <ele>12.6</ele>
        <time>2021-01-03T09:05:29Z</time>
      </trkpt>
      <trkpt lat="50.57125" lon="2.99364">
        <ele>12.6</ele>
        <time>2021-01-03T09:05:33Z</time>
      </trkpt>
      <trkpt lat="50.57114" lon="2.99341">
        <ele>12.4</ele>
        <time>2021-01-03T09:05:37Z</time>
      </trkpt>
      <trkpt lat="50.57103" lon="2.99316">
        <ele>12.4</ele>
        <time>2021-01-03T09:05:41Z</time>
      </trkpt>
      <trkpt lat="50.57093" lon="2.9929">
        <ele>12.6</ele>
        <time>2021-01-03T09:05:45Z</time>
      </trkpt>
      <trkpt lat="50.57083" lon="2.99266">
        <ele>12</ele>
        <time>2021-01-03T09:05:49Z</time>
      </trkpt>
      <trkpt lat="50.57073" lon="2.99241">
        <ele>12</ele>
        <time>2021-01-03T09:05:53Z</time>
      </trkpt>
      <trkpt lat="50.57062" lon="2.99218">
        <ele>11.4</ele>
        <time>2021-01-03T09:05:57Z</time>
      </trkpt>
      <trkpt lat="50.5705" lon="2.99194">
        <ele>12.4</ele>
        <time>2021-01-03T09:06:01Z</time>
      </trkpt>
      <trkpt lat="50.57037" lon="2.9917">
        <ele>11.6</ele>
        <time>2021-01-03T09:06:05Z</time>
      </trkpt>
      <trkpt lat="50.57023" lon="2.99144">
        <ele>11.6</ele>
        <time>2021-01-03T09:06:09Z</time>
      </trkpt>
      <trkpt lat="50.5701" lon="2.99118">
        <ele>11</ele>
        <time>2021-01-03T09:06:13Z</time>
      </trkpt>
      <trkpt lat="50.56996" lon="2.99092">
        <ele>11.4</ele>
        <time>2021-01-03T09:06:17Z</time>
      </trkpt>
      <trkpt lat="50.56983" lon="2.9907">
        <ele>11.4</ele>
        <time>2021-01-03T09:06:21Z</time>
      </trkpt>
      <trkpt lat="50.56972" lon="2.99048">
        <ele>12</ele>
        <time>2021-01-03T09:06:25Z</time>
      </trkpt>
      <trkpt lat="50.56961" lon="2.99025">
        <ele>12</ele>
        <time>2021-01-03T09:06:29Z</time>
      </trkpt>
      <trkpt lat="50.56948" lon="2.99001">
        <ele>11.2</ele>
        <time>2021-01-03T09:06:33Z</time>
      </trkpt>
      <trkpt lat="50.56936" lon="2.98979">
        <ele>9.4</ele>
        <time>2021-01-03T09:06:37Z</time>
      </trkpt>
      <trkpt lat="50.56924" lon="2.98956">
        <ele>11</ele>
        <time>2021-01-03T09:06:41Z</time>
      </trkpt>
      <trkpt lat="50.56912" lon="2.98932">
        <ele>10.8</ele>
        <time>2021-01-03T09:06:45Z</time>
      </trkpt>
      <trkpt lat="50.56899" lon="2.98909">
        <ele>10.4</ele>
        <time>2021-01-03T09:06:49Z</time>
      </trkpt>
      <trkpt lat="50.56885" lon="2.98886">
        <ele>9.6</ele>
        <time>2021-01-03T09:06:53Z</time>
      </trkpt>
      <trkpt lat="50.56873" lon="2.98862">
        <ele>9.8</ele>
        <time>2021-01-03T09:06:57Z</time>
      </trkpt>
      <trkpt lat="50.5686" lon="2.98838">
        <ele>9.4</ele>
        <time>2021-01-03T09:07:01Z</time>
      </trkpt>
      <trkpt lat="50.56848" lon="2.98815">
        <ele>9</ele>
        <time>2021-01-03T09:07:05Z</time>
      </trkpt>
      <trkpt lat="50.56835" lon="2.9879">
        <ele>9.4</ele>
        <time>2021-01-03T09:07:09Z</time>
      </trkpt>
      <trkpt lat="50.56823" lon="2.98767">
        <ele>9</ele>
        <time>2021-01-03T09:07:13Z</time>
      </trkpt>
      <trkpt lat="50.56811" lon="2.98742">
        <ele>8.4</ele>
        <time>2021-01-03T09:07:17Z</time>
      </trkpt>
      <trkpt lat="50.56798" lon="2.98716">
        <ele>8.4</ele>
        <time>2021-01-03T09:07:21Z</time>
      </trkpt>
      <trkpt lat="50.56786" lon="2.98692">
        <ele>8.4</ele>
        <time>2021-01-03T09:07:25Z</time>
      </trkpt>
      <trkpt lat="50.5678" lon="2.98677">
        <ele>8</ele>
        <time>2021-01-03T09:07:29Z</time>
      </trkpt>
      <trkpt lat="50.56788" lon="2.98662">
        <ele>7.8</ele>
        <time>2021-01-03T09:07:33Z</time>
      </trkpt>
      <trkpt lat="50.56798" lon="2.98644">
        <ele>7.8</ele>
        <time>2021-01-03T09:07:37Z</time>
      </trkpt>
      <trkpt lat="50.56809" lon="2.98624">
        <ele>7.4</ele>
        <time>2021-01-03T09:07:41Z</time>
      </trkpt>
      <trkpt lat="50.5681" lon="2.98601">
        <ele>7.6</ele>
        <time>2021-01-03T09:07:45Z</time>
      </trkpt>
      <trkpt lat="50.56799" lon="2.98585">
        <ele>7</ele>
        <time>2021-01-03T09:07:49Z</time>
      </trkpt>
      <trkpt lat="50.56787" lon="2.98568">
        <ele>7.6</ele>
        <time>2021-01-03T09:07:53Z</time>
      </trkpt>
      <trkpt lat="50.56774" lon="2.9855">
        <ele>7.6</ele>
        <time>2021-01-03T09:07:57Z</time>
      </trkpt>
      <trkpt lat="50.56761" lon="2.98532">
        <ele>6.8</ele>
        <time>2021-01-03T09:08:01Z</time>
      </trkpt>
      <trkpt lat="50.56748" lon="2.98515">
        <ele>7.2</ele>
        <time>2021-01-03T09:08:05Z</time>
      </trkpt>
      <trkpt lat="50.56736" lon="2.98498">
        <ele>7</ele>
        <time>2021-01-03T09:08:09Z</time>
      </trkpt>
      <trkpt lat="50.56724" lon="2.98481">
        <ele>6.6</ele>
        <time>2021-01-03T09:08:13Z</time>
      </trkpt>
      <trkpt lat="50.5671" lon="2.98463">
        <ele>6.8</ele>
        <time>2021-01-03T09:08:17Z</time>
      </trkpt>
      <trkpt lat="50.56697" lon="2.98444">
        <ele>6</ele>
        <time>2021-01-03T09:08:21Z</time>
      </trkpt>
      <trkpt lat="50.56684" lon="2.98425">
        <ele>6.4</ele>
        <time>2021-01-03T09:08:25Z</time>
      </trkpt>
      <trkpt lat="50.56677" lon="2.98402">
        <ele>6.4</ele>
        <time>2021-01-03T09:08:29Z</time>
      </trkpt>
      <trkpt lat="50.56677" lon="2.98375">
        <ele>6.8</ele>
        <time>2021-01-03T09:08:33Z</time>
      </trkpt>
      <trkpt lat="50.5668" lon="2.98347">
        <ele>7</ele>
        <time>2021-01-03T09:08:37Z</time>
      </trkpt>
      <trkpt lat="50.56683" lon="2.98319">
        <ele>7</ele>
        <time>2021-01-03T09:08:41Z</time>
      </trkpt>
      <trkpt lat="50.56686" lon="2.98289">
        <ele>7</ele>
        <time>2021-01-03T09:08:45Z</time>
      </trkpt>
      <trkpt lat="50.56689" lon="2.9826">
        <ele>7</ele>
        <time>2021-01-03T09:08:49Z</time>
      </trkpt>
      <trkpt lat="50.56692" lon="2.98234">
        <ele>7</ele>
        <time>2021-01-03T09:08:53Z</time>
      </trkpt>
      <trkpt lat="50.56696" lon="2.98209">
        <ele>6.8</ele>
        <time>2021-01-03T09:08:57Z</time>
      </trkpt>
      <trkpt lat="50.56701" lon="2.98186">
        <ele>7.4</ele>
        <time>2021-01-03T09:09:01Z</time>
      </trkpt>
      <trkpt lat="50.56708" lon="2.98165">
        <ele>7.4</ele>
        <time>2021-01-03T09:09:05Z</time>
      </trkpt>
      <trkpt lat="50.56718" lon="2.98147">
        <ele>7.4</ele>
        <time>2021-01-03T09:09:09Z</time>
      </trkpt>
      <trkpt lat="50.56726" lon="2.9813">
        <ele>7.6</ele>
        <time>2021-01-03T09:09:13Z</time>
      </trkpt>
      <trkpt lat="50.56735" lon="2.98113">
        <ele>7</ele>
        <time>2021-01-03T09:09:17Z</time>
      </trkpt>
      <trkpt lat="50.56745" lon="2.98096">
        <ele>6.8</ele>
        <time>2021-01-03T09:09:21Z</time>
      </trkpt>
      <trkpt lat="50.56755" lon="2.98082">
        <ele>7.2</ele>
        <time>2021-01-03T09:09:25Z</time>
      </trkpt>
      <trkpt lat="50.56765" lon="2.98071">
        <ele>7</ele>
        <time>2021-01-03T09:09:29Z</time>
      </trkpt>
      <trkpt lat="50.56774" lon="2.98064">
        <ele>7.2</ele>
        <time>2021-01-03T09:09:33Z</time>
      </trkpt>
      <trkpt lat="50.56788" lon="2.98054">
        <ele>6.2</ele>
        <time>2021-01-03T09:09:37Z</time>
      </trkpt>
      <trkpt lat="50.56803" lon="2.98044">
        <ele>5.8</ele>
        <time>2021-01-03T09:09:41Z</time>
      </trkpt>
      <trkpt lat="50.56821" lon="2.98031">
        <ele>6.6</ele>
        <time>2021-01-03T09:09:45Z</time>
      </trkpt>
      <trkpt lat="50.56834" lon="2.98013">
        <ele>6.6</ele>
        <time>2021-01-03T09:09:49Z</time>
      </trkpt>
      <trkpt lat="50.56845" lon="2.97995">
        <ele>6.6</ele>
        <time>2021-01-03T09:09:53Z</time>
      </trkpt>
      <trkpt lat="50.56854" lon="2.97977">
        <ele>6.4</ele>
        <time>2021-01-03T09:09:57Z</time>
      </trkpt>
      <trkpt lat="50.56863" lon="2.97961">
        <ele>6.8</ele>
        <time>2021-01-03T09:10:01Z</time>
      </trkpt>
      <trkpt lat="50.5687" lon="2.97944">
        <ele>6.6</ele>
        <time>2021-01-03T09:10:05Z</time>
      </trkpt>
      <trkpt lat="50.56878" lon="2.97928">
        <ele>7</ele>
        <time>2021-01-03T09:10:09Z</time>
      </trkpt>
      <trkpt lat="50.56886" lon="2.97911">
        <ele>6.2</ele>
        <time>2021-01-03T09:10:13Z</time>
      </trkpt>
      <trkpt lat="50.56894" lon="2.97895">
        <ele>6.8</ele>
        <time>2021-01-03T09:10:17Z</time>
      </trkpt>
      <trkpt lat="50.56902" lon="2.97879">
        <ele>6.4</ele>
        <time>2021-01-03T09:10:21Z</time>
      </trkpt>
      <trkpt lat="50.5691" lon="2.97863">
        <ele>6.2</ele>
        <time>2021-01-03T09:10:25Z</time>
      </trkpt>
      <trkpt lat="50.56918" lon="2.97847">
        <ele>7</ele>
        <time>2021-01-03T09:10:29Z</time>
      </trkpt>
      <trkpt lat="50.56927" lon="2.97829">
        <ele>6</ele>
        <time>2021-01-03T09:10:33Z</time>
      </trkpt>
      <trkpt lat="50.56936" lon="2.97811">
        <ele>6</ele>
        <time>2021-01-03T09:10:37Z</time>
      </trkpt>
      <trkpt lat="50.56945" lon="2.97793">
        <ele>5.6</ele>
        <time>2021-01-03T09:10:41Z</time>
      </trkpt>
      <trkpt lat="50.56954" lon="2.97776">
        <ele>6</ele>
        <time>2021-01-03T09:10:45Z</time>
      </trkpt>
      <trkpt lat="50.56964" lon="2.97763">
        <ele>5.8</ele>
        <time>2021-01-03T09:10:49Z</time>
      </trkpt>
      <trkpt lat="50.56973" lon="2.97766">
        <ele>6</ele>
        <time>2021-01-03T09:10:53Z</time>
      </trkpt>
      <trkpt lat="50.56976" lon="2.97785">
        <ele>5.6</ele>
        <time>2021-01-03T09:10:57Z</time>
      </trkpt>
      <trkpt lat="50.56978" lon="2.97809">
        <ele>5.6</ele>
        <time>2021-01-03T09:11:01Z</time>
      </trkpt>
      <trkpt lat="50.56982" lon="2.97831">
        <ele>5.4</ele>
        <time>2021-01-03T09:11:05Z</time>
      </trkpt>
      <trkpt lat="50.56985" lon="2.97851">
        <ele>5.6</ele>
        <time>2021-01-03T09:11:09Z</time>
      </trkpt>
      <trkpt lat="50.5699" lon="2.97869">
        <ele>5.6</ele>
        <time>2021-01-03T09:11:13Z</time>
      </trkpt>
      <trkpt lat="50.56997" lon="2.97889">
        <ele>6</ele>
        <time>2021-01-03T09:11:17Z</time>
      </trkpt>
      <trkpt lat="50.57004" lon="2.97908">
        <ele>6</ele>
        <time>2021-01-03T09:11:21Z</time>
      </trkpt>
      <trkpt lat="50.57014" lon="2.97923">
        <ele>6</ele>
        <time>2021-01-03T09:11:25Z</time>
      </trkpt>
      <trkpt lat="50.57025" lon="2.9794">
        <ele>5.8</ele>
        <time>2021-01-03T09:11:29Z</time>
      </trkpt>
      <trkpt lat="50.57038" lon="2.97957">
        <ele>5.4</ele>
        <time>2021-01-03T09:11:33Z</time>
      </trkpt>
      <trkpt lat="50.5705" lon="2.97975">
        <ele>5.6</ele>
        <time>2021-01-03T09:11:37Z</time>
      </trkpt>
      <trkpt lat="50.5706" lon="2.9799">
        <ele>6.2</ele>
        <time>2021-01-03T09:11:41Z</time>
      </trkpt>
      <trkpt lat="50.57071" lon="2.98004">
        <ele>6.2</ele>
        <time>2021-01-03T09:11:45Z</time>
      </trkpt>
      <trkpt lat="50.57081" lon="2.98019">
        <ele>6.4</ele>
        <time>2021-01-03T09:11:49Z</time>
      </trkpt>
      <trkpt lat="50.57091" lon="2.98035">
        <ele>6.2</ele>
        <time>2021-01-03T09:11:53Z</time>
      </trkpt>
      <trkpt lat="50.57102" lon="2.98052">
        <ele>6.6</ele>
        <time>2021-01-03T09:11:57Z</time>
      </trkpt>
      <trkpt lat="50.57114" lon="2.98069">
        <ele>6.6</ele>
        <time>2021-01-03T09:12:01Z</time>
      </trkpt>
      <trkpt lat="50.57125" lon="2.98087">
        <ele>6.8</ele>
        <time>2021-01-03T09:12:05Z</time>
      </trkpt>
      <trkpt lat="50.57135" lon="2.98102">
        <ele>7</ele>
        <time>2021-01-03T09:12:09Z</time>
      </trkpt>
      <trkpt lat="50.57145" lon="2.98119">
        <ele>7</ele>
        <time>2021-01-03T09:12:13Z</time>
      </trkpt>
      <trkpt lat="50.57156" lon="2.98133">
        <ele>7.2</ele>
        <time>2021-01-03T09:12:17Z</time>
      </trkpt>
      <trkpt lat="50.57167" lon="2.98149">
        <ele>7</ele>
        <time>2021-01-03T09:12:21Z</time>
      </trkpt>
      <trkpt lat="50.57177" lon="2.98165">
        <ele>6.8</ele>
        <time>2021-01-03T09:12:25Z</time>
      </trkpt>
      <trkpt lat="50.57188" lon="2.9818">
        <ele>6.8</ele>
        <time>2021-01-03T09:12:29Z</time>
      </trkpt>
      <trkpt lat="50.57199" lon="2.98198">
        <ele>7</ele>
        <time>2021-01-03T09:12:33Z</time>
      </trkpt>
      <trkpt lat="50.57207" lon="2.98212">
        <ele>7.2</ele>
        <time>2021-01-03T09:12:37Z</time>
      </trkpt>
      <trkpt lat="50.57213" lon="2.98217">
        <ele>7.4</ele>
        <time>2021-01-03T09:12:41Z</time>
      </trkpt>
      <trkpt lat="50.57221" lon="2.98201">
        <ele>7</ele>
        <time>2021-01-03T09:13:43Z</time>
      </trkpt>
      <trkpt lat="50.5723" lon="2.98192">
        <ele>5.6</ele>
        <time>2021-01-03T09:13:47Z</time>
      </trkpt>
      <trkpt lat="50.57242" lon="2.982">
        <ele>6</ele>
        <time>2021-01-03T09:13:51Z</time>
      </trkpt>
      <trkpt lat="50.57252" lon="2.98221">
        <ele>5.6</ele>
        <time>2021-01-03T09:13:55Z</time>
      </trkpt>
      <trkpt lat="50.57263" lon="2.98244">
        <ele>5.8</ele>
        <time>2021-01-03T09:13:59Z</time>
      </trkpt>
      <trkpt lat="50.57273" lon="2.98265">
        <ele>6</ele>
        <time>2021-01-03T09:14:03Z</time>
      </trkpt>
      <trkpt lat="50.57285" lon="2.98285">
        <ele>5.6</ele>
        <time>2021-01-03T09:14:07Z</time>
      </trkpt>
      <trkpt lat="50.573" lon="2.98307">
        <ele>6.2</ele>
        <time>2021-01-03T09:14:11Z</time>
      </trkpt>
      <trkpt lat="50.5731" lon="2.98309">
        <ele>6.4</ele>
        <time>2021-01-03T09:14:15Z</time>
      </trkpt>
      <trkpt lat="50.57314" lon="2.98312">
        <ele>6.4</ele>
        <time>2021-01-03T09:14:19Z</time>
      </trkpt>
      <trkpt lat="50.57317" lon="2.98312">
        <ele>6.6</ele>
        <time>2021-01-03T09:14:23Z</time>
      </trkpt>
      <trkpt lat="50.57325" lon="2.98313">
        <ele>6</ele>
        <time>2021-01-03T09:14:27Z</time>
      </trkpt>
      <trkpt lat="50.57337" lon="2.98318">
        <ele>5.8</ele>
        <time>2021-01-03T09:14:31Z</time>
      </trkpt>
      <trkpt lat="50.57351" lon="2.98326">
        <ele>5.8</ele>
        <time>2021-01-03T09:14:35Z</time>
      </trkpt>
      <trkpt lat="50.57366" lon="2.98338">
        <ele>5.6</ele>
        <time>2021-01-03T09:14:39Z</time>
      </trkpt>
      <trkpt lat="50.57382" lon="2.98351">
        <ele>5.4</ele>
        <time>2021-01-03T09:14:43Z</time>
      </trkpt>
      <trkpt lat="50.57399" lon="2.98365">
        <ele>6.4</ele>
        <time>2021-01-03T09:14:47Z</time>
      </trkpt>
      <trkpt lat="50.57414" lon="2.98378">
        <ele>5.4</ele>
        <time>2021-01-03T09:14:51Z</time>
      </trkpt>
      <trkpt lat="50.57427" lon="2.98395">
        <ele>4.8</ele>
        <time>2021-01-03T09:14:55Z</time>
      </trkpt>
      <trkpt lat="50.5743" lon="2.98424">
        <ele>4.6</ele>
        <time>2021-01-03T09:14:59Z</time>
      </trkpt>
      <trkpt lat="50.57435" lon="2.98454">
        <ele>4</ele>
        <time>2021-01-03T09:15:03Z</time>
      </trkpt>
      <trkpt lat="50.57447" lon="2.98477">
        <ele>4.6</ele>
        <time>2021-01-03T09:15:07Z</time>
      </trkpt>
      <trkpt lat="50.57458" lon="2.98498">
        <ele>4.8</ele>
        <time>2021-01-03T09:15:11Z</time>
      </trkpt>
      <trkpt lat="50.5747" lon="2.98513">
        <ele>4.4</ele>
        <time>2021-01-03T09:15:15Z</time>
      </trkpt>
      <trkpt lat="50.57488" lon="2.98512">
        <ele>4.6</ele>
        <time>2021-01-03T09:15:19Z</time>
      </trkpt>
      <trkpt lat="50.57503" lon="2.98529">
        <ele>4.8</ele>
        <time>2021-01-03T09:15:23Z</time>
      </trkpt>
      <trkpt lat="50.57513" lon="2.98552">
        <ele>4.6</ele>
        <time>2021-01-03T09:15:27Z</time>
      </trkpt>
      <trkpt lat="50.57524" lon="2.98568">
        <ele>4.6</ele>
        <time>2021-01-03T09:15:31Z</time>
      </trkpt>
      <trkpt lat="50.57534" lon="2.98581">
        <ele>4.2</ele>
        <time>2021-01-03T09:15:35Z</time>
      </trkpt>
      <trkpt lat="50.5755" lon="2.98584">
        <ele>4.6</ele>
        <time>2021-01-03T09:15:39Z</time>
      </trkpt>
      <trkpt lat="50.57562" lon="2.98576">
        <ele>4.8</ele>
        <time>2021-01-03T09:15:43Z</time>
      </trkpt>
      <trkpt lat="50.57574" lon="2.98564">
        <ele>5</ele>
        <time>2021-01-03T09:15:47Z</time>
      </trkpt>
      <trkpt lat="50.57585" lon="2.98554">
        <ele>4.8</ele>
        <time>2021-01-03T09:15:51Z</time>
      </trkpt>
      <trkpt lat="50.57592" lon="2.98547">
        <ele>4.6</ele>
        <time>2021-01-03T09:15:55Z</time>
      </trkpt>
      <trkpt lat="50.57612" lon="2.98533">
        <ele>4.4</ele>
        <time>2021-01-03T09:16:31Z</time>
      </trkpt>
      <trkpt lat="50.57622" lon="2.98525">
        <ele>4.6</ele>
        <time>2021-01-03T09:16:35Z</time>
      </trkpt>
      <trkpt lat="50.57635" lon="2.98519">
        <ele>4.6</ele>
        <time>2021-01-03T09:16:39Z</time>
      </trkpt>
      <trkpt lat="50.57641" lon="2.98534">
        <ele>5</ele>
        <time>2021-01-03T09:16:43Z</time>
      </trkpt>
      <trkpt lat="50.57642" lon="2.98556">
        <ele>5</ele>
        <time>2021-01-03T09:16:47Z</time>
      </trkpt>
      <trkpt lat="50.57643" lon="2.9858">
        <ele>5.2</ele>
        <time>2021-01-03T09:16:51Z</time>
      </trkpt>
      <trkpt lat="50.57639" lon="2.98606">
        <ele>4.6</ele>
        <time>2021-01-03T09:16:55Z</time>
      </trkpt>
      <trkpt lat="50.5764" lon="2.9863">
        <ele>4.4</ele>
        <time>2021-01-03T09:16:59Z</time>
      </trkpt>
      <trkpt lat="50.57646" lon="2.98654">
        <ele>5.6</ele>
        <time>2021-01-03T09:17:03Z</time>
      </trkpt>
      <trkpt lat="50.57655" lon="2.98665">
        <ele>5.6</ele>
        <time>2021-01-03T09:17:07Z</time>
      </trkpt>
      <trkpt lat="50.57658" lon="2.98672">
        <ele>5.4</ele>
        <time>2021-01-03T09:17:11Z</time>
      </trkpt>
      <trkpt lat="50.57661" lon="2.98675">
        <ele>5.4</ele>
        <time>2021-01-03T09:17:15Z</time>
      </trkpt>
      <trkpt lat="50.57679" lon="2.98702">
        <ele>5</ele>
        <time>2021-01-03T09:17:42Z</time>
      </trkpt>
      <trkpt lat="50.5769" lon="2.98715">
        <ele>4.8</ele>
        <time>2021-01-03T09:17:46Z</time>
      </trkpt>
      <trkpt lat="50.57704" lon="2.98726">
        <ele>4.8</ele>
        <time>2021-01-03T09:17:50Z</time>
      </trkpt>
      <trkpt lat="50.57715" lon="2.98737">
        <ele>5.2</ele>
        <time>2021-01-03T09:17:54Z</time>
      </trkpt>
      <trkpt lat="50.57719" lon="2.98741">
        <ele>5.2</ele>
        <time>2021-01-03T09:17:58Z</time>
      </trkpt>
      <trkpt lat="50.57726" lon="2.98734">
        <ele>5</ele>
        <time>2021-01-03T09:18:02Z</time>
      </trkpt>
      <trkpt lat="50.57733" lon="2.9871">
        <ele>5.8</ele>
        <time>2021-01-03T09:18:06Z</time>
      </trkpt>
      <trkpt lat="50.57742" lon="2.98687">
        <ele>4.4</ele>
        <time>2021-01-03T09:18:10Z</time>
      </trkpt>
      <trkpt lat="50.5776" lon="2.9867">
        <ele>4</ele>
        <time>2021-01-03T09:18:14Z</time>
      </trkpt>
      <trkpt lat="50.57779" lon="2.98651">
        <ele>3.6</ele>
        <time>2021-01-03T09:18:18Z</time>
      </trkpt>
      <trkpt lat="50.578" lon="2.98633">
        <ele>3.6</ele>
        <time>2021-01-03T09:18:22Z</time>
      </trkpt>
      <trkpt lat="50.57822" lon="2.98621">
        <ele>4.4</ele>
        <time>2021-01-03T09:18:26Z</time>
      </trkpt>
      <trkpt lat="50.5784" lon="2.98611">
        <ele>5</ele>
        <time>2021-01-03T09:18:30Z</time>
      </trkpt>
      <trkpt lat="50.57848" lon="2.98608">
        <ele>4.6</ele>
        <time>2021-01-03T09:18:34Z</time>
      </trkpt>
      <trkpt lat="50.57868" lon="2.98595">
        <ele>4.2</ele>
        <time>2021-01-03T09:18:53Z</time>
      </trkpt>
      <trkpt lat="50.5788" lon="2.98589">
        <ele>4.6</ele>
        <time>2021-01-03T09:18:57Z</time>
      </trkpt>
      <trkpt lat="50.57888" lon="2.98584">
        <ele>4.8</ele>
        <time>2021-01-03T09:19:01Z</time>
      </trkpt>
      <trkpt lat="50.57891" lon="2.98579">
        <ele>5.2</ele>
        <time>2021-01-03T09:19:05Z</time>
      </trkpt>
      <trkpt lat="50.57893" lon="2.98574">
        <ele>5.2</ele>
        <time>2021-01-03T09:19:09Z</time>
      </trkpt>
      <trkpt lat="50.579" lon="2.98549">
        <ele>5.8</ele>
        <time>2021-01-03T09:19:34Z</time>
      </trkpt>
      <trkpt lat="50.57905" lon="2.98528">
        <ele>5.6</ele>
        <time>2021-01-03T09:19:38Z</time>
      </trkpt>
      <trkpt lat="50.5791" lon="2.98503">
        <ele>5.6</ele>
        <time>2021-01-03T09:19:42Z</time>
      </trkpt>
      <trkpt lat="50.57915" lon="2.98478">
        <ele>6</ele>
        <time>2021-01-03T09:19:46Z</time>
      </trkpt>
      <trkpt lat="50.57922" lon="2.98455">
        <ele>6</ele>
        <time>2021-01-03T09:19:50Z</time>
      </trkpt>
      <trkpt lat="50.57926" lon="2.98432">
        <ele>5.4</ele>
        <time>2021-01-03T09:19:54Z</time>
      </trkpt>
      <trkpt lat="50.5793" lon="2.98409">
        <ele>6.2</ele>
        <time>2021-01-03T09:19:58Z</time>
      </trkpt>
      <trkpt lat="50.57933" lon="2.98386">
        <ele>5.4</ele>
        <time>2021-01-03T09:20:02Z</time>
      </trkpt>
      <trkpt lat="50.57939" lon="2.98364">
        <ele>4.8</ele>
        <time>2021-01-03T09:20:06Z</time>
      </trkpt>
      <trkpt lat="50.57942" lon="2.98343">
        <ele>6.2</ele>
        <time>2021-01-03T09:20:10Z</time>
      </trkpt>
      <trkpt lat="50.57945" lon="2.98322">
        <ele>6.2</ele>
        <time>2021-01-03T09:20:14Z</time>
      </trkpt>
      <trkpt lat="50.57949" lon="2.98301">
        <ele>5.6</ele>
        <time>2021-01-03T09:20:18Z</time>
      </trkpt>
      <trkpt lat="50.57953" lon="2.98281">
        <ele>5.6</ele>
        <time>2021-01-03T09:20:22Z</time>
      </trkpt>
      <trkpt lat="50.57957" lon="2.98259">
        <ele>6</ele>
        <time>2021-01-03T09:20:26Z</time>
      </trkpt>
      <trkpt lat="50.57961" lon="2.98239">
        <ele>5.6</ele>
        <time>2021-01-03T09:20:30Z</time>
      </trkpt>
      <trkpt lat="50.57965" lon="2.9822">
        <ele>5.6</ele>
        <time>2021-01-03T09:20:34Z</time>
      </trkpt>
      <trkpt lat="50.57968" lon="2.98205">
        <ele>5.6</ele>
        <time>2021-01-03T09:20:38Z</time>
      </trkpt>
      <trkpt lat="50.57968" lon="2.98195">
        <ele>5.2</ele>
        <time>2021-01-03T09:20:42Z</time>
      </trkpt>
      <trkpt lat="50.57958" lon="2.98184">
        <ele>4.8</ele>
        <time>2021-01-03T09:20:46Z</time>
      </trkpt>
      <trkpt lat="50.57942" lon="2.98177">
        <ele>5</ele>
        <time>2021-01-03T09:20:50Z</time>
      </trkpt>
      <trkpt lat="50.57925" lon="2.9817">
        <ele>5.2</ele>
        <time>2021-01-03T09:20:54Z</time>
      </trkpt>
      <trkpt lat="50.57908" lon="2.98159">
        <ele>4.6</ele>
        <time>2021-01-03T09:20:58Z</time>
      </trkpt>
      <trkpt lat="50.57895" lon="2.98138">
        <ele>5</ele>
        <time>2021-01-03T09:21:02Z</time>
      </trkpt>
      <trkpt lat="50.57885" lon="2.98115">
        <ele>5.6</ele>
        <time>2021-01-03T09:21:06Z</time>
      </trkpt>
      <trkpt lat="50.57887" lon="2.9809">
        <ele>6.4</ele>
        <time>2021-01-03T09:21:10Z</time>
      </trkpt>
      <trkpt lat="50.57891" lon="2.98068">
        <ele>6.6</ele>
        <time>2021-01-03T09:21:14Z</time>
      </trkpt>
      <trkpt lat="50.57899" lon="2.98046">
        <ele>8</ele>
        <time>2021-01-03T09:21:18Z</time>
      </trkpt>
      <trkpt lat="50.57907" lon="2.98023">
        <ele>8</ele>
        <time>2021-01-03T09:21:22Z</time>
      </trkpt>
      <trkpt lat="50.57918" lon="2.98002">
        <ele>8</ele>
        <time>2021-01-03T09:21:26Z</time>
      </trkpt>
      <trkpt lat="50.57929" lon="2.9798">
        <ele>8.8</ele>
        <time>2021-01-03T09:21:30Z</time>
      </trkpt>
      <trkpt lat="50.57939" lon="2.97956">
        <ele>11.4</ele>
        <time>2021-01-03T09:21:34Z</time>
      </trkpt>
      <trkpt lat="50.57949" lon="2.97932">
        <ele>10.2</ele>
        <time>2021-01-03T09:21:38Z</time>
      </trkpt>
      <trkpt lat="50.57955" lon="2.97909">
        <ele>11.2</ele>
        <time>2021-01-03T09:21:42Z</time>
      </trkpt>
      <trkpt lat="50.57961" lon="2.97885">
        <ele>12</ele>
        <time>2021-01-03T09:21:46Z</time>
      </trkpt>
      <trkpt lat="50.57966" lon="2.97861">
        <ele>12</ele>
        <time>2021-01-03T09:21:50Z</time>
      </trkpt>
      <trkpt lat="50.57972" lon="2.97836">
        <ele>11.4</ele>
        <time>2021-01-03T09:21:54Z</time>
      </trkpt>
      <trkpt lat="50.57977" lon="2.9781">
        <ele>11.4</ele>
        <time>2021-01-03T09:21:58Z</time>
      </trkpt>
      <trkpt lat="50.57983" lon="2.97784">
        <ele>11.4</ele>
        <time>2021-01-03T09:22:02Z</time>
      </trkpt>
      <trkpt lat="50.57989" lon="2.97756">
        <ele>10.4</ele>
        <time>2021-01-03T09:22:06Z</time>
      </trkpt>
      <trkpt lat="50.57997" lon="2.97725">
        <ele>10.4</ele>
        <time>2021-01-03T09:22:10Z</time>
      </trkpt>
      <trkpt lat="50.57999" lon="2.97696">
        <ele>9.6</ele>
        <time>2021-01-03T09:22:14Z</time>
      </trkpt>
      <trkpt lat="50.57985" lon="2.97682">
        <ele>8</ele>
        <time>2021-01-03T09:22:18Z</time>
      </trkpt>
      <trkpt lat="50.5797" lon="2.97666">
        <ele>8</ele>
        <time>2021-01-03T09:22:22Z</time>
      </trkpt>
      <trkpt lat="50.57947" lon="2.97647">
        <ele>4.8</ele>
        <time>2021-01-03T09:22:26Z</time>
      </trkpt>
      <trkpt lat="50.57922" lon="2.97629">
        <ele>5</ele>
        <time>2021-01-03T09:22:30Z</time>
      </trkpt>
      <trkpt lat="50.57897" lon="2.97609">
        <ele>4.6</ele>
        <time>2021-01-03T09:22:34Z</time>
      </trkpt>
      <trkpt lat="50.57869" lon="2.97589">
        <ele>2.8</ele>
        <time>2021-01-03T09:22:38Z</time>
      </trkpt>
      <trkpt lat="50.57842" lon="2.97568">
        <ele>3.4</ele>
        <time>2021-01-03T09:22:42Z</time>
      </trkpt>
      <trkpt lat="50.57821" lon="2.97542">
        <ele>4</ele>
        <time>2021-01-03T09:22:46Z</time>
      </trkpt>
      <trkpt lat="50.57802" lon="2.9752">
        <ele>4.4</ele>
        <time>2021-01-03T09:22:50Z</time>
      </trkpt>
      <trkpt lat="50.5779" lon="2.97501">
        <ele>5</ele>
        <time>2021-01-03T09:22:54Z</time>
      </trkpt>
      <trkpt lat="50.57786" lon="2.97488">
        <ele>5</ele>
        <time>2021-01-03T09:22:58Z</time>
      </trkpt>
      <trkpt lat="50.57787" lon="2.97479">
        <ele>4.6</ele>
        <time>2021-01-03T09:23:02Z</time>
      </trkpt>
      <trkpt lat="50.57792" lon="2.9747">
        <ele>4.4</ele>
        <time>2021-01-03T09:23:06Z</time>
      </trkpt>
      <trkpt lat="50.57803" lon="2.97458">
        <ele>4</ele>
        <time>2021-01-03T09:23:10Z</time>
      </trkpt>
      <trkpt lat="50.57812" lon="2.97444">
        <ele>4.6</ele>
        <time>2021-01-03T09:23:14Z</time>
      </trkpt>
      <trkpt lat="50.57821" lon="2.9743">
        <ele>4.4</ele>
        <time>2021-01-03T09:23:18Z</time>
      </trkpt>
      <trkpt lat="50.57832" lon="2.97417">
        <ele>5</ele>
        <time>2021-01-03T09:23:22Z</time>
      </trkpt>
      <trkpt lat="50.57842" lon="2.97402">
        <ele>4.2</ele>
        <time>2021-01-03T09:23:26Z</time>
      </trkpt>
      <trkpt lat="50.57852" lon="2.97386">
        <ele>4.4</ele>
        <time>2021-01-03T09:23:30Z</time>
      </trkpt>
      <trkpt lat="50.57861" lon="2.97372">
        <ele>3.4</ele>
        <time>2021-01-03T09:23:34Z</time>
      </trkpt>
      <trkpt lat="50.57869" lon="2.97356">
        <ele>4.4</ele>
        <time>2021-01-03T09:23:38Z</time>
      </trkpt>
      <trkpt lat="50.57878" lon="2.9734">
        <ele>4.6</ele>
        <time>2021-01-03T09:23:42Z</time>
      </trkpt>
      <trkpt lat="50.57886" lon="2.97325">
        <ele>4.8</ele>
        <time>2021-01-03T09:23:46Z</time>
      </trkpt>
      <trkpt lat="50.57893" lon="2.97311">
        <ele>4.6</ele>
        <time>2021-01-03T09:23:50Z</time>
      </trkpt>
      <trkpt lat="50.57897" lon="2.97295">
        <ele>4.6</ele>
        <time>2021-01-03T09:23:54Z</time>
      </trkpt>
      <trkpt lat="50.57901" lon="2.97279">
        <ele>4.2</ele>
        <time>2021-01-03T09:23:58Z</time>
      </trkpt>
      <trkpt lat="50.57903" lon="2.97262">
        <ele>5</ele>
        <time>2021-01-03T09:24:02Z</time>
      </trkpt>
      <trkpt lat="50.57903" lon="2.97246">
        <ele>4.2</ele>
        <time>2021-01-03T09:24:06Z</time>
      </trkpt>
      <trkpt lat="50.57903" lon="2.97235">
        <ele>4.2</ele>
        <time>2021-01-03T09:24:10Z</time>
      </trkpt>
      <trkpt lat="50.57904" lon="2.97226">
        <ele>4.2</ele>
        <time>2021-01-03T09:24:14Z</time>
      </trkpt>
      <trkpt lat="50.57905" lon="2.97219">
        <ele>4.2</ele>
        <time>2021-01-03T09:24:18Z</time>
      </trkpt>
      <trkpt lat="50.57905" lon="2.9721">
        <ele>4</ele>
        <time>2021-01-03T09:24:22Z</time>
      </trkpt>
      <trkpt lat="50.57905" lon="2.97201">
        <ele>4.2</ele>
        <time>2021-01-03T09:24:26Z</time>
      </trkpt>
      <trkpt lat="50.57903" lon="2.97192">
        <ele>3.8</ele>
        <time>2021-01-03T09:24:30Z</time>
      </trkpt>
      <trkpt lat="50.57904" lon="2.97183">
        <ele>4</ele>
        <time>2021-01-03T09:24:34Z</time>
      </trkpt>
      <trkpt lat="50.57905" lon="2.97175">
        <ele>4</ele>
        <time>2021-01-03T09:24:38Z</time>
      </trkpt>
      <trkpt lat="50.57904" lon="2.97166">
        <ele>4</ele>
        <time>2021-01-03T09:24:42Z</time>
      </trkpt>
      <trkpt lat="50.57903" lon="2.97154">
        <ele>4.2</ele>
        <time>2021-01-03T09:24:46Z</time>
      </trkpt>
      <trkpt lat="50.57905" lon="2.97143">
        <ele>4.6</ele>
        <time>2021-01-03T09:24:50Z</time>
      </trkpt>
      <trkpt lat="50.57908" lon="2.97131">
        <ele>4.2</ele>
        <time>2021-01-03T09:24:54Z</time>
      </trkpt>
      <trkpt lat="50.57913" lon="2.97119">
        <ele>3.8</ele>
        <time>2021-01-03T09:24:58Z</time>
      </trkpt>
      <trkpt lat="50.57917" lon="2.97108">
        <ele>3.6</ele>
        <time>2021-01-03T09:25:02Z</time>
      </trkpt>
      <trkpt lat="50.57923" lon="2.97096">
        <ele>4.2</ele>
        <time>2021-01-03T09:25:06Z</time>
      </trkpt>
      <trkpt lat="50.5793" lon="2.97082">
        <ele>3.8</ele>
        <time>2021-01-03T09:25:10Z</time>
      </trkpt>
      <trkpt lat="50.57936" lon="2.97068">
        <ele>3</ele>
        <time>2021-01-03T09:25:14Z</time>
      </trkpt>
      <trkpt lat="50.57943" lon="2.97054">
        <ele>3.6</ele>
        <time>2021-01-03T09:25:18Z</time>
      </trkpt>
      <trkpt lat="50.57949" lon="2.9704">
        <ele>3.6</ele>
        <time>2021-01-03T09:25:22Z</time>
      </trkpt>
      <trkpt lat="50.57954" lon="2.97025">
        <ele>4.2</ele>
        <time>2021-01-03T09:25:26Z</time>
      </trkpt>
      <trkpt lat="50.5795" lon="2.97012">
        <ele>4</ele>
        <time>2021-01-03T09:25:30Z</time>
      </trkpt>
      <trkpt lat="50.57943" lon="2.97">
        <ele>3.6</ele>
        <time>2021-01-03T09:25:34Z</time>
      </trkpt>
      <trkpt lat="50.57935" lon="2.9699">
        <ele>4.4</ele>
        <time>2021-01-03T09:25:38Z</time>
      </trkpt>
      <trkpt lat="50.57927" lon="2.96979">
        <ele>4.2</ele>
        <time>2021-01-03T09:25:42Z</time>
      </trkpt>
      <trkpt lat="50.57919" lon="2.9697">
        <ele>4.6</ele>
        <time>2021-01-03T09:25:46Z</time>
      </trkpt>
      <trkpt lat="50.57911" lon="2.96961">
        <ele>3.8</ele>
        <time>2021-01-03T09:25:50Z</time>
      </trkpt>
      <trkpt lat="50.57905" lon="2.96957">
        <ele>4</ele>
        <time>2021-01-03T09:25:54Z</time>
      </trkpt>
      <trkpt lat="50.579" lon="2.96956">
        <ele>4.2</ele>
        <time>2021-01-03T09:25:58Z</time>
      </trkpt>
      <trkpt lat="50.57896" lon="2.96951">
        <ele>4.2</ele>
        <time>2021-01-03T09:26:02Z</time>
      </trkpt>
      <trkpt lat="50.57893" lon="2.96948">
        <ele>4.4</ele>
        <time>2021-01-03T09:26:06Z</time>
      </trkpt>
      <trkpt lat="50.5789" lon="2.96943">
        <ele>4.2</ele>
        <time>2021-01-03T09:26:10Z</time>
      </trkpt>
      <trkpt lat="50.57885" lon="2.96939">
        <ele>4.2</ele>
        <time>2021-01-03T09:26:14Z</time>
      </trkpt>
      <trkpt lat="50.57879" lon="2.96936">
        <ele>4.2</ele>
        <time>2021-01-03T09:26:18Z</time>
      </trkpt>
      <trkpt lat="50.57874" lon="2.96931">
        <ele>4.2</ele>
        <time>2021-01-03T09:26:22Z</time>
      </trkpt>
      <trkpt lat="50.57869" lon="2.96922">
        <ele>4.2</ele>
        <time>2021-01-03T09:26:26Z</time>
      </trkpt>
      <trkpt lat="50.57865" lon="2.96911">
        <ele>4.4</ele>
        <time>2021-01-03T09:26:30Z</time>
      </trkpt>
      <trkpt lat="50.57856" lon="2.96903">
        <ele>3.8</ele>
        <time>2021-01-03T09:26:34Z</time>
      </trkpt>
      <trkpt lat="50.57849" lon="2.96896">
        <ele>4.2</ele>
        <time>2021-01-03T09:26:38Z</time>
      </trkpt>
      <trkpt lat="50.57844" lon="2.96889">
        <ele>4.2</ele>
        <time>2021-01-03T09:26:42Z</time>
      </trkpt>
      <trkpt lat="50.57841" lon="2.96881">
        <ele>4.4</ele>
        <time>2021-01-03T09:26:46Z</time>
      </trkpt>
      <trkpt lat="50.57826" lon="2.96869">
        <ele>4.6</ele>
        <time>2021-01-03T09:27:05Z</time>
      </trkpt>
      <trkpt lat="50.57817" lon="2.96859">
        <ele>4.2</ele>
        <time>2021-01-03T09:27:17Z</time>
      </trkpt>
      <trkpt lat="50.578" lon="2.96827">
        <ele>4.4</ele>
        <time>2021-01-03T09:30:33Z</time>
      </trkpt>
      <trkpt lat="50.57788" lon="2.96828">
        <ele>4.6</ele>
        <time>2021-01-03T09:30:37Z</time>
      </trkpt>
      <trkpt lat="50.57775" lon="2.9683">
        <ele>4.4</ele>
        <time>2021-01-03T09:30:41Z</time>
      </trkpt>
      <trkpt lat="50.57765" lon="2.96832">
        <ele>4.8</ele>
        <time>2021-01-03T09:30:45Z</time>
      </trkpt>
      <trkpt lat="50.5775" lon="2.96837">
        <ele>4.2</ele>
        <time>2021-01-03T09:30:49Z</time>
      </trkpt>
      <trkpt lat="50.57737" lon="2.96843">
        <ele>3.8</ele>
        <time>2021-01-03T09:30:53Z</time>
      </trkpt>
      <trkpt lat="50.57722" lon="2.96849">
        <ele>4.2</ele>
        <time>2021-01-03T09:30:57Z</time>
      </trkpt>
      <trkpt lat="50.57707" lon="2.96852">
        <ele>4.4</ele>
        <time>2021-01-03T09:31:01Z</time>
      </trkpt>
      <trkpt lat="50.57707" lon="2.96852">
        <ele>4.4</ele>
        <time>2021-01-03T09:31:05Z</time>
      </trkpt>
      <trkpt lat="50.57686" lon="2.96853">
        <ele>4.2</ele>
        <time>2021-01-03T09:31:09Z</time>
      </trkpt>
      <trkpt lat="50.57669" lon="2.96852">
        <ele>4.2</ele>
        <time>2021-01-03T09:31:13Z</time>
      </trkpt>
      <trkpt lat="50.57654" lon="2.96858">
        <ele>4</ele>
        <time>2021-01-03T09:31:17Z</time>
      </trkpt>
      <trkpt lat="50.57639" lon="2.96865">
        <ele>3.6</ele>
        <time>2021-01-03T09:31:21Z</time>
      </trkpt>
      <trkpt lat="50.57621" lon="2.96863">
        <ele>4.2</ele>
        <time>2021-01-03T09:31:25Z</time>
      </trkpt>
      <trkpt lat="50.57606" lon="2.96845">
        <ele>4</ele>
        <time>2021-01-03T09:31:29Z</time>
      </trkpt>
      <trkpt lat="50.57594" lon="2.96825">
        <ele>3.4</ele>
        <time>2021-01-03T09:31:33Z</time>
      </trkpt>
      <trkpt lat="50.57581" lon="2.96805">
        <ele>3.6</ele>
        <time>2021-01-03T09:31:37Z</time>
      </trkpt>
      <trkpt lat="50.5757" lon="2.96782">
        <ele>3.4</ele>
        <time>2021-01-03T09:31:41Z</time>
      </trkpt>
      <trkpt lat="50.5756" lon="2.9676">
        <ele>4</ele>
        <time>2021-01-03T09:31:45Z</time>
      </trkpt>
      <trkpt lat="50.5755" lon="2.9674">
        <ele>3.6</ele>
        <time>2021-01-03T09:31:49Z</time>
      </trkpt>
      <trkpt lat="50.57536" lon="2.96724">
        <ele>4</ele>
        <time>2021-01-03T09:31:53Z</time>
      </trkpt>
      <trkpt lat="50.57521" lon="2.96712">
        <ele>4</ele>
        <time>2021-01-03T09:31:57Z</time>
      </trkpt>
      <trkpt lat="50.57507" lon="2.96699">
        <ele>4</ele>
        <time>2021-01-03T09:32:01Z</time>
      </trkpt>
      <trkpt lat="50.57491" lon="2.96685">
        <ele>3.2</ele>
        <time>2021-01-03T09:32:05Z</time>
      </trkpt>
      <trkpt lat="50.57472" lon="2.9667">
        <ele>3.8</ele>
        <time>2021-01-03T09:32:09Z</time>
      </trkpt>
      <trkpt lat="50.57455" lon="2.96651">
        <ele>3.6</ele>
        <time>2021-01-03T09:32:13Z</time>
      </trkpt>
      <trkpt lat="50.57446" lon="2.96623">
        <ele>3.4</ele>
        <time>2021-01-03T09:32:17Z</time>
      </trkpt>
      <trkpt lat="50.57446" lon="2.96597">
        <ele>3</ele>
        <time>2021-01-03T09:32:21Z</time>
      </trkpt>
      <trkpt lat="50.57448" lon="2.96568">
        <ele>3</ele>
        <time>2021-01-03T09:32:25Z</time>
      </trkpt>
      <trkpt lat="50.57454" lon="2.96544">
        <ele>3.8</ele>
        <time>2021-01-03T09:32:29Z</time>
      </trkpt>
      <trkpt lat="50.57463" lon="2.96532">
        <ele>4.6</ele>
        <time>2021-01-03T09:32:33Z</time>
      </trkpt>
      <trkpt lat="50.57468" lon="2.96528">
        <ele>5</ele>
        <time>2021-01-03T09:32:37Z</time>
      </trkpt>
      <trkpt lat="50.57468" lon="2.96521">
        <ele>4.8</ele>
        <time>2021-01-03T09:32:41Z</time>
      </trkpt>
      <trkpt lat="50.57465" lon="2.96522">
        <ele>4</ele>
        <time>2021-01-03T09:32:45Z</time>
      </trkpt>
      <trkpt lat="50.5746" lon="2.96533">
        <ele>4.2</ele>
        <time>2021-01-03T09:32:49Z</time>
      </trkpt>
      <trkpt lat="50.57458" lon="2.9654">
        <ele>4.6</ele>
        <time>2021-01-03T09:32:53Z</time>
      </trkpt>
      <trkpt lat="50.57454" lon="2.9655">
        <ele>4.2</ele>
        <time>2021-01-03T09:32:57Z</time>
      </trkpt>
      <trkpt lat="50.57447" lon="2.96557">
        <ele>3.8</ele>
        <time>2021-01-03T09:33:01Z</time>
      </trkpt>
      <trkpt lat="50.57439" lon="2.96553">
        <ele>4</ele>
        <time>2021-01-03T09:33:05Z</time>
      </trkpt>
      <trkpt lat="50.57426" lon="2.96504">
        <ele>8.4</ele>
        <time>2021-01-03T09:36:06Z</time>
      </trkpt>
      <trkpt lat="50.57421" lon="2.9649">
        <ele>7</ele>
        <time>2021-01-03T09:36:10Z</time>
      </trkpt>
      <trkpt lat="50.57413" lon="2.96472">
        <ele>8</ele>
        <time>2021-01-03T09:36:14Z</time>
      </trkpt>
      <trkpt lat="50.57405" lon="2.96456">
        <ele>8</ele>
        <time>2021-01-03T09:36:18Z</time>
      </trkpt>
      <trkpt lat="50.57401" lon="2.96441">
        <ele>7.8</ele>
        <time>2021-01-03T09:36:22Z</time>
      </trkpt>
      <trkpt lat="50.5739" lon="2.96417">
        <ele>8.2</ele>
        <time>2021-01-03T09:36:26Z</time>
      </trkpt>
      <trkpt lat="50.57379" lon="2.96402">
        <ele>7.8</ele>
        <time>2021-01-03T09:36:30Z</time>
      </trkpt>
      <trkpt lat="50.57362" lon="2.96391">
        <ele>8</ele>
        <time>2021-01-03T09:36:34Z</time>
      </trkpt>
      <trkpt lat="50.5735" lon="2.96392">
        <ele>7.8</ele>
        <time>2021-01-03T09:36:38Z</time>
      </trkpt>
      <trkpt lat="50.57337" lon="2.96401">
        <ele>7.8</ele>
        <time>2021-01-03T09:36:42Z</time>
      </trkpt>
      <trkpt lat="50.57324" lon="2.96412">
        <ele>8</ele>
        <time>2021-01-03T09:36:46Z</time>
      </trkpt>
      <trkpt lat="50.57314" lon="2.96422">
        <ele>8.2</ele>
        <time>2021-01-03T09:36:50Z</time>
      </trkpt>
      <trkpt lat="50.57303" lon="2.96432">
        <ele>8</ele>
        <time>2021-01-03T09:36:54Z</time>
      </trkpt>
      <trkpt lat="50.57283" lon="2.96445">
        <ele>7</ele>
        <time>2021-01-03T09:36:58Z</time>
      </trkpt>
      <trkpt lat="50.57269" lon="2.9646">
        <ele>7.4</ele>
        <time>2021-01-03T09:37:02Z</time>
      </trkpt>
      <trkpt lat="50.57254" lon="2.96477">
        <ele>8</ele>
        <time>2021-01-03T09:37:06Z</time>
      </trkpt>
      <trkpt lat="50.57236" lon="2.96497">
        <ele>8.2</ele>
        <time>2021-01-03T09:37:10Z</time>
      </trkpt>
      <trkpt lat="50.57225" lon="2.96515">
        <ele>8.6</ele>
        <time>2021-01-03T09:37:14Z</time>
      </trkpt>
      <trkpt lat="50.57208" lon="2.96534">
        <ele>7.8</ele>
        <time>2021-01-03T09:37:18Z</time>
      </trkpt>
      <trkpt lat="50.57197" lon="2.96556">
        <ele>8</ele>
        <time>2021-01-03T09:37:22Z</time>
      </trkpt>
      <trkpt lat="50.57183" lon="2.96581">
        <ele>7.6</ele>
        <time>2021-01-03T09:37:26Z</time>
      </trkpt>
      <trkpt lat="50.5717" lon="2.96608">
        <ele>8.2</ele>
        <time>2021-01-03T09:37:30Z</time>
      </trkpt>
      <trkpt lat="50.57155" lon="2.96632">
        <ele>7.8</ele>
        <time>2021-01-03T09:37:34Z</time>
      </trkpt>
      <trkpt lat="50.57142" lon="2.96645">
        <ele>7.4</ele>
        <time>2021-01-03T09:37:38Z</time>
      </trkpt>
      <trkpt lat="50.57128" lon="2.96664">
        <ele>7.2</ele>
        <time>2021-01-03T09:37:42Z</time>
      </trkpt>
      <trkpt lat="50.57116" lon="2.96692">
        <ele>7.8</ele>
        <time>2021-01-03T09:37:46Z</time>
      </trkpt>
      <trkpt lat="50.57116" lon="2.96719">
        <ele>9</ele>
        <time>2021-01-03T09:37:50Z</time>
      </trkpt>
      <trkpt lat="50.57122" lon="2.96737">
        <ele>10.4</ele>
        <time>2021-01-03T09:37:54Z</time>
      </trkpt>
      <trkpt lat="50.57125" lon="2.96758">
        <ele>10.4</ele>
        <time>2021-01-03T09:37:58Z</time>
      </trkpt>
      <trkpt lat="50.57137" lon="2.96781">
        <ele>10.2</ele>
        <time>2021-01-03T09:38:02Z</time>
      </trkpt>
      <trkpt lat="50.5715" lon="2.96804">
        <ele>8.8</ele>
        <time>2021-01-03T09:38:06Z</time>
      </trkpt>
      <trkpt lat="50.57164" lon="2.96828">
        <ele>10.4</ele>
        <time>2021-01-03T09:38:10Z</time>
      </trkpt>
      <trkpt lat="50.57176" lon="2.96847">
        <ele>12</ele>
        <time>2021-01-03T09:38:14Z</time>
      </trkpt>
      <trkpt lat="50.5718" lon="2.96862">
        <ele>12.6</ele>
        <time>2021-01-03T09:38:18Z</time>
      </trkpt>
      <trkpt lat="50.5719" lon="2.96882">
        <ele>12</ele>
        <time>2021-01-03T09:38:22Z</time>
      </trkpt>
      <trkpt lat="50.57203" lon="2.96907">
        <ele>12.2</ele>
        <time>2021-01-03T09:38:26Z</time>
      </trkpt>
      <trkpt lat="50.57217" lon="2.96927">
        <ele>13.8</ele>
        <time>2021-01-03T09:38:30Z</time>
      </trkpt>
      <trkpt lat="50.57227" lon="2.96948">
        <ele>12.6</ele>
        <time>2021-01-03T09:38:34Z</time>
      </trkpt>
      <trkpt lat="50.57237" lon="2.96974">
        <ele>12</ele>
        <time>2021-01-03T09:38:38Z</time>
      </trkpt>
      <trkpt lat="50.57251" lon="2.97001">
        <ele>8.4</ele>
        <time>2021-01-03T09:38:42Z</time>
      </trkpt>
      <trkpt lat="50.57263" lon="2.97025">
        <ele>11.4</ele>
        <time>2021-01-03T09:38:46Z</time>
      </trkpt>
      <trkpt lat="50.57265" lon="2.97036">
        <ele>11.8</ele>
        <time>2021-01-03T09:38:50Z</time>
      </trkpt>
      <trkpt lat="50.5727" lon="2.9705">
        <ele>10.4</ele>
        <time>2021-01-03T09:38:54Z</time>
      </trkpt>
      <trkpt lat="50.57278" lon="2.97061">
        <ele>10.4</ele>
        <time>2021-01-03T09:38:58Z</time>
      </trkpt>
      <trkpt lat="50.57284" lon="2.97078">
        <ele>11</ele>
        <time>2021-01-03T09:39:02Z</time>
      </trkpt>
      <trkpt lat="50.57293" lon="2.97098">
        <ele>10.4</ele>
        <time>2021-01-03T09:39:06Z</time>
      </trkpt>
      <trkpt lat="50.57308" lon="2.97118">
        <ele>9.8</ele>
        <time>2021-01-03T09:39:10Z</time>
      </trkpt>
      <trkpt lat="50.5732" lon="2.97137">
        <ele>8.6</ele>
        <time>2021-01-03T09:39:14Z</time>
      </trkpt>
      <trkpt lat="50.57332" lon="2.97154">
        <ele>6.2</ele>
        <time>2021-01-03T09:39:18Z</time>
      </trkpt>
      <trkpt lat="50.57346" lon="2.97175">
        <ele>8.4</ele>
        <time>2021-01-03T09:39:22Z</time>
      </trkpt>
      <trkpt lat="50.57352" lon="2.97189">
        <ele>8.2</ele>
        <time>2021-01-03T09:39:26Z</time>
      </trkpt>
      <trkpt lat="50.57359" lon="2.97203">
        <ele>9</ele>
        <time>2021-01-03T09:39:30Z</time>
      </trkpt>
      <trkpt lat="50.5737" lon="2.97217">
        <ele>8.2</ele>
        <time>2021-01-03T09:39:34Z</time>
      </trkpt>
      <trkpt lat="50.57379" lon="2.97228">
        <ele>8.4</ele>
        <time>2021-01-03T09:39:38Z</time>
      </trkpt>
      <trkpt lat="50.57388" lon="2.97241">
        <ele>7.6</ele>
        <time>2021-01-03T09:39:42Z</time>
      </trkpt>
      <trkpt lat="50.57396" lon="2.97251">
        <ele>8.8</ele>
        <time>2021-01-03T09:39:46Z</time>
      </trkpt>
      <trkpt lat="50.57403" lon="2.97263">
        <ele>7</ele>
        <time>2021-01-03T09:39:50Z</time>
      </trkpt>
      <trkpt lat="50.57411" lon="2.97274">
        <ele>8.6</ele>
        <time>2021-01-03T09:39:54Z</time>
      </trkpt>
      <trkpt lat="50.5742" lon="2.97286">
        <ele>8.6</ele>
        <time>2021-01-03T09:39:58Z</time>
      </trkpt>
      <trkpt lat="50.57429" lon="2.97297">
        <ele>8</ele>
        <time>2021-01-03T09:40:02Z</time>
      </trkpt>
      <trkpt lat="50.57437" lon="2.97309">
        <ele>8.6</ele>
        <time>2021-01-03T09:40:06Z</time>
      </trkpt>
      <trkpt lat="50.57444" lon="2.97318">
        <ele>9.6</ele>
        <time>2021-01-03T09:40:10Z</time>
      </trkpt>
      <trkpt lat="50.57448" lon="2.97325">
        <ele>10</ele>
        <time>2021-01-03T09:40:14Z</time>
      </trkpt>
      <trkpt lat="50.57456" lon="2.97333">
        <ele>9.4</ele>
        <time>2021-01-03T09:40:18Z</time>
      </trkpt>
      <trkpt lat="50.57466" lon="2.97345">
        <ele>9.6</ele>
        <time>2021-01-03T09:40:22Z</time>
      </trkpt>
      <trkpt lat="50.57474" lon="2.97358">
        <ele>10.4</ele>
        <time>2021-01-03T09:40:26Z</time>
      </trkpt>
      <trkpt lat="50.5749" lon="2.97367">
        <ele>10</ele>
        <time>2021-01-03T09:40:30Z</time>
      </trkpt>
      <trkpt lat="50.57501" lon="2.97385">
        <ele>10.4</ele>
        <time>2021-01-03T09:40:34Z</time>
      </trkpt>
      <trkpt lat="50.57517" lon="2.97404">
        <ele>9.6</ele>
        <time>2021-01-03T09:40:38Z</time>
      </trkpt>
      <trkpt lat="50.57527" lon="2.97411">
        <ele>9.6</ele>
        <time>2021-01-03T09:40:42Z</time>
      </trkpt>
      <trkpt lat="50.57527" lon="2.97411">
        <ele>9.8</ele>
        <time>2021-01-03T09:40:46Z</time>
      </trkpt>
      <trkpt lat="50.5753" lon="2.97414">
        <ele>9.6</ele>
        <time>2021-01-03T09:40:50Z</time>
      </trkpt>
      <trkpt lat="50.5754" lon="2.9743">
        <ele>8.4</ele>
        <time>2021-01-03T09:41:03Z</time>
      </trkpt>
      <trkpt lat="50.57551" lon="2.97442">
        <ele>9.2</ele>
        <time>2021-01-03T09:41:07Z</time>
      </trkpt>
      <trkpt lat="50.57565" lon="2.97461">
        <ele>10.2</ele>
        <time>2021-01-03T09:41:11Z</time>
      </trkpt>
      <trkpt lat="50.57578" lon="2.97483">
        <ele>9.4</ele>
        <time>2021-01-03T09:41:15Z</time>
      </trkpt>
      <trkpt lat="50.57595" lon="2.97498">
        <ele>9.2</ele>
        <time>2021-01-03T09:41:19Z</time>
      </trkpt>
      <trkpt lat="50.57609" lon="2.97514">
        <ele>9</ele>
        <time>2021-01-03T09:41:23Z</time>
      </trkpt>
      <trkpt lat="50.57622" lon="2.97533">
        <ele>8.4</ele>
        <time>2021-01-03T09:41:27Z</time>
      </trkpt>
      <trkpt lat="50.57643" lon="2.97551">
        <ele>9.8</ele>
        <time>2021-01-03T09:41:31Z</time>
      </trkpt>
      <trkpt lat="50.57664" lon="2.97553">
        <ele>11</ele>
        <time>2021-01-03T09:41:35Z</time>
      </trkpt>
      <trkpt lat="50.57676" lon="2.9754">
        <ele>10.8</ele>
        <time>2021-01-03T09:41:39Z</time>
      </trkpt>
      <trkpt lat="50.57688" lon="2.97515">
        <ele>8.4</ele>
        <time>2021-01-03T09:41:43Z</time>
      </trkpt>
      <trkpt lat="50.57701" lon="2.97491">
        <ele>7.6</ele>
        <time>2021-01-03T09:41:47Z</time>
      </trkpt>
      <trkpt lat="50.57713" lon="2.9747">
        <ele>9</ele>
        <time>2021-01-03T09:41:51Z</time>
      </trkpt>
      <trkpt lat="50.57721" lon="2.97452">
        <ele>9.2</ele>
        <time>2021-01-03T09:41:55Z</time>
      </trkpt>
      <trkpt lat="50.57731" lon="2.97438">
        <ele>9</ele>
        <time>2021-01-03T09:41:59Z</time>
      </trkpt>
      <trkpt lat="50.57748" lon="2.97448">
        <ele>6.8</ele>
        <time>2021-01-03T09:42:03Z</time>
      </trkpt>
      <trkpt lat="50.57764" lon="2.97475">
        <ele>2</ele>
        <time>2021-01-03T09:42:07Z</time>
      </trkpt>
      <trkpt lat="50.57784" lon="2.97499">
        <ele>3.2</ele>
        <time>2021-01-03T09:42:11Z</time>
      </trkpt>
      <trkpt lat="50.57802" lon="2.97522">
        <ele>2.2</ele>
        <time>2021-01-03T09:42:15Z</time>
      </trkpt>
      <trkpt lat="50.57823" lon="2.97544">
        <ele>2.4</ele>
        <time>2021-01-03T09:42:19Z</time>
      </trkpt>
      <trkpt lat="50.57842" lon="2.97569">
        <ele>2.4</ele>
        <time>2021-01-03T09:42:23Z</time>
      </trkpt>
      <trkpt lat="50.57864" lon="2.97587">
        <ele>2.2</ele>
        <time>2021-01-03T09:42:27Z</time>
      </trkpt>
      <trkpt lat="50.57886" lon="2.97603">
        <ele>1.6</ele>
        <time>2021-01-03T09:42:31Z</time>
      </trkpt>
      <trkpt lat="50.57906" lon="2.97617">
        <ele>3.8</ele>
        <time>2021-01-03T09:42:35Z</time>
      </trkpt>
      <trkpt lat="50.57923" lon="2.97631">
        <ele>4.4</ele>
        <time>2021-01-03T09:42:39Z</time>
      </trkpt>
      <trkpt lat="50.57941" lon="2.97644">
        <ele>4.4</ele>
        <time>2021-01-03T09:42:43Z</time>
      </trkpt>
      <trkpt lat="50.57958" lon="2.97658">
        <ele>5</ele>
        <time>2021-01-03T09:42:47Z</time>
      </trkpt>
      <trkpt lat="50.57971" lon="2.97668">
        <ele>5.8</ele>
        <time>2021-01-03T09:42:51Z</time>
      </trkpt>
      <trkpt lat="50.5798" lon="2.97679">
        <ele>7.6</ele>
        <time>2021-01-03T09:42:55Z</time>
      </trkpt>
      <trkpt lat="50.57991" lon="2.97684">
        <ele>8.8</ele>
        <time>2021-01-03T09:42:59Z</time>
      </trkpt>
      <trkpt lat="50.57994" lon="2.97697">
        <ele>9</ele>
        <time>2021-01-03T09:43:03Z</time>
      </trkpt>
      <trkpt lat="50.5799" lon="2.97702">
        <ele>9.8</ele>
        <time>2021-01-03T09:43:07Z</time>
      </trkpt>
      <trkpt lat="50.5799" lon="2.97717">
        <ele>9</ele>
        <time>2021-01-03T09:43:11Z</time>
      </trkpt>
      <trkpt lat="50.57987" lon="2.97739">
        <ele>10</ele>
        <time>2021-01-03T09:43:15Z</time>
      </trkpt>
      <trkpt lat="50.57983" lon="2.97758">
        <ele>10.6</ele>
        <time>2021-01-03T09:43:19Z</time>
      </trkpt>
      <trkpt lat="50.57979" lon="2.9778">
        <ele>11.4</ele>
        <time>2021-01-03T09:43:23Z</time>
      </trkpt>
      <trkpt lat="50.57975" lon="2.97802">
        <ele>11</ele>
        <time>2021-01-03T09:43:27Z</time>
      </trkpt>
      <trkpt lat="50.57969" lon="2.97825">
        <ele>11</ele>
        <time>2021-01-03T09:43:31Z</time>
      </trkpt>
      <trkpt lat="50.57963" lon="2.9785">
        <ele>10.8</ele>
        <time>2021-01-03T09:43:35Z</time>
      </trkpt>
      <trkpt lat="50.57958" lon="2.97875">
        <ele>10.6</ele>
        <time>2021-01-03T09:43:39Z</time>
      </trkpt>
      <trkpt lat="50.5795" lon="2.97899">
        <ele>10.8</ele>
        <time>2021-01-03T09:43:43Z</time>
      </trkpt>
      <trkpt lat="50.5795" lon="2.97899">
        <ele>11</ele>
        <time>2021-01-03T09:43:47Z</time>
      </trkpt>
      <trkpt lat="50.57939" lon="2.9791">
        <ele>10.4</ele>
        <time>2021-01-03T09:45:04Z</time>
      </trkpt>
      <trkpt lat="50.57928" lon="2.97916">
        <ele>9.4</ele>
        <time>2021-01-03T09:45:08Z</time>
      </trkpt>
      <trkpt lat="50.57913" lon="2.97914">
        <ele>7.8</ele>
        <time>2021-01-03T09:45:12Z</time>
      </trkpt>
      <trkpt lat="50.57901" lon="2.97894">
        <ele>5.8</ele>
        <time>2021-01-03T09:45:16Z</time>
      </trkpt>
      <trkpt lat="50.57902" lon="2.97869">
        <ele>5.2</ele>
        <time>2021-01-03T09:45:20Z</time>
      </trkpt>
      <trkpt lat="50.57917" lon="2.97858">
        <ele>4.8</ele>
        <time>2021-01-03T09:45:24Z</time>
      </trkpt>
      <trkpt lat="50.57934" lon="2.97865">
        <ele>4.4</ele>
        <time>2021-01-03T09:45:28Z</time>
      </trkpt>
      <trkpt lat="50.57953" lon="2.97862">
        <ele>4.2</ele>
        <time>2021-01-03T09:45:32Z</time>
      </trkpt>
      <trkpt lat="50.57974" lon="2.97868">
        <ele>4.6</ele>
        <time>2021-01-03T09:45:36Z</time>
      </trkpt>
      <trkpt lat="50.57988" lon="2.97891">
        <ele>3.2</ele>
        <time>2021-01-03T09:45:40Z</time>
      </trkpt>
      <trkpt lat="50.57993" lon="2.9792">
        <ele>4.2</ele>
        <time>2021-01-03T09:45:44Z</time>
      </trkpt>
      <trkpt lat="50.57995" lon="2.97948">
        <ele>4.4</ele>
        <time>2021-01-03T09:45:48Z</time>
      </trkpt>
      <trkpt lat="50.57998" lon="2.97981">
        <ele>3.4</ele>
        <time>2021-01-03T09:45:52Z</time>
      </trkpt>
      <trkpt lat="50.58001" lon="2.98015">
        <ele>3.4</ele>
        <time>2021-01-03T09:45:56Z</time>
      </trkpt>
      <trkpt lat="50.58004" lon="2.98049">
        <ele>3.8</ele>
        <time>2021-01-03T09:46:00Z</time>
      </trkpt>
      <trkpt lat="50.58006" lon="2.98083">
        <ele>4.2</ele>
        <time>2021-01-03T09:46:04Z</time>
      </trkpt>
      <trkpt lat="50.58009" lon="2.98117">
        <ele>4</ele>
        <time>2021-01-03T09:46:08Z</time>
      </trkpt>
      <trkpt lat="50.5801" lon="2.98148">
        <ele>4.6</ele>
        <time>2021-01-03T09:46:12Z</time>
      </trkpt>
      <trkpt lat="50.58011" lon="2.98175">
        <ele>4.6</ele>
        <time>2021-01-03T09:46:16Z</time>
      </trkpt>
      <trkpt lat="50.58008" lon="2.98194">
        <ele>4.2</ele>
        <time>2021-01-03T09:46:20Z</time>
      </trkpt>
      <trkpt lat="50.58008" lon="2.98204">
        <ele>4.2</ele>
        <time>2021-01-03T09:46:24Z</time>
      </trkpt>
      <trkpt lat="50.58011" lon="2.98205">
        <ele>4.4</ele>
        <time>2021-01-03T09:46:28Z</time>
      </trkpt>
      <trkpt lat="50.58004" lon="2.98203">
        <ele>4.2</ele>
        <time>2021-01-03T09:46:32Z</time>
      </trkpt>
      <trkpt lat="50.58004" lon="2.98211">
        <ele>4</ele>
        <time>2021-01-03T09:46:36Z</time>
      </trkpt>
      <trkpt lat="50.58006" lon="2.98217">
        <ele>4.4</ele>
        <time>2021-01-03T09:46:40Z</time>
      </trkpt>
      <trkpt lat="50.58008" lon="2.9822">
        <ele>4.6</ele>
        <time>2021-01-03T09:46:44Z</time>
      </trkpt>
      <trkpt lat="50.58011" lon="2.98224">
        <ele>4.4</ele>
        <time>2021-01-03T09:46:48Z</time>
      </trkpt>
      <trkpt lat="50.58009" lon="2.98242">
        <ele>4.2</ele>
        <time>2021-01-03T09:46:52Z</time>
      </trkpt>
      <trkpt lat="50.5801" lon="2.98268">
        <ele>4.4</ele>
        <time>2021-01-03T09:46:56Z</time>
      </trkpt>
      <trkpt lat="50.58012" lon="2.98298">
        <ele>3.6</ele>
        <time>2021-01-03T09:47:00Z</time>
      </trkpt>
      <trkpt lat="50.58014" lon="2.98331">
        <ele>3.6</ele>
        <time>2021-01-03T09:47:04Z</time>
      </trkpt>
      <trkpt lat="50.58016" lon="2.98362">
        <ele>2.8</ele>
        <time>2021-01-03T09:47:08Z</time>
      </trkpt>
      <trkpt lat="50.58018" lon="2.9839">
        <ele>3.4</ele>
        <time>2021-01-03T09:47:12Z</time>
      </trkpt>
      <trkpt lat="50.58019" lon="2.98419">
        <ele>4</ele>
        <time>2021-01-03T09:47:16Z</time>
      </trkpt>
      <trkpt lat="50.5802" lon="2.9845">
        <ele>3.6</ele>
        <time>2021-01-03T09:47:20Z</time>
      </trkpt>
      <trkpt lat="50.58022" lon="2.98481">
        <ele>3.2</ele>
        <time>2021-01-03T09:47:24Z</time>
      </trkpt>
      <trkpt lat="50.58024" lon="2.98511">
        <ele>3.2</ele>
        <time>2021-01-03T09:47:28Z</time>
      </trkpt>
      <trkpt lat="50.58026" lon="2.98537">
        <ele>2.6</ele>
        <time>2021-01-03T09:47:32Z</time>
      </trkpt>
      <trkpt lat="50.58035" lon="2.98544">
        <ele>3.2</ele>
        <time>2021-01-03T09:47:36Z</time>
      </trkpt>
      <trkpt lat="50.58053" lon="2.98543">
        <ele>2.8</ele>
        <time>2021-01-03T09:47:40Z</time>
      </trkpt>
      <trkpt lat="50.5807" lon="2.98538">
        <ele>3.4</ele>
        <time>2021-01-03T09:47:44Z</time>
      </trkpt>
      <trkpt lat="50.58089" lon="2.98534">
        <ele>3.6</ele>
        <time>2021-01-03T09:47:48Z</time>
      </trkpt>
      <trkpt lat="50.58106" lon="2.98529">
        <ele>3.4</ele>
        <time>2021-01-03T09:47:52Z</time>
      </trkpt>
      <trkpt lat="50.58123" lon="2.98524">
        <ele>3.4</ele>
        <time>2021-01-03T09:47:56Z</time>
      </trkpt>
      <trkpt lat="50.58143" lon="2.98518">
        <ele>3.4</ele>
        <time>2021-01-03T09:48:00Z</time>
      </trkpt>
      <trkpt lat="50.58163" lon="2.98519">
        <ele>3</ele>
        <time>2021-01-03T09:48:04Z</time>
      </trkpt>
      <trkpt lat="50.58183" lon="2.98526">
        <ele>2.6</ele>
        <time>2021-01-03T09:48:08Z</time>
      </trkpt>
      <trkpt lat="50.58211" lon="2.98524">
        <ele>2.2</ele>
        <time>2021-01-03T09:48:12Z</time>
      </trkpt>
      <trkpt lat="50.58236" lon="2.98522">
        <ele>2.6</ele>
        <time>2021-01-03T09:48:16Z</time>
      </trkpt>
      <trkpt lat="50.58259" lon="2.98522">
        <ele>2.6</ele>
        <time>2021-01-03T09:48:20Z</time>
      </trkpt>
      <trkpt lat="50.58277" lon="2.98518">
        <ele>4.6</ele>
        <time>2021-01-03T09:48:24Z</time>
      </trkpt>
      <trkpt lat="50.58285" lon="2.98491">
        <ele>4.2</ele>
        <time>2021-01-03T09:48:28Z</time>
      </trkpt>
      <trkpt lat="50.5829" lon="2.98461">
        <ele>4.2</ele>
        <time>2021-01-03T09:48:32Z</time>
      </trkpt>
      <trkpt lat="50.58295" lon="2.98427">
        <ele>3.6</ele>
        <time>2021-01-03T09:48:36Z</time>
      </trkpt>
      <trkpt lat="50.583" lon="2.98398">
        <ele>4.6</ele>
        <time>2021-01-03T09:48:40Z</time>
      </trkpt>
      <trkpt lat="50.58305" lon="2.98367">
        <ele>4.2</ele>
        <time>2021-01-03T09:48:44Z</time>
      </trkpt>
      <trkpt lat="50.5831" lon="2.98337">
        <ele>4.2</ele>
        <time>2021-01-03T09:48:48Z</time>
      </trkpt>
      <trkpt lat="50.58317" lon="2.98308">
        <ele>4.4</ele>
        <time>2021-01-03T09:48:52Z</time>
      </trkpt>
      <trkpt lat="50.58326" lon="2.98278">
        <ele>4.2</ele>
        <time>2021-01-03T09:48:56Z</time>
      </trkpt>
      <trkpt lat="50.58335" lon="2.98247">
        <ele>3.6</ele>
        <time>2021-01-03T09:49:00Z</time>
      </trkpt>
      <trkpt lat="50.58342" lon="2.9821">
        <ele>3</ele>
        <time>2021-01-03T09:49:04Z</time>
      </trkpt>
      <trkpt lat="50.58347" lon="2.98171">
        <ele>2.8</ele>
        <time>2021-01-03T09:49:08Z</time>
      </trkpt>
      <trkpt lat="50.58352" lon="2.98132">
        <ele>3.6</ele>
        <time>2021-01-03T09:49:12Z</time>
      </trkpt>
      <trkpt lat="50.58356" lon="2.98093">
        <ele>3.6</ele>
        <time>2021-01-03T09:49:16Z</time>
      </trkpt>
      <trkpt lat="50.58363" lon="2.98053">
        <ele>3.8</ele>
        <time>2021-01-03T09:49:20Z</time>
      </trkpt>
      <trkpt lat="50.58369" lon="2.98012">
        <ele>4.2</ele>
        <time>2021-01-03T09:49:24Z</time>
      </trkpt>
      <trkpt lat="50.58375" lon="2.97971">
        <ele>3.6</ele>
        <time>2021-01-03T09:49:28Z</time>
      </trkpt>
      <trkpt lat="50.5838" lon="2.97938">
        <ele>3.8</ele>
        <time>2021-01-03T09:49:32Z</time>
      </trkpt>
      <trkpt lat="50.58395" lon="2.97922">
        <ele>4.2</ele>
        <time>2021-01-03T09:49:36Z</time>
      </trkpt>
      <trkpt lat="50.58417" lon="2.97916">
        <ele>4.2</ele>
        <time>2021-01-03T09:49:40Z</time>
      </trkpt>
      <trkpt lat="50.58441" lon="2.97913">
        <ele>4.4</ele>
        <time>2021-01-03T09:49:44Z</time>
      </trkpt>
      <trkpt lat="50.58466" lon="2.97913">
        <ele>4.2</ele>
        <time>2021-01-03T09:49:48Z</time>
      </trkpt>
      <trkpt lat="50.5849" lon="2.97918">
        <ele>4.2</ele>
        <time>2021-01-03T09:49:52Z</time>
      </trkpt>
      <trkpt lat="50.58513" lon="2.97928">
        <ele>4.8</ele>
        <time>2021-01-03T09:49:56Z</time>
      </trkpt>
      <trkpt lat="50.58536" lon="2.97939">
        <ele>5</ele>
        <time>2021-01-03T09:50:00Z</time>
      </trkpt>
      <trkpt lat="50.58559" lon="2.97947">
        <ele>5</ele>
        <time>2021-01-03T09:50:04Z</time>
      </trkpt>
      <trkpt lat="50.5858" lon="2.97953">
        <ele>5.4</ele>
        <time>2021-01-03T09:50:08Z</time>
      </trkpt>
      <trkpt lat="50.58601" lon="2.97956">
        <ele>6</ele>
        <time>2021-01-03T09:50:12Z</time>
      </trkpt>
      <trkpt lat="50.58621" lon="2.97956">
        <ele>6</ele>
        <time>2021-01-03T09:50:16Z</time>
      </trkpt>
      <trkpt lat="50.58642" lon="2.97957">
        <ele>5.6</ele>
        <time>2021-01-03T09:50:20Z</time>
      </trkpt>
      <trkpt lat="50.58663" lon="2.97955">
        <ele>5.2</ele>
        <time>2021-01-03T09:50:24Z</time>
      </trkpt>
      <trkpt lat="50.58685" lon="2.97952">
        <ele>5.8</ele>
        <time>2021-01-03T09:50:28Z</time>
      </trkpt>
      <trkpt lat="50.58707" lon="2.97945">
        <ele>5.6</ele>
        <time>2021-01-03T09:50:32Z</time>
      </trkpt>
      <trkpt lat="50.5873" lon="2.97937">
        <ele>5.2</ele>
        <time>2021-01-03T09:50:36Z</time>
      </trkpt>
      <trkpt lat="50.58753" lon="2.97927">
        <ele>5</ele>
        <time>2021-01-03T09:50:40Z</time>
      </trkpt>
      <trkpt lat="50.58776" lon="2.97915">
        <ele>5</ele>
        <time>2021-01-03T09:50:44Z</time>
      </trkpt>
      <trkpt lat="50.58799" lon="2.97902">
        <ele>7.4</ele>
        <time>2021-01-03T09:50:48Z</time>
      </trkpt>
      <trkpt lat="50.58822" lon="2.97889">
        <ele>4.4</ele>
        <time>2021-01-03T09:50:52Z</time>
      </trkpt>
      <trkpt lat="50.58845" lon="2.97876">
        <ele>4.2</ele>
        <time>2021-01-03T09:50:56Z</time>
      </trkpt>
      <trkpt lat="50.58866" lon="2.97862">
        <ele>3.6</ele>
        <time>2021-01-03T09:51:00Z</time>
      </trkpt>
      <trkpt lat="50.58883" lon="2.97855">
        <ele>4.8</ele>
        <time>2021-01-03T09:51:04Z</time>
      </trkpt>
      <trkpt lat="50.58901" lon="2.97856">
        <ele>5.6</ele>
        <time>2021-01-03T09:51:27Z</time>
      </trkpt>
      <trkpt lat="50.58914" lon="2.97862">
        <ele>5</ele>
        <time>2021-01-03T09:51:31Z</time>
      </trkpt>
      <trkpt lat="50.58931" lon="2.97869">
        <ele>4.6</ele>
        <time>2021-01-03T09:51:35Z</time>
      </trkpt>
      <trkpt lat="50.58949" lon="2.97875">
        <ele>4.4</ele>
        <time>2021-01-03T09:51:39Z</time>
      </trkpt>
      <trkpt lat="50.58967" lon="2.97879">
        <ele>4.4</ele>
        <time>2021-01-03T09:51:43Z</time>
      </trkpt>
      <trkpt lat="50.58986" lon="2.97881">
        <ele>3.8</ele>
        <time>2021-01-03T09:51:47Z</time>
      </trkpt>
      <trkpt lat="50.59006" lon="2.97882">
        <ele>4.2</ele>
        <time>2021-01-03T09:51:51Z</time>
      </trkpt>
      <trkpt lat="50.59027" lon="2.97884">
        <ele>4.2</ele>
        <time>2021-01-03T09:51:55Z</time>
      </trkpt>
      <trkpt lat="50.59048" lon="2.97888">
        <ele>4.2</ele>
        <time>2021-01-03T09:51:59Z</time>
      </trkpt>
      <trkpt lat="50.59069" lon="2.97893">
        <ele>4.2</ele>
        <time>2021-01-03T09:52:03Z</time>
      </trkpt>
      <trkpt lat="50.5909" lon="2.97897">
        <ele>3.8</ele>
        <time>2021-01-03T09:52:07Z</time>
      </trkpt>
      <trkpt lat="50.59111" lon="2.97903">
        <ele>3.4</ele>
        <time>2021-01-03T09:52:11Z</time>
      </trkpt>
      <trkpt lat="50.59132" lon="2.97914">
        <ele>4.2</ele>
        <time>2021-01-03T09:52:15Z</time>
      </trkpt>
      <trkpt lat="50.59152" lon="2.97927">
        <ele>4.4</ele>
        <time>2021-01-03T09:52:19Z</time>
      </trkpt>
      <trkpt lat="50.59171" lon="2.97941">
        <ele>4.2</ele>
        <time>2021-01-03T09:52:23Z</time>
      </trkpt>
      <trkpt lat="50.59189" lon="2.97961">
        <ele>3.2</ele>
        <time>2021-01-03T09:52:27Z</time>
      </trkpt>
      <trkpt lat="50.59209" lon="2.97976">
        <ele>3.8</ele>
        <time>2021-01-03T09:52:31Z</time>
      </trkpt>
      <trkpt lat="50.59227" lon="2.97994">
        <ele>4.2</ele>
        <time>2021-01-03T09:52:35Z</time>
      </trkpt>
      <trkpt lat="50.59245" lon="2.98011">
        <ele>4.2</ele>
        <time>2021-01-03T09:52:39Z</time>
      </trkpt>
      <trkpt lat="50.59265" lon="2.98026">
        <ele>2.8</ele>
        <time>2021-01-03T09:52:43Z</time>
      </trkpt>
      <trkpt lat="50.59286" lon="2.98041">
        <ele>3</ele>
        <time>2021-01-03T09:52:47Z</time>
      </trkpt>
      <trkpt lat="50.59306" lon="2.98058">
        <ele>3</ele>
        <time>2021-01-03T09:52:51Z</time>
      </trkpt>
      <trkpt lat="50.59326" lon="2.98076">
        <ele>3.4</ele>
        <time>2021-01-03T09:52:55Z</time>
      </trkpt>
      <trkpt lat="50.59344" lon="2.98093">
        <ele>3.8</ele>
        <time>2021-01-03T09:52:59Z</time>
      </trkpt>
      <trkpt lat="50.59364" lon="2.98111">
        <ele>4.2</ele>
        <time>2021-01-03T09:53:03Z</time>
      </trkpt>
      <trkpt lat="50.59385" lon="2.98129">
        <ele>4.2</ele>
        <time>2021-01-03T09:53:07Z</time>
      </trkpt>
      <trkpt lat="50.59407" lon="2.98145">
        <ele>3.6</ele>
        <time>2021-01-03T09:53:11Z</time>
      </trkpt>
      <trkpt lat="50.59429" lon="2.98162">
        <ele>3.8</ele>
        <time>2021-01-03T09:53:15Z</time>
      </trkpt>
      <trkpt lat="50.59451" lon="2.98174">
        <ele>3.2</ele>
        <time>2021-01-03T09:53:19Z</time>
      </trkpt>
      <trkpt lat="50.59473" lon="2.98191">
        <ele>2</ele>
        <time>2021-01-03T09:53:23Z</time>
      </trkpt>
      <trkpt lat="50.59494" lon="2.98208">
        <ele>2.4</ele>
        <time>2021-01-03T09:53:27Z</time>
      </trkpt>
      <trkpt lat="50.59518" lon="2.98218">
        <ele>3.6</ele>
        <time>2021-01-03T09:53:31Z</time>
      </trkpt>
      <trkpt lat="50.59541" lon="2.98232">
        <ele>3.4</ele>
        <time>2021-01-03T09:53:35Z</time>
      </trkpt>
      <trkpt lat="50.59564" lon="2.98247">
        <ele>3.2</ele>
        <time>2021-01-03T09:53:39Z</time>
      </trkpt>
      <trkpt lat="50.5959" lon="2.9826">
        <ele>3.4</ele>
        <time>2021-01-03T09:53:43Z</time>
      </trkpt>
      <trkpt lat="50.59615" lon="2.98275">
        <ele>3.6</ele>
        <time>2021-01-03T09:53:47Z</time>
      </trkpt>
      <trkpt lat="50.59638" lon="2.98289">
        <ele>3.6</ele>
        <time>2021-01-03T09:53:51Z</time>
      </trkpt>
      <trkpt lat="50.59658" lon="2.98302">
        <ele>3.2</ele>
        <time>2021-01-03T09:53:55Z</time>
      </trkpt>
      <trkpt lat="50.59678" lon="2.98315">
        <ele>3.8</ele>
        <time>2021-01-03T09:53:59Z</time>
      </trkpt>
      <trkpt lat="50.59698" lon="2.98327">
        <ele>3.6</ele>
        <time>2021-01-03T09:54:03Z</time>
      </trkpt>
      <trkpt lat="50.59716" lon="2.98338">
        <ele>3.8</ele>
        <time>2021-01-03T09:54:07Z</time>
      </trkpt>
      <trkpt lat="50.59737" lon="2.98349">
        <ele>3.8</ele>
        <time>2021-01-03T09:54:11Z</time>
      </trkpt>
      <trkpt lat="50.59757" lon="2.98362">
        <ele>3.8</ele>
        <time>2021-01-03T09:54:15Z</time>
      </trkpt>
      <trkpt lat="50.59778" lon="2.98369">
        <ele>4.4</ele>
        <time>2021-01-03T09:54:19Z</time>
      </trkpt>
      <trkpt lat="50.59799" lon="2.98374">
        <ele>4</ele>
        <time>2021-01-03T09:54:23Z</time>
      </trkpt>
      <trkpt lat="50.59816" lon="2.98387">
        <ele>4.4</ele>
        <time>2021-01-03T09:54:27Z</time>
      </trkpt>
      <trkpt lat="50.59836" lon="2.98392">
        <ele>4.4</ele>
        <time>2021-01-03T09:54:31Z</time>
      </trkpt>
      <trkpt lat="50.59854" lon="2.98404">
        <ele>4.8</ele>
        <time>2021-01-03T09:54:35Z</time>
      </trkpt>
      <trkpt lat="50.59872" lon="2.9842">
        <ele>5</ele>
        <time>2021-01-03T09:54:39Z</time>
      </trkpt>
      <trkpt lat="50.5987" lon="2.98446">
        <ele>4.8</ele>
        <time>2021-01-03T09:54:43Z</time>
      </trkpt>
      <trkpt lat="50.59863" lon="2.98467">
        <ele>5.6</ele>
        <time>2021-01-03T09:54:47Z</time>
      </trkpt>
      <trkpt lat="50.59865" lon="2.98478">
        <ele>5.4</ele>
        <time>2021-01-03T09:54:51Z</time>
      </trkpt>
      <trkpt lat="50.59875" lon="2.98478">
        <ele>5</ele>
        <time>2021-01-03T09:54:55Z</time>
      </trkpt>
      <trkpt lat="50.59886" lon="2.98461">
        <ele>4.6</ele>
        <time>2021-01-03T09:54:59Z</time>
      </trkpt>
      <trkpt lat="50.59903" lon="2.98442">
        <ele>4.6</ele>
        <time>2021-01-03T09:55:03Z</time>
      </trkpt>
      <trkpt lat="50.59922" lon="2.9843">
        <ele>6.2</ele>
        <time>2021-01-03T09:55:07Z</time>
      </trkpt>
      <trkpt lat="50.59941" lon="2.98419">
        <ele>6</ele>
        <time>2021-01-03T09:55:11Z</time>
      </trkpt>
      <trkpt lat="50.59962" lon="2.98407">
        <ele>5.4</ele>
        <time>2021-01-03T09:55:15Z</time>
      </trkpt>
      <trkpt lat="50.59988" lon="2.98398">
        <ele>4.2</ele>
        <time>2021-01-03T09:55:19Z</time>
      </trkpt>
      <trkpt lat="50.60012" lon="2.9839">
        <ele>4.4</ele>
        <time>2021-01-03T09:55:23Z</time>
      </trkpt>
      <trkpt lat="50.60036" lon="2.98383">
        <ele>4.6</ele>
        <time>2021-01-03T09:55:27Z</time>
      </trkpt>
      <trkpt lat="50.60059" lon="2.98376">
        <ele>4.4</ele>
        <time>2021-01-03T09:55:31Z</time>
      </trkpt>
      <trkpt lat="50.60081" lon="2.98369">
        <ele>4.8</ele>
        <time>2021-01-03T09:55:35Z</time>
      </trkpt>
      <trkpt lat="50.60102" lon="2.98359">
        <ele>3.8</ele>
        <time>2021-01-03T09:55:39Z</time>
      </trkpt>
      <trkpt lat="50.60126" lon="2.98347">
        <ele>3.2</ele>
        <time>2021-01-03T09:55:43Z</time>
      </trkpt>
      <trkpt lat="50.60148" lon="2.98343">
        <ele>3.4</ele>
        <time>2021-01-03T09:55:47Z</time>
      </trkpt>
      <trkpt lat="50.60165" lon="2.98354">
        <ele>4.2</ele>
        <time>2021-01-03T09:55:51Z</time>
      </trkpt>
      <trkpt lat="50.60179" lon="2.98374">
        <ele>4.2</ele>
        <time>2021-01-03T09:55:55Z</time>
      </trkpt>
      <trkpt lat="50.60194" lon="2.9839">
        <ele>4</ele>
        <time>2021-01-03T09:55:59Z</time>
      </trkpt>
      <trkpt lat="50.60201" lon="2.98403">
        <ele>4.4</ele>
        <time>2021-01-03T09:56:03Z</time>
      </trkpt>
      <trkpt lat="50.60191" lon="2.98397">
        <ele>4.2</ele>
        <time>2021-01-03T09:56:07Z</time>
      </trkpt>
      <trkpt lat="50.60177" lon="2.98385">
        <ele>5</ele>
        <time>2021-01-03T09:56:11Z</time>
      </trkpt>
      <trkpt lat="50.60161" lon="2.98371">
        <ele>6.6</ele>
        <time>2021-01-03T09:56:15Z</time>
      </trkpt>
      <trkpt lat="50.60142" lon="2.98369">
        <ele>7</ele>
        <time>2021-01-03T09:56:19Z</time>
      </trkpt>
      <trkpt lat="50.60129" lon="2.98362">
        <ele>7.6</ele>
        <time>2021-01-03T09:56:23Z</time>
      </trkpt>
      <trkpt lat="50.60122" lon="2.9834">
        <ele>8.4</ele>
        <time>2021-01-03T09:56:27Z</time>
      </trkpt>
      <trkpt lat="50.60115" lon="2.98318">
        <ele>9</ele>
        <time>2021-01-03T09:56:31Z</time>
      </trkpt>
      <trkpt lat="50.60108" lon="2.98298">
        <ele>8.8</ele>
        <time>2021-01-03T09:56:35Z</time>
      </trkpt>
      <trkpt lat="50.60101" lon="2.98277">
        <ele>8</ele>
        <time>2021-01-03T09:56:39Z</time>
      </trkpt>
      <trkpt lat="50.60094" lon="2.98254">
        <ele>7.8</ele>
        <time>2021-01-03T09:56:43Z</time>
      </trkpt>
      <trkpt lat="50.60089" lon="2.9824">
        <ele>7</ele>
        <time>2021-01-03T09:56:47Z</time>
      </trkpt>
      <trkpt lat="50.60089" lon="2.98216">
        <ele>6.4</ele>
        <time>2021-01-03T09:56:51Z</time>
      </trkpt>
      <trkpt lat="50.60094" lon="2.98183">
        <ele>4.8</ele>
        <time>2021-01-03T09:56:55Z</time>
      </trkpt>
      <trkpt lat="50.60102" lon="2.98158">
        <ele>4.8</ele>
        <time>2021-01-03T09:56:59Z</time>
      </trkpt>
      <trkpt lat="50.60116" lon="2.98165">
        <ele>3.6</ele>
        <time>2021-01-03T09:57:03Z</time>
      </trkpt>
      <trkpt lat="50.60124" lon="2.98194">
        <ele>3.6</ele>
        <time>2021-01-03T09:57:07Z</time>
      </trkpt>
      <trkpt lat="50.60132" lon="2.98225">
        <ele>2.8</ele>
        <time>2021-01-03T09:57:11Z</time>
      </trkpt>
      <trkpt lat="50.60139" lon="2.98255">
        <ele>3.2</ele>
        <time>2021-01-03T09:57:15Z</time>
      </trkpt>
      <trkpt lat="50.60147" lon="2.9827">
        <ele>4.2</ele>
        <time>2021-01-03T09:57:19Z</time>
      </trkpt>
      <trkpt lat="50.60161" lon="2.98273">
        <ele>2.6</ele>
        <time>2021-01-03T09:57:23Z</time>
      </trkpt>
      <trkpt lat="50.60181" lon="2.98268">
        <ele>2.6</ele>
        <time>2021-01-03T09:57:27Z</time>
      </trkpt>
      <trkpt lat="50.60202" lon="2.98266">
        <ele>2.8</ele>
        <time>2021-01-03T09:57:31Z</time>
      </trkpt>
      <trkpt lat="50.60222" lon="2.98262">
        <ele>2.6</ele>
        <time>2021-01-03T09:57:35Z</time>
      </trkpt>
      <trkpt lat="50.60241" lon="2.9825">
        <ele>2.6</ele>
        <time>2021-01-03T09:57:39Z</time>
      </trkpt>
      <trkpt lat="50.60261" lon="2.98235">
        <ele>1.6</ele>
        <time>2021-01-03T09:57:43Z</time>
      </trkpt>
      <trkpt lat="50.60283" lon="2.9823">
        <ele>2.4</ele>
        <time>2021-01-03T09:57:47Z</time>
      </trkpt>
      <trkpt lat="50.60304" lon="2.98226">
        <ele>2</ele>
        <time>2021-01-03T09:57:51Z</time>
      </trkpt>
      <trkpt lat="50.60324" lon="2.98222">
        <ele>2.2</ele>
        <time>2021-01-03T09:57:55Z</time>
      </trkpt>
      <trkpt lat="50.60345" lon="2.98227">
        <ele>2.4</ele>
        <time>2021-01-03T09:57:59Z</time>
      </trkpt>
      <trkpt lat="50.60365" lon="2.98236">
        <ele>3.4</ele>
        <time>2021-01-03T09:58:03Z</time>
      </trkpt>
      <trkpt lat="50.60387" lon="2.98234">
        <ele>3</ele>
        <time>2021-01-03T09:58:07Z</time>
      </trkpt>
      <trkpt lat="50.60404" lon="2.98225">
        <ele>3</ele>
        <time>2021-01-03T09:58:11Z</time>
      </trkpt>
      <trkpt lat="50.60423" lon="2.98218">
        <ele>3.2</ele>
        <time>2021-01-03T09:58:15Z</time>
      </trkpt>
      <trkpt lat="50.60438" lon="2.98217">
        <ele>3.2</ele>
        <time>2021-01-03T09:58:19Z</time>
      </trkpt>
      <trkpt lat="50.60454" lon="2.98216">
        <ele>3.2</ele>
        <time>2021-01-03T09:58:23Z</time>
      </trkpt>
      <trkpt lat="50.60474" lon="2.98213">
        <ele>2.8</ele>
        <time>2021-01-03T09:58:27Z</time>
      </trkpt>
      <trkpt lat="50.60493" lon="2.98208">
        <ele>3</ele>
        <time>2021-01-03T09:58:31Z</time>
      </trkpt>
      <trkpt lat="50.60513" lon="2.98205">
        <ele>2.2</ele>
        <time>2021-01-03T09:58:35Z</time>
      </trkpt>
      <trkpt lat="50.60532" lon="2.98202">
        <ele>3</ele>
        <time>2021-01-03T09:58:39Z</time>
      </trkpt>
      <trkpt lat="50.60552" lon="2.98198">
        <ele>2.6</ele>
        <time>2021-01-03T09:58:43Z</time>
      </trkpt>
      <trkpt lat="50.60571" lon="2.98195">
        <ele>3</ele>
        <time>2021-01-03T09:58:47Z</time>
      </trkpt>
      <trkpt lat="50.60591" lon="2.9819">
        <ele>2.2</ele>
        <time>2021-01-03T09:58:51Z</time>
      </trkpt>
      <trkpt lat="50.60612" lon="2.98186">
        <ele>2.6</ele>
        <time>2021-01-03T09:58:55Z</time>
      </trkpt>
      <trkpt lat="50.60632" lon="2.98183">
        <ele>3.2</ele>
        <time>2021-01-03T09:58:59Z</time>
      </trkpt>
      <trkpt lat="50.60651" lon="2.9818">
        <ele>3</ele>
        <time>2021-01-03T09:59:03Z</time>
      </trkpt>
      <trkpt lat="50.6067" lon="2.98182">
        <ele>3.6</ele>
        <time>2021-01-03T09:59:07Z</time>
      </trkpt>
      <trkpt lat="50.60686" lon="2.98185">
        <ele>3.4</ele>
        <time>2021-01-03T09:59:11Z</time>
      </trkpt>
      <trkpt lat="50.60694" lon="2.98168">
        <ele>3.6</ele>
        <time>2021-01-03T09:59:15Z</time>
      </trkpt>
      <trkpt lat="50.60701" lon="2.98158">
        <ele>3.4</ele>
        <time>2021-01-03T09:59:19Z</time>
      </trkpt>
      <trkpt lat="50.60717" lon="2.98153">
        <ele>3.4</ele>
        <time>2021-01-03T09:59:23Z</time>
      </trkpt>
      <trkpt lat="50.60736" lon="2.98149">
        <ele>3</ele>
        <time>2021-01-03T09:59:27Z</time>
      </trkpt>
      <trkpt lat="50.60755" lon="2.98145">
        <ele>3.2</ele>
        <time>2021-01-03T09:59:31Z</time>
      </trkpt>
      <trkpt lat="50.60773" lon="2.98141">
        <ele>2.8</ele>
        <time>2021-01-03T09:59:35Z</time>
      </trkpt>
      <trkpt lat="50.60793" lon="2.98136">
        <ele>3.4</ele>
        <time>2021-01-03T09:59:39Z</time>
      </trkpt>
      <trkpt lat="50.60813" lon="2.98134">
        <ele>3</ele>
        <time>2021-01-03T09:59:43Z</time>
      </trkpt>
      <trkpt lat="50.60832" lon="2.98129">
        <ele>3</ele>
        <time>2021-01-03T09:59:47Z</time>
      </trkpt>
      <trkpt lat="50.60853" lon="2.98126">
        <ele>3.2</ele>
        <time>2021-01-03T09:59:51Z</time>
      </trkpt>
      <trkpt lat="50.60873" lon="2.98122">
        <ele>3.8</ele>
        <time>2021-01-03T09:59:55Z</time>
      </trkpt>
      <trkpt lat="50.60895" lon="2.98119">
        <ele>3.2</ele>
        <time>2021-01-03T09:59:59Z</time>
      </trkpt>
      <trkpt lat="50.60913" lon="2.98115">
        <ele>3.2</ele>
        <time>2021-01-03T10:00:03Z</time>
      </trkpt>
      <trkpt lat="50.60925" lon="2.98117">
        <ele>4.2</ele>
        <time>2021-01-03T10:00:07Z</time>
      </trkpt>
      <trkpt lat="50.6093" lon="2.98124">
        <ele>4.2</ele>
        <time>2021-01-03T10:00:11Z</time>
      </trkpt>
      <trkpt lat="50.60941" lon="2.9813">
        <ele>3.8</ele>
        <time>2021-01-03T10:00:15Z</time>
      </trkpt>
      <trkpt lat="50.60958" lon="2.98131">
        <ele>3.4</ele>
        <time>2021-01-03T10:00:19Z</time>
      </trkpt>
      <trkpt lat="50.60976" lon="2.98131">
        <ele>3</ele>
        <time>2021-01-03T10:00:23Z</time>
      </trkpt>
      <trkpt lat="50.60996" lon="2.9813">
        <ele>3</ele>
        <time>2021-01-03T10:00:27Z</time>
      </trkpt>
      <trkpt lat="50.61016" lon="2.9813">
        <ele>3.2</ele>
        <time>2021-01-03T10:00:31Z</time>
      </trkpt>
      <trkpt lat="50.61035" lon="2.98133">
        <ele>3.2</ele>
        <time>2021-01-03T10:00:35Z</time>
      </trkpt>
      <trkpt lat="50.61053" lon="2.98138">
        <ele>3.4</ele>
        <time>2021-01-03T10:00:39Z</time>
      </trkpt>
      <trkpt lat="50.61073" lon="2.98143">
        <ele>3</ele>
        <time>2021-01-03T10:00:43Z</time>
      </trkpt>
      <trkpt lat="50.61095" lon="2.98148">
        <ele>3.2</ele>
        <time>2021-01-03T10:00:47Z</time>
      </trkpt>
      <trkpt lat="50.61118" lon="2.98152">
        <ele>3.2</ele>
        <time>2021-01-03T10:00:51Z</time>
      </trkpt>
      <trkpt lat="50.61139" lon="2.98156">
        <ele>3.2</ele>
        <time>2021-01-03T10:00:55Z</time>
      </trkpt>
      <trkpt lat="50.61161" lon="2.98162">
        <ele>2.6</ele>
        <time>2021-01-03T10:00:59Z</time>
      </trkpt>
      <trkpt lat="50.61183" lon="2.98168">
        <ele>3.2</ele>
        <time>2021-01-03T10:01:03Z</time>
      </trkpt>
      <trkpt lat="50.61206" lon="2.98177">
        <ele>2.2</ele>
        <time>2021-01-03T10:01:07Z</time>
      </trkpt>
      <trkpt lat="50.61228" lon="2.98185">
        <ele>2.8</ele>
        <time>2021-01-03T10:01:11Z</time>
      </trkpt>
      <trkpt lat="50.61251" lon="2.98194">
        <ele>2.6</ele>
        <time>2021-01-03T10:01:15Z</time>
      </trkpt>
      <trkpt lat="50.61273" lon="2.98206">
        <ele>2.6</ele>
        <time>2021-01-03T10:01:19Z</time>
      </trkpt>
      <trkpt lat="50.613" lon="2.98221">
        <ele>1.6</ele>
        <time>2021-01-03T10:01:23Z</time>
      </trkpt>
      <trkpt lat="50.61321" lon="2.98234">
        <ele>2.2</ele>
        <time>2021-01-03T10:01:27Z</time>
      </trkpt>
      <trkpt lat="50.61343" lon="2.98246">
        <ele>2.2</ele>
        <time>2021-01-03T10:01:31Z</time>
      </trkpt>
      <trkpt lat="50.61363" lon="2.9826">
        <ele>1.2</ele>
        <time>2021-01-03T10:01:35Z</time>
      </trkpt>
      <trkpt lat="50.61385" lon="2.98275">
        <ele>3</ele>
        <time>2021-01-03T10:01:39Z</time>
      </trkpt>
      <trkpt lat="50.61397" lon="2.98293">
        <ele>2.2</ele>
        <time>2021-01-03T10:01:43Z</time>
      </trkpt>
      <trkpt lat="50.61419" lon="2.98307">
        <ele>2.6</ele>
        <time>2021-01-03T10:01:47Z</time>
      </trkpt>
      <trkpt lat="50.61439" lon="2.98325">
        <ele>2.2</ele>
        <time>2021-01-03T10:01:51Z</time>
      </trkpt>
      <trkpt lat="50.61459" lon="2.98341">
        <ele>2.4</ele>
        <time>2021-01-03T10:01:55Z</time>
      </trkpt>
      <trkpt lat="50.61482" lon="2.98361">
        <ele>2.6</ele>
        <time>2021-01-03T10:01:59Z</time>
      </trkpt>
      <trkpt lat="50.61501" lon="2.9838">
        <ele>2.2</ele>
        <time>2021-01-03T10:02:03Z</time>
      </trkpt>
      <trkpt lat="50.6152" lon="2.98399">
        <ele>1.6</ele>
        <time>2021-01-03T10:02:07Z</time>
      </trkpt>
      <trkpt lat="50.61537" lon="2.98418">
        <ele>1.6</ele>
        <time>2021-01-03T10:02:11Z</time>
      </trkpt>
      <trkpt lat="50.61555" lon="2.98437">
        <ele>2.2</ele>
        <time>2021-01-03T10:02:15Z</time>
      </trkpt>
      <trkpt lat="50.61572" lon="2.98457">
        <ele>1.4</ele>
        <time>2021-01-03T10:02:19Z</time>
      </trkpt>
      <trkpt lat="50.6159" lon="2.98477">
        <ele>2.6</ele>
        <time>2021-01-03T10:02:23Z</time>
      </trkpt>
      <trkpt lat="50.61605" lon="2.98497">
        <ele>2</ele>
        <time>2021-01-03T10:02:27Z</time>
      </trkpt>
      <trkpt lat="50.61621" lon="2.98515">
        <ele>2.8</ele>
        <time>2021-01-03T10:02:31Z</time>
      </trkpt>
      <trkpt lat="50.61635" lon="2.98534">
        <ele>2.4</ele>
        <time>2021-01-03T10:02:35Z</time>
      </trkpt>
      <trkpt lat="50.61651" lon="2.98548">
        <ele>2.2</ele>
        <time>2021-01-03T10:02:39Z</time>
      </trkpt>
      <trkpt lat="50.61671" lon="2.98575">
        <ele>2.4</ele>
        <time>2021-01-03T10:02:43Z</time>
      </trkpt>
      <trkpt lat="50.61687" lon="2.98595">
        <ele>2.6</ele>
        <time>2021-01-03T10:02:47Z</time>
      </trkpt>
      <trkpt lat="50.61702" lon="2.98613">
        <ele>2.2</ele>
        <time>2021-01-03T10:02:51Z</time>
      </trkpt>
      <trkpt lat="50.61717" lon="2.98631">
        <ele>2.6</ele>
        <time>2021-01-03T10:02:55Z</time>
      </trkpt>
      <trkpt lat="50.61735" lon="2.9865">
        <ele>3</ele>
        <time>2021-01-03T10:02:59Z</time>
      </trkpt>
      <trkpt lat="50.61752" lon="2.9867">
        <ele>2.4</ele>
        <time>2021-01-03T10:03:03Z</time>
      </trkpt>
      <trkpt lat="50.6177" lon="2.98689">
        <ele>2.2</ele>
        <time>2021-01-03T10:03:07Z</time>
      </trkpt>
      <trkpt lat="50.61785" lon="2.98708">
        <ele>1.8</ele>
        <time>2021-01-03T10:03:11Z</time>
      </trkpt>
      <trkpt lat="50.61802" lon="2.98728">
        <ele>2</ele>
        <time>2021-01-03T10:03:15Z</time>
      </trkpt>
      <trkpt lat="50.61817" lon="2.98747">
        <ele>2.4</ele>
        <time>2021-01-03T10:03:19Z</time>
      </trkpt>
      <trkpt lat="50.61833" lon="2.98767">
        <ele>2.4</ele>
        <time>2021-01-03T10:03:23Z</time>
      </trkpt>
      <trkpt lat="50.61848" lon="2.98787">
        <ele>2.2</ele>
        <time>2021-01-03T10:03:27Z</time>
      </trkpt>
      <trkpt lat="50.61863" lon="2.98806">
        <ele>2.4</ele>
        <time>2021-01-03T10:03:31Z</time>
      </trkpt>
      <trkpt lat="50.61879" lon="2.98825">
        <ele>1.8</ele>
        <time>2021-01-03T10:03:35Z</time>
      </trkpt>
      <trkpt lat="50.61896" lon="2.98845">
        <ele>2.2</ele>
        <time>2021-01-03T10:03:39Z</time>
      </trkpt>
      <trkpt lat="50.61913" lon="2.98865">
        <ele>1.8</ele>
        <time>2021-01-03T10:03:43Z</time>
      </trkpt>
      <trkpt lat="50.61928" lon="2.98885">
        <ele>1.8</ele>
        <time>2021-01-03T10:03:47Z</time>
      </trkpt>
      <trkpt lat="50.61945" lon="2.98904">
        <ele>2.2</ele>
        <time>2021-01-03T10:03:51Z</time>
      </trkpt>
      <trkpt lat="50.61961" lon="2.98924">
        <ele>1.8</ele>
        <time>2021-01-03T10:03:55Z</time>
      </trkpt>
      <trkpt lat="50.61977" lon="2.98943">
        <ele>2</ele>
        <time>2021-01-03T10:03:59Z</time>
      </trkpt>
      <trkpt lat="50.61991" lon="2.98964">
        <ele>2.2</ele>
        <time>2021-01-03T10:04:03Z</time>
      </trkpt>
      <trkpt lat="50.62007" lon="2.98986">
        <ele>2.2</ele>
        <time>2021-01-03T10:04:07Z</time>
      </trkpt>
      <trkpt lat="50.62023" lon="2.99008">
        <ele>2.2</ele>
        <time>2021-01-03T10:04:11Z</time>
      </trkpt>
      <trkpt lat="50.62038" lon="2.99031">
        <ele>2.4</ele>
        <time>2021-01-03T10:04:15Z</time>
      </trkpt>
      <trkpt lat="50.62053" lon="2.99053">
        <ele>1.8</ele>
        <time>2021-01-03T10:04:19Z</time>
      </trkpt>
      <trkpt lat="50.62066" lon="2.99076">
        <ele>2.4</ele>
        <time>2021-01-03T10:04:23Z</time>
      </trkpt>
      <trkpt lat="50.62073" lon="2.99092">
        <ele>2.6</ele>
        <time>2021-01-03T10:04:27Z</time>
      </trkpt>
      <trkpt lat="50.62083" lon="2.99116">
        <ele>2.8</ele>
        <time>2021-01-03T10:04:31Z</time>
      </trkpt>
      <trkpt lat="50.62095" lon="2.99138">
        <ele>2</ele>
        <time>2021-01-03T10:04:35Z</time>
      </trkpt>
      <trkpt lat="50.62107" lon="2.99162">
        <ele>2.4</ele>
        <time>2021-01-03T10:04:39Z</time>
      </trkpt>
      <trkpt lat="50.62117" lon="2.99184">
        <ele>2.6</ele>
        <time>2021-01-03T10:04:43Z</time>
      </trkpt>
      <trkpt lat="50.62129" lon="2.99185">
        <ele>3.6</ele>
        <time>2021-01-03T10:04:47Z</time>
      </trkpt>
      <trkpt lat="50.62136" lon="2.99172">
        <ele>3.6</ele>
        <time>2021-01-03T10:04:51Z</time>
      </trkpt>
      <trkpt lat="50.62132" lon="2.99151">
        <ele>3.8</ele>
        <time>2021-01-03T10:04:55Z</time>
      </trkpt>
      <trkpt lat="50.62135" lon="2.99128">
        <ele>4</ele>
        <time>2021-01-03T10:04:59Z</time>
      </trkpt>
      <trkpt lat="50.62146" lon="2.99113">
        <ele>3.8</ele>
        <time>2021-01-03T10:05:03Z</time>
      </trkpt>
      <trkpt lat="50.62159" lon="2.99097">
        <ele>3.6</ele>
        <time>2021-01-03T10:05:07Z</time>
      </trkpt>
      <trkpt lat="50.62171" lon="2.99081">
        <ele>3.8</ele>
        <time>2021-01-03T10:05:11Z</time>
      </trkpt>
      <trkpt lat="50.62183" lon="2.99064">
        <ele>3.8</ele>
        <time>2021-01-03T10:05:15Z</time>
      </trkpt>
      <trkpt lat="50.6219" lon="2.99043">
        <ele>4.4</ele>
        <time>2021-01-03T10:05:19Z</time>
      </trkpt>
      <trkpt lat="50.62197" lon="2.99021">
        <ele>4.2</ele>
        <time>2021-01-03T10:05:23Z</time>
      </trkpt>
      <trkpt lat="50.62209" lon="2.99005">
        <ele>4.4</ele>
        <time>2021-01-03T10:05:27Z</time>
      </trkpt>
      <trkpt lat="50.62215" lon="2.98999">
        <ele>4.8</ele>
        <time>2021-01-03T10:05:31Z</time>
      </trkpt>
      <trkpt lat="50.62218" lon="2.98987">
        <ele>4.6</ele>
        <time>2021-01-03T10:05:35Z</time>
      </trkpt>
      <trkpt lat="50.62231" lon="2.98985">
        <ele>4.4</ele>
        <time>2021-01-03T10:05:39Z</time>
      </trkpt>
      <trkpt lat="50.62246" lon="2.98989">
        <ele>4.2</ele>
        <time>2021-01-03T10:05:43Z</time>
      </trkpt>
      <trkpt lat="50.62246" lon="2.98989">
        <ele>5</ele>
        <time>2021-01-03T10:05:47Z</time>
      </trkpt>
      <trkpt lat="50.62245" lon="2.98984">
        <ele>5.2</ele>
        <time>2021-01-03T10:07:55Z</time>
      </trkpt>
      <trkpt lat="50.6223" lon="2.98981">
        <ele>5</ele>
        <time>2021-01-03T10:07:59Z</time>
      </trkpt>
      <trkpt lat="50.62212" lon="2.98978">
        <ele>5</ele>
        <time>2021-01-03T10:08:03Z</time>
      </trkpt>
      <trkpt lat="50.62203" lon="2.98961">
        <ele>5</ele>
        <time>2021-01-03T10:08:07Z</time>
      </trkpt>
      <trkpt lat="50.62201" lon="2.98951">
        <ele>4.6</ele>
        <time>2021-01-03T10:08:11Z</time>
      </trkpt>
      <trkpt lat="50.62192" lon="2.98948">
        <ele>4.6</ele>
        <time>2021-01-03T10:08:15Z</time>
      </trkpt>
      <trkpt lat="50.62182" lon="2.98955">
        <ele>5</ele>
        <time>2021-01-03T10:08:19Z</time>
      </trkpt>
      <trkpt lat="50.62172" lon="2.98967">
        <ele>7.6</ele>
        <time>2021-01-03T10:08:23Z</time>
      </trkpt>
      <trkpt lat="50.62165" lon="2.98983">
        <ele>5.2</ele>
        <time>2021-01-03T10:08:27Z</time>
      </trkpt>
      <trkpt lat="50.62155" lon="2.98996">
        <ele>5.4</ele>
        <time>2021-01-03T10:08:31Z</time>
      </trkpt>
      <trkpt lat="50.62142" lon="2.99001">
        <ele>5.6</ele>
        <time>2021-01-03T10:08:35Z</time>
      </trkpt>
      <trkpt lat="50.62128" lon="2.99007">
        <ele>6.2</ele>
        <time>2021-01-03T10:08:39Z</time>
      </trkpt>
      <trkpt lat="50.62115" lon="2.99018">
        <ele>7</ele>
        <time>2021-01-03T10:08:43Z</time>
      </trkpt>
      <trkpt lat="50.62102" lon="2.99031">
        <ele>7.4</ele>
        <time>2021-01-03T10:08:47Z</time>
      </trkpt>
      <trkpt lat="50.6209" lon="2.99046">
        <ele>8.2</ele>
        <time>2021-01-03T10:08:51Z</time>
      </trkpt>
      <trkpt lat="50.62078" lon="2.99063">
        <ele>8.8</ele>
        <time>2021-01-03T10:08:55Z</time>
      </trkpt>
      <trkpt lat="50.62067" lon="2.99079">
        <ele>9.6</ele>
        <time>2021-01-03T10:08:59Z</time>
      </trkpt>
      <trkpt lat="50.62056" lon="2.99094">
        <ele>10</ele>
        <time>2021-01-03T10:09:03Z</time>
      </trkpt>
      <trkpt lat="50.62045" lon="2.99108">
        <ele>9.4</ele>
        <time>2021-01-03T10:09:07Z</time>
      </trkpt>
      <trkpt lat="50.62033" lon="2.99123">
        <ele>9.2</ele>
        <time>2021-01-03T10:09:11Z</time>
      </trkpt>
      <trkpt lat="50.62019" lon="2.99142">
        <ele>8.6</ele>
        <time>2021-01-03T10:09:15Z</time>
      </trkpt>
      <trkpt lat="50.62003" lon="2.99161">
        <ele>8</ele>
        <time>2021-01-03T10:09:19Z</time>
      </trkpt>
      <trkpt lat="50.61987" lon="2.99184">
        <ele>6.4</ele>
        <time>2021-01-03T10:09:23Z</time>
      </trkpt>
      <trkpt lat="50.61969" lon="2.99211">
        <ele>6.2</ele>
        <time>2021-01-03T10:09:27Z</time>
      </trkpt>
      <trkpt lat="50.61952" lon="2.9924">
        <ele>4.8</ele>
        <time>2021-01-03T10:09:31Z</time>
      </trkpt>
      <trkpt lat="50.61935" lon="2.99273">
        <ele>3.6</ele>
        <time>2021-01-03T10:09:35Z</time>
      </trkpt>
      <trkpt lat="50.61919" lon="2.9931">
        <ele>2.8</ele>
        <time>2021-01-03T10:09:39Z</time>
      </trkpt>
      <trkpt lat="50.61906" lon="2.99348">
        <ele>3</ele>
        <time>2021-01-03T10:09:43Z</time>
      </trkpt>
      <trkpt lat="50.61894" lon="2.99385">
        <ele>3.2</ele>
        <time>2021-01-03T10:09:47Z</time>
      </trkpt>
      <trkpt lat="50.61883" lon="2.99419">
        <ele>3</ele>
        <time>2021-01-03T10:09:51Z</time>
      </trkpt>
      <trkpt lat="50.61877" lon="2.99449">
        <ele>3.6</ele>
        <time>2021-01-03T10:09:55Z</time>
      </trkpt>
      <trkpt lat="50.61874" lon="2.99472">
        <ele>4.2</ele>
        <time>2021-01-03T10:09:59Z</time>
      </trkpt>
      <trkpt lat="50.61863" lon="2.99507">
        <ele>5</ele>
        <time>2021-01-03T10:10:03Z</time>
      </trkpt>
      <trkpt lat="50.61855" lon="2.99536">
        <ele>6</ele>
        <time>2021-01-03T10:10:07Z</time>
      </trkpt>
      <trkpt lat="50.6185" lon="2.9956">
        <ele>6.8</ele>
        <time>2021-01-03T10:10:11Z</time>
      </trkpt>
      <trkpt lat="50.61843" lon="2.99582">
        <ele>7.6</ele>
        <time>2021-01-03T10:10:15Z</time>
      </trkpt>
      <trkpt lat="50.61834" lon="2.99605">
        <ele>8</ele>
        <time>2021-01-03T10:10:19Z</time>
      </trkpt>
      <trkpt lat="50.61824" lon="2.99633">
        <ele>9</ele>
        <time>2021-01-03T10:10:23Z</time>
      </trkpt>
      <trkpt lat="50.61814" lon="2.99658">
        <ele>9.4</ele>
        <time>2021-01-03T10:10:27Z</time>
      </trkpt>
      <trkpt lat="50.61807" lon="2.99679">
        <ele>9.8</ele>
        <time>2021-01-03T10:10:31Z</time>
      </trkpt>
      <trkpt lat="50.618" lon="2.99701">
        <ele>10.2</ele>
        <time>2021-01-03T10:10:35Z</time>
      </trkpt>
      <trkpt lat="50.61792" lon="2.99723">
        <ele>10</ele>
        <time>2021-01-03T10:10:39Z</time>
      </trkpt>
      <trkpt lat="50.61784" lon="2.99746">
        <ele>10.4</ele>
        <time>2021-01-03T10:10:43Z</time>
      </trkpt>
      <trkpt lat="50.61777" lon="2.99769">
        <ele>10</ele>
        <time>2021-01-03T10:10:47Z</time>
      </trkpt>
      <trkpt lat="50.61772" lon="2.9979">
        <ele>9.2</ele>
        <time>2021-01-03T10:10:51Z</time>
      </trkpt>
      <trkpt lat="50.61765" lon="2.99815">
        <ele>8</ele>
        <time>2021-01-03T10:10:55Z</time>
      </trkpt>
      <trkpt lat="50.6176" lon="2.99841">
        <ele>7.6</ele>
        <time>2021-01-03T10:10:59Z</time>
      </trkpt>
      <trkpt lat="50.61751" lon="2.99873">
        <ele>6.6</ele>
        <time>2021-01-03T10:11:03Z</time>
      </trkpt>
      <trkpt lat="50.61738" lon="2.99911">
        <ele>5</ele>
        <time>2021-01-03T10:11:07Z</time>
      </trkpt>
      <trkpt lat="50.61725" lon="2.9995">
        <ele>4.2</ele>
        <time>2021-01-03T10:11:11Z</time>
      </trkpt>
      <trkpt lat="50.61714" lon="2.99989">
        <ele>3.2</ele>
        <time>2021-01-03T10:11:15Z</time>
      </trkpt>
      <trkpt lat="50.61702" lon="3.00029">
        <ele>3.8</ele>
        <time>2021-01-03T10:11:19Z</time>
      </trkpt>
      <trkpt lat="50.61697" lon="3.00071">
        <ele>4.2</ele>
        <time>2021-01-03T10:11:23Z</time>
      </trkpt>
      <trkpt lat="50.61687" lon="3.00109">
        <ele>4.2</ele>
        <time>2021-01-03T10:11:27Z</time>
      </trkpt>
      <trkpt lat="50.61679" lon="3.00144">
        <ele>4.4</ele>
        <time>2021-01-03T10:11:31Z</time>
      </trkpt>
      <trkpt lat="50.61692" lon="3.00164">
        <ele>3.4</ele>
        <time>2021-01-03T10:11:35Z</time>
      </trkpt>
      <trkpt lat="50.61711" lon="3.00158">
        <ele>3.2</ele>
        <time>2021-01-03T10:11:39Z</time>
      </trkpt>
      <trkpt lat="50.61732" lon="3.00165">
        <ele>3.4</ele>
        <time>2021-01-03T10:11:43Z</time>
      </trkpt>
      <trkpt lat="50.61755" lon="3.00174">
        <ele>2.8</ele>
        <time>2021-01-03T10:11:47Z</time>
      </trkpt>
      <trkpt lat="50.61776" lon="3.00187">
        <ele>2</ele>
        <time>2021-01-03T10:11:51Z</time>
      </trkpt>
      <trkpt lat="50.61796" lon="3.00206">
        <ele>2.2</ele>
        <time>2021-01-03T10:11:55Z</time>
      </trkpt>
      <trkpt lat="50.61813" lon="3.00229">
        <ele>3</ele>
        <time>2021-01-03T10:11:59Z</time>
      </trkpt>
      <trkpt lat="50.61829" lon="3.00255">
        <ele>2.8</ele>
        <time>2021-01-03T10:12:03Z</time>
      </trkpt>
      <trkpt lat="50.61841" lon="3.00283">
        <ele>2.6</ele>
        <time>2021-01-03T10:12:07Z</time>
      </trkpt>
      <trkpt lat="50.61851" lon="3.00313">
        <ele>3</ele>
        <time>2021-01-03T10:12:11Z</time>
      </trkpt>
      <trkpt lat="50.61862" lon="3.00343">
        <ele>3</ele>
        <time>2021-01-03T10:12:15Z</time>
      </trkpt>
      <trkpt lat="50.6187" lon="3.00372">
        <ele>3.2</ele>
        <time>2021-01-03T10:12:19Z</time>
      </trkpt>
      <trkpt lat="50.61862" lon="3.00403">
        <ele>3</ele>
        <time>2021-01-03T10:12:23Z</time>
      </trkpt>
      <trkpt lat="50.61842" lon="3.00417">
        <ele>2.8</ele>
        <time>2021-01-03T10:12:27Z</time>
      </trkpt>
      <trkpt lat="50.61822" lon="3.00427">
        <ele>2.8</ele>
        <time>2021-01-03T10:12:31Z</time>
      </trkpt>
      <trkpt lat="50.61801" lon="3.00437">
        <ele>3.2</ele>
        <time>2021-01-03T10:12:35Z</time>
      </trkpt>
      <trkpt lat="50.61782" lon="3.00447">
        <ele>3</ele>
        <time>2021-01-03T10:12:39Z</time>
      </trkpt>
      <trkpt lat="50.61763" lon="3.00457">
        <ele>3.6</ele>
        <time>2021-01-03T10:12:43Z</time>
      </trkpt>
      <trkpt lat="50.61744" lon="3.00464">
        <ele>3.8</ele>
        <time>2021-01-03T10:12:47Z</time>
      </trkpt>
      <trkpt lat="50.61724" lon="3.00476">
        <ele>3.4</ele>
        <time>2021-01-03T10:12:51Z</time>
      </trkpt>
      <trkpt lat="50.61705" lon="3.00487">
        <ele>3.6</ele>
        <time>2021-01-03T10:12:55Z</time>
      </trkpt>
      <trkpt lat="50.61687" lon="3.00498">
        <ele>3.4</ele>
        <time>2021-01-03T10:12:59Z</time>
      </trkpt>
      <trkpt lat="50.61669" lon="3.00507">
        <ele>4.2</ele>
        <time>2021-01-03T10:13:03Z</time>
      </trkpt>
      <trkpt lat="50.6165" lon="3.00517">
        <ele>4</ele>
        <time>2021-01-03T10:13:07Z</time>
      </trkpt>
      <trkpt lat="50.61636" lon="3.00515">
        <ele>4.8</ele>
        <time>2021-01-03T10:13:11Z</time>
      </trkpt>
      <trkpt lat="50.61629" lon="3.00509">
        <ele>4.8</ele>
        <time>2021-01-03T10:13:15Z</time>
      </trkpt>
      <trkpt lat="50.61621" lon="3.00489">
        <ele>4.2</ele>
        <time>2021-01-03T10:13:39Z</time>
      </trkpt>
      <trkpt lat="50.6161" lon="3.00477">
        <ele>4.2</ele>
        <time>2021-01-03T10:13:43Z</time>
      </trkpt>
      <trkpt lat="50.616" lon="3.00462">
        <ele>4.4</ele>
        <time>2021-01-03T10:13:47Z</time>
      </trkpt>
      <trkpt lat="50.6159" lon="3.00446">
        <ele>4</ele>
        <time>2021-01-03T10:13:51Z</time>
      </trkpt>
    </trkseg>
  </trk>
</gpx>